<?xml version="1.0" encoding="UTF-8" standalone="no" ?>
<gpx xmlns="http://www.topografix.com/GPX/1/1" xmlns:xsi="http://www.w3.org/2001/XMLSchema-instance" xsi:schemaLocation="http://www.topografix.com/GPX/1/1 http://www.topografix.com/GPX/1/1/gpx.xsd" version="1.1" creator="VisuGPX - https://www.visugpx.com">
  <metadata>
    <name>cancon montaut</name>
    <desc><![CDATA[trace sympas terre collante les mois d hiver ]]></desc>
  </metadata>
  <trk>
    <name><![CDATA[TracA- actuel- 08 MAI 2012 08-32]]></name>
    <trkseg>
      <trkpt lat="44.53653" lon="0.6256">
        <ele>154.91</ele>
        <time>2012-05-08T07:32:14Z</time>
      </trkpt>
      <trkpt lat="44.53653" lon="0.6256">
        <ele>154.91</ele>
        <time>2012-05-08T07:32:19Z</time>
      </trkpt>
      <trkpt lat="44.53651" lon="0.62552">
        <ele>154.43</ele>
        <time>2012-05-08T07:48:20Z</time>
      </trkpt>
      <trkpt lat="44.5365" lon="0.62552">
        <ele>154.91</ele>
        <time>2012-05-08T07:48:59Z</time>
      </trkpt>
      <trkpt lat="44.53651" lon="0.62553">
        <ele>155.87</ele>
        <time>2012-05-08T07:49:37Z</time>
      </trkpt>
      <trkpt lat="44.5365" lon="0.62554">
        <ele>157.31</ele>
        <time>2012-05-08T07:50:15Z</time>
      </trkpt>
      <trkpt lat="44.53649" lon="0.62554">
        <ele>156.35</ele>
        <time>2012-05-08T07:50:49Z</time>
      </trkpt>
      <trkpt lat="44.53649" lon="0.62554">
        <ele>156.35</ele>
        <time>2012-05-08T07:51:18Z</time>
      </trkpt>
      <trkpt lat="44.53649" lon="0.62555">
        <ele>156.35</ele>
        <time>2012-05-08T07:51:58Z</time>
      </trkpt>
      <trkpt lat="44.5365" lon="0.62555">
        <ele>154.43</ele>
        <time>2012-05-08T07:52:37Z</time>
      </trkpt>
      <trkpt lat="44.5365" lon="0.62553">
        <ele>154.91</ele>
        <time>2012-05-08T07:53:07Z</time>
      </trkpt>
      <trkpt lat="44.5365" lon="0.62548">
        <ele>154.91</ele>
        <time>2012-05-08T07:53:11Z</time>
      </trkpt>
      <trkpt lat="44.53648" lon="0.62546">
        <ele>155.39</ele>
        <time>2012-05-08T07:53:13Z</time>
      </trkpt>
      <trkpt lat="44.53647" lon="0.62561">
        <ele>156.83</ele>
        <time>2012-05-08T07:53:22Z</time>
      </trkpt>
      <trkpt lat="44.53669" lon="0.62578">
        <ele>156.83</ele>
        <time>2012-05-08T07:53:36Z</time>
      </trkpt>
      <trkpt lat="44.53703" lon="0.62587">
        <ele>152.99</ele>
        <time>2012-05-08T07:53:47Z</time>
      </trkpt>
      <trkpt lat="44.5372" lon="0.62595">
        <ele>152.51</ele>
        <time>2012-05-08T07:54:00Z</time>
      </trkpt>
      <trkpt lat="44.53721" lon="0.62596">
        <ele>152.51</ele>
        <time>2012-05-08T07:54:01Z</time>
      </trkpt>
      <trkpt lat="44.53722" lon="0.62597">
        <ele>152.51</ele>
        <time>2012-05-08T07:54:02Z</time>
      </trkpt>
      <trkpt lat="44.53723" lon="0.62598">
        <ele>152.51</ele>
        <time>2012-05-08T07:54:03Z</time>
      </trkpt>
      <trkpt lat="44.53724" lon="0.62598">
        <ele>152.03</ele>
        <time>2012-05-08T07:54:04Z</time>
      </trkpt>
      <trkpt lat="44.53725" lon="0.62598">
        <ele>152.03</ele>
        <time>2012-05-08T07:54:05Z</time>
      </trkpt>
      <trkpt lat="44.53728" lon="0.62596">
        <ele>151.54</ele>
        <time>2012-05-08T07:54:17Z</time>
      </trkpt>
      <trkpt lat="44.53728" lon="0.62595">
        <ele>151.06</ele>
        <time>2012-05-08T07:54:38Z</time>
      </trkpt>
      <trkpt lat="44.53728" lon="0.62595">
        <ele>151.06</ele>
        <time>2012-05-08T07:55:02Z</time>
      </trkpt>
      <trkpt lat="44.53729" lon="0.62596">
        <ele>150.58</ele>
        <time>2012-05-08T07:55:24Z</time>
      </trkpt>
      <trkpt lat="44.53728" lon="0.62595">
        <ele>150.58</ele>
        <time>2012-05-08T07:55:53Z</time>
      </trkpt>
      <trkpt lat="44.53728" lon="0.62596">
        <ele>150.1</ele>
        <time>2012-05-08T07:56:19Z</time>
      </trkpt>
      <trkpt lat="44.53728" lon="0.62597">
        <ele>150.1</ele>
        <time>2012-05-08T07:56:40Z</time>
      </trkpt>
      <trkpt lat="44.53728" lon="0.62597">
        <ele>150.58</ele>
        <time>2012-05-08T07:57:01Z</time>
      </trkpt>
      <trkpt lat="44.53728" lon="0.62598">
        <ele>151.06</ele>
        <time>2012-05-08T07:57:30Z</time>
      </trkpt>
      <trkpt lat="44.53727" lon="0.62597">
        <ele>152.03</ele>
        <time>2012-05-08T07:57:54Z</time>
      </trkpt>
      <trkpt lat="44.53727" lon="0.62596">
        <ele>152.51</ele>
        <time>2012-05-08T07:58:17Z</time>
      </trkpt>
      <trkpt lat="44.53727" lon="0.62596">
        <ele>152.03</ele>
        <time>2012-05-08T07:58:48Z</time>
      </trkpt>
      <trkpt lat="44.53727" lon="0.62596">
        <ele>152.51</ele>
        <time>2012-05-08T07:59:11Z</time>
      </trkpt>
      <trkpt lat="44.53727" lon="0.62596">
        <ele>152.51</ele>
        <time>2012-05-08T07:59:35Z</time>
      </trkpt>
      <trkpt lat="44.53727" lon="0.62596">
        <ele>152.99</ele>
        <time>2012-05-08T07:59:54Z</time>
      </trkpt>
      <trkpt lat="44.53727" lon="0.62597">
        <ele>152.99</ele>
        <time>2012-05-08T08:00:15Z</time>
      </trkpt>
      <trkpt lat="44.53727" lon="0.62597">
        <ele>152.99</ele>
        <time>2012-05-08T08:00:29Z</time>
      </trkpt>
      <trkpt lat="44.53724" lon="0.62598">
        <ele>151.54</ele>
        <time>2012-05-08T08:00:45Z</time>
      </trkpt>
      <trkpt lat="44.53724" lon="0.62598">
        <ele>151.06</ele>
        <time>2012-05-08T08:01:03Z</time>
      </trkpt>
      <trkpt lat="44.53724" lon="0.62598">
        <ele>150.58</ele>
        <time>2012-05-08T08:01:27Z</time>
      </trkpt>
      <trkpt lat="44.53724" lon="0.62598">
        <ele>149.62</ele>
        <time>2012-05-08T08:01:49Z</time>
      </trkpt>
      <trkpt lat="44.53723" lon="0.62598">
        <ele>150.1</ele>
        <time>2012-05-08T08:02:07Z</time>
      </trkpt>
      <trkpt lat="44.53719" lon="0.62598">
        <ele>151.06</ele>
        <time>2012-05-08T08:02:21Z</time>
      </trkpt>
      <trkpt lat="44.5372" lon="0.62601">
        <ele>151.06</ele>
        <time>2012-05-08T08:02:23Z</time>
      </trkpt>
      <trkpt lat="44.53721" lon="0.62602">
        <ele>151.06</ele>
        <time>2012-05-08T08:02:24Z</time>
      </trkpt>
      <trkpt lat="44.53722" lon="0.62603">
        <ele>151.06</ele>
        <time>2012-05-08T08:02:25Z</time>
      </trkpt>
      <trkpt lat="44.53728" lon="0.62615">
        <ele>151.54</ele>
        <time>2012-05-08T08:02:31Z</time>
      </trkpt>
      <trkpt lat="44.5373" lon="0.62625">
        <ele>152.03</ele>
        <time>2012-05-08T08:02:45Z</time>
      </trkpt>
      <trkpt lat="44.5373" lon="0.62626">
        <ele>152.03</ele>
        <time>2012-05-08T08:03:10Z</time>
      </trkpt>
      <trkpt lat="44.53731" lon="0.62626">
        <ele>151.54</ele>
        <time>2012-05-08T08:03:37Z</time>
      </trkpt>
      <trkpt lat="44.53731" lon="0.62626">
        <ele>151.54</ele>
        <time>2012-05-08T08:03:41Z</time>
      </trkpt>
      <trkpt lat="44.5373" lon="0.62634">
        <ele>151.06</ele>
        <time>2012-05-08T08:03:49Z</time>
      </trkpt>
      <trkpt lat="44.53734" lon="0.62636">
        <ele>151.06</ele>
        <time>2012-05-08T08:03:52Z</time>
      </trkpt>
      <trkpt lat="44.53736" lon="0.62636">
        <ele>151.06</ele>
        <time>2012-05-08T08:03:53Z</time>
      </trkpt>
      <trkpt lat="44.53739" lon="0.62636">
        <ele>151.06</ele>
        <time>2012-05-08T08:03:54Z</time>
      </trkpt>
      <trkpt lat="44.53742" lon="0.62636">
        <ele>151.06</ele>
        <time>2012-05-08T08:03:55Z</time>
      </trkpt>
      <trkpt lat="44.53751" lon="0.62635">
        <ele>151.06</ele>
        <time>2012-05-08T08:03:58Z</time>
      </trkpt>
      <trkpt lat="44.53753" lon="0.62632">
        <ele>150.58</ele>
        <time>2012-05-08T08:03:59Z</time>
      </trkpt>
      <trkpt lat="44.53754" lon="0.62629">
        <ele>150.1</ele>
        <time>2012-05-08T08:04:00Z</time>
      </trkpt>
      <trkpt lat="44.53754" lon="0.62626">
        <ele>149.62</ele>
        <time>2012-05-08T08:04:01Z</time>
      </trkpt>
      <trkpt lat="44.53754" lon="0.62623">
        <ele>149.62</ele>
        <time>2012-05-08T08:04:02Z</time>
      </trkpt>
      <trkpt lat="44.53754" lon="0.6262">
        <ele>149.14</ele>
        <time>2012-05-08T08:04:03Z</time>
      </trkpt>
      <trkpt lat="44.53754" lon="0.62617">
        <ele>149.14</ele>
        <time>2012-05-08T08:04:04Z</time>
      </trkpt>
      <trkpt lat="44.53761" lon="0.62587">
        <ele>149.14</ele>
        <time>2012-05-08T08:04:14Z</time>
      </trkpt>
      <trkpt lat="44.53791" lon="0.62575">
        <ele>149.62</ele>
        <time>2012-05-08T08:04:23Z</time>
      </trkpt>
      <trkpt lat="44.53851" lon="0.62545">
        <ele>145.78</ele>
        <time>2012-05-08T08:04:36Z</time>
      </trkpt>
      <trkpt lat="44.53899" lon="0.62519">
        <ele>142.89</ele>
        <time>2012-05-08T08:04:49Z</time>
      </trkpt>
      <trkpt lat="44.53938" lon="0.62514">
        <ele>141.45</ele>
        <time>2012-05-08T08:05:00Z</time>
      </trkpt>
      <trkpt lat="44.53951" lon="0.62518">
        <ele>141.93</ele>
        <time>2012-05-08T08:05:04Z</time>
      </trkpt>
      <trkpt lat="44.53969" lon="0.62534">
        <ele>140.97</ele>
        <time>2012-05-08T08:05:09Z</time>
      </trkpt>
      <trkpt lat="44.53977" lon="0.62541">
        <ele>140.49</ele>
        <time>2012-05-08T08:05:11Z</time>
      </trkpt>
      <trkpt lat="44.53999" lon="0.62593">
        <ele>138.09</ele>
        <time>2012-05-08T08:05:20Z</time>
      </trkpt>
      <trkpt lat="44.54002" lon="0.62597">
        <ele>137.61</ele>
        <time>2012-05-08T08:05:21Z</time>
      </trkpt>
      <trkpt lat="44.54025" lon="0.62634">
        <ele>136.64</ele>
        <time>2012-05-08T08:05:32Z</time>
      </trkpt>
      <trkpt lat="44.5405" lon="0.62681">
        <ele>135.68</ele>
        <time>2012-05-08T08:05:43Z</time>
      </trkpt>
      <trkpt lat="44.54065" lon="0.6272">
        <ele>135.68</ele>
        <time>2012-05-08T08:05:51Z</time>
      </trkpt>
      <trkpt lat="44.54091" lon="0.62729">
        <ele>133.28</ele>
        <time>2012-05-08T08:05:57Z</time>
      </trkpt>
      <trkpt lat="44.54134" lon="0.62707">
        <ele>134.72</ele>
        <time>2012-05-08T08:06:08Z</time>
      </trkpt>
      <trkpt lat="44.54159" lon="0.62685">
        <ele>137.61</ele>
        <time>2012-05-08T08:06:18Z</time>
      </trkpt>
      <trkpt lat="44.54162" lon="0.62686">
        <ele>138.09</ele>
        <time>2012-05-08T08:06:19Z</time>
      </trkpt>
      <trkpt lat="44.54163" lon="0.62688">
        <ele>138.09</ele>
        <time>2012-05-08T08:06:20Z</time>
      </trkpt>
      <trkpt lat="44.54183" lon="0.62738">
        <ele>138.09</ele>
        <time>2012-05-08T08:06:32Z</time>
      </trkpt>
      <trkpt lat="44.54198" lon="0.62774">
        <ele>138.57</ele>
        <time>2012-05-08T08:06:41Z</time>
      </trkpt>
      <trkpt lat="44.54214" lon="0.62791">
        <ele>138.57</ele>
        <time>2012-05-08T08:06:46Z</time>
      </trkpt>
      <trkpt lat="44.54267" lon="0.62833">
        <ele>140.97</ele>
        <time>2012-05-08T08:07:03Z</time>
      </trkpt>
      <trkpt lat="44.54306" lon="0.62868">
        <ele>143.85</ele>
        <time>2012-05-08T08:07:20Z</time>
      </trkpt>
      <trkpt lat="44.54313" lon="0.62874">
        <ele>143.37</ele>
        <time>2012-05-08T08:07:22Z</time>
      </trkpt>
      <trkpt lat="44.54377" lon="0.62947">
        <ele>136.64</ele>
        <time>2012-05-08T08:07:36Z</time>
      </trkpt>
      <trkpt lat="44.54454" lon="0.63051">
        <ele>130.4</ele>
        <time>2012-05-08T08:07:49Z</time>
      </trkpt>
      <trkpt lat="44.54462" lon="0.63065">
        <ele>130.4</ele>
        <time>2012-05-08T08:07:51Z</time>
      </trkpt>
      <trkpt lat="44.54466" lon="0.63071">
        <ele>129.92</ele>
        <time>2012-05-08T08:07:52Z</time>
      </trkpt>
      <trkpt lat="44.54526" lon="0.63168">
        <ele>127.99</ele>
        <time>2012-05-08T08:08:07Z</time>
      </trkpt>
      <trkpt lat="44.54531" lon="0.63172">
        <ele>127.99</ele>
        <time>2012-05-08T08:08:08Z</time>
      </trkpt>
      <trkpt lat="44.54595" lon="0.63217">
        <ele>131.36</ele>
        <time>2012-05-08T08:08:24Z</time>
      </trkpt>
      <trkpt lat="44.54627" lon="0.63239">
        <ele>134.24</ele>
        <time>2012-05-08T08:08:36Z</time>
      </trkpt>
      <trkpt lat="44.54674" lon="0.63263">
        <ele>131.36</ele>
        <time>2012-05-08T08:08:48Z</time>
      </trkpt>
      <trkpt lat="44.54705" lon="0.63276">
        <ele>130.4</ele>
        <time>2012-05-08T08:08:53Z</time>
      </trkpt>
      <trkpt lat="44.54711" lon="0.63277">
        <ele>130.4</ele>
        <time>2012-05-08T08:08:54Z</time>
      </trkpt>
      <trkpt lat="44.54716" lon="0.63277">
        <ele>130.4</ele>
        <time>2012-05-08T08:08:55Z</time>
      </trkpt>
      <trkpt lat="44.5472" lon="0.63276">
        <ele>130.88</ele>
        <time>2012-05-08T08:08:56Z</time>
      </trkpt>
      <trkpt lat="44.54723" lon="0.63275">
        <ele>130.88</ele>
        <time>2012-05-08T08:08:57Z</time>
      </trkpt>
      <trkpt lat="44.5476" lon="0.63261">
        <ele>133.28</ele>
        <time>2012-05-08T08:09:09Z</time>
      </trkpt>
      <trkpt lat="44.54812" lon="0.63243">
        <ele>135.2</ele>
        <time>2012-05-08T08:09:26Z</time>
      </trkpt>
      <trkpt lat="44.54856" lon="0.63228">
        <ele>138.57</ele>
        <time>2012-05-08T08:09:42Z</time>
      </trkpt>
      <trkpt lat="44.54899" lon="0.63214">
        <ele>140.97</ele>
        <time>2012-05-08T08:09:58Z</time>
      </trkpt>
      <trkpt lat="44.54929" lon="0.63206">
        <ele>142.89</ele>
        <time>2012-05-08T08:10:10Z</time>
      </trkpt>
      <trkpt lat="44.54954" lon="0.63199">
        <ele>145.3</ele>
        <time>2012-05-08T08:10:21Z</time>
      </trkpt>
      <trkpt lat="44.54991" lon="0.63197">
        <ele>148.66</ele>
        <time>2012-05-08T08:10:35Z</time>
      </trkpt>
      <trkpt lat="44.55017" lon="0.63221">
        <ele>152.03</ele>
        <time>2012-05-08T08:10:48Z</time>
      </trkpt>
      <trkpt lat="44.55033" lon="0.63256">
        <ele>152.99</ele>
        <time>2012-05-08T08:11:00Z</time>
      </trkpt>
      <trkpt lat="44.55052" lon="0.63304">
        <ele>151.06</ele>
        <time>2012-05-08T08:11:13Z</time>
      </trkpt>
      <trkpt lat="44.55061" lon="0.63319">
        <ele>150.1</ele>
        <time>2012-05-08T08:11:17Z</time>
      </trkpt>
      <trkpt lat="44.55061" lon="0.63318">
        <ele>150.1</ele>
        <time>2012-05-08T08:11:26Z</time>
      </trkpt>
      <trkpt lat="44.55076" lon="0.63347">
        <ele>149.14</ele>
        <time>2012-05-08T08:11:37Z</time>
      </trkpt>
      <trkpt lat="44.55081" lon="0.63355">
        <ele>148.66</ele>
        <time>2012-05-08T08:11:39Z</time>
      </trkpt>
      <trkpt lat="44.55083" lon="0.6336">
        <ele>148.66</ele>
        <time>2012-05-08T08:11:40Z</time>
      </trkpt>
      <trkpt lat="44.55085" lon="0.63364">
        <ele>149.14</ele>
        <time>2012-05-08T08:11:41Z</time>
      </trkpt>
      <trkpt lat="44.55087" lon="0.63369">
        <ele>148.66</ele>
        <time>2012-05-08T08:11:42Z</time>
      </trkpt>
      <trkpt lat="44.5509" lon="0.63373">
        <ele>148.66</ele>
        <time>2012-05-08T08:11:43Z</time>
      </trkpt>
      <trkpt lat="44.55113" lon="0.63404">
        <ele>148.66</ele>
        <time>2012-05-08T08:11:54Z</time>
      </trkpt>
      <trkpt lat="44.55134" lon="0.63423">
        <ele>150.58</ele>
        <time>2012-05-08T08:12:05Z</time>
      </trkpt>
      <trkpt lat="44.55156" lon="0.63439">
        <ele>157.79</ele>
        <time>2012-05-08T08:12:18Z</time>
      </trkpt>
      <trkpt lat="44.55158" lon="0.63439">
        <ele>158.27</ele>
        <time>2012-05-08T08:12:19Z</time>
      </trkpt>
      <trkpt lat="44.55159" lon="0.63439">
        <ele>158.75</ele>
        <time>2012-05-08T08:12:20Z</time>
      </trkpt>
      <trkpt lat="44.5516" lon="0.63441">
        <ele>159.24</ele>
        <time>2012-05-08T08:12:21Z</time>
      </trkpt>
      <trkpt lat="44.55161" lon="0.63442">
        <ele>159.72</ele>
        <time>2012-05-08T08:12:22Z</time>
      </trkpt>
      <trkpt lat="44.55163" lon="0.63443">
        <ele>160.2</ele>
        <time>2012-05-08T08:12:23Z</time>
      </trkpt>
      <trkpt lat="44.55164" lon="0.63445">
        <ele>160.2</ele>
        <time>2012-05-08T08:12:24Z</time>
      </trkpt>
      <trkpt lat="44.55176" lon="0.63458">
        <ele>161.64</ele>
        <time>2012-05-08T08:12:35Z</time>
      </trkpt>
      <trkpt lat="44.55189" lon="0.63469">
        <ele>165.48</ele>
        <time>2012-05-08T08:12:46Z</time>
      </trkpt>
      <trkpt lat="44.55212" lon="0.63491">
        <ele>170.77</ele>
        <time>2012-05-08T08:13:00Z</time>
      </trkpt>
      <trkpt lat="44.55228" lon="0.63517">
        <ele>169.81</ele>
        <time>2012-05-08T08:13:11Z</time>
      </trkpt>
      <trkpt lat="44.5524" lon="0.63526">
        <ele>168.37</ele>
        <time>2012-05-08T08:13:16Z</time>
      </trkpt>
      <trkpt lat="44.55257" lon="0.63537">
        <ele>165.96</ele>
        <time>2012-05-08T08:13:20Z</time>
      </trkpt>
      <trkpt lat="44.55299" lon="0.63557">
        <ele>156.83</ele>
        <time>2012-05-08T08:13:30Z</time>
      </trkpt>
      <trkpt lat="44.55334" lon="0.63563">
        <ele>153.47</ele>
        <time>2012-05-08T08:13:40Z</time>
      </trkpt>
      <trkpt lat="44.55387" lon="0.63588">
        <ele>144.82</ele>
        <time>2012-05-08T08:13:50Z</time>
      </trkpt>
      <trkpt lat="44.55444" lon="0.63621">
        <ele>134.24</ele>
        <time>2012-05-08T08:14:01Z</time>
      </trkpt>
      <trkpt lat="44.55511" lon="0.63654">
        <ele>125.11</ele>
        <time>2012-05-08T08:14:13Z</time>
      </trkpt>
      <trkpt lat="44.55528" lon="0.63661">
        <ele>124.15</ele>
        <time>2012-05-08T08:14:16Z</time>
      </trkpt>
      <trkpt lat="44.55555" lon="0.63666">
        <ele>123.19</ele>
        <time>2012-05-08T08:14:25Z</time>
      </trkpt>
      <trkpt lat="44.55561" lon="0.63667">
        <ele>123.19</ele>
        <time>2012-05-08T08:14:27Z</time>
      </trkpt>
      <trkpt lat="44.55563" lon="0.63669">
        <ele>123.19</ele>
        <time>2012-05-08T08:14:28Z</time>
      </trkpt>
      <trkpt lat="44.55565" lon="0.63671">
        <ele>122.71</ele>
        <time>2012-05-08T08:14:29Z</time>
      </trkpt>
      <trkpt lat="44.55567" lon="0.63674">
        <ele>122.71</ele>
        <time>2012-05-08T08:14:30Z</time>
      </trkpt>
      <trkpt lat="44.55568" lon="0.63677">
        <ele>122.22</ele>
        <time>2012-05-08T08:14:31Z</time>
      </trkpt>
      <trkpt lat="44.55588" lon="0.63697">
        <ele>122.22</ele>
        <time>2012-05-08T08:14:41Z</time>
      </trkpt>
      <trkpt lat="44.55622" lon="0.63736">
        <ele>123.67</ele>
        <time>2012-05-08T08:14:57Z</time>
      </trkpt>
      <trkpt lat="44.5566" lon="0.63779">
        <ele>126.55</ele>
        <time>2012-05-08T08:15:14Z</time>
      </trkpt>
      <trkpt lat="44.5569" lon="0.63814">
        <ele>129.43</ele>
        <time>2012-05-08T08:15:29Z</time>
      </trkpt>
      <trkpt lat="44.5572" lon="0.63853">
        <ele>132.8</ele>
        <time>2012-05-08T08:15:45Z</time>
      </trkpt>
      <trkpt lat="44.55744" lon="0.63882">
        <ele>136.64</ele>
        <time>2012-05-08T08:15:59Z</time>
      </trkpt>
      <trkpt lat="44.55773" lon="0.63914">
        <ele>140.49</ele>
        <time>2012-05-08T08:16:16Z</time>
      </trkpt>
      <trkpt lat="44.55794" lon="0.63938">
        <ele>142.89</ele>
        <time>2012-05-08T08:16:30Z</time>
      </trkpt>
      <trkpt lat="44.55818" lon="0.63967">
        <ele>147.22</ele>
        <time>2012-05-08T08:16:45Z</time>
      </trkpt>
      <trkpt lat="44.55843" lon="0.63996">
        <ele>150.58</ele>
        <time>2012-05-08T08:17:03Z</time>
      </trkpt>
      <trkpt lat="44.55865" lon="0.64022">
        <ele>152.99</ele>
        <time>2012-05-08T08:17:19Z</time>
      </trkpt>
      <trkpt lat="44.5589" lon="0.64053">
        <ele>154.91</ele>
        <time>2012-05-08T08:17:36Z</time>
      </trkpt>
      <trkpt lat="44.55908" lon="0.6407">
        <ele>156.35</ele>
        <time>2012-05-08T08:17:47Z</time>
      </trkpt>
      <trkpt lat="44.55942" lon="0.64044">
        <ele>158.75</ele>
        <time>2012-05-08T08:18:01Z</time>
      </trkpt>
      <trkpt lat="44.55976" lon="0.64004">
        <ele>159.72</ele>
        <time>2012-05-08T08:18:17Z</time>
      </trkpt>
      <trkpt lat="44.55979" lon="0.64003">
        <ele>159.24</ele>
        <time>2012-05-08T08:18:18Z</time>
      </trkpt>
      <trkpt lat="44.55982" lon="0.64003">
        <ele>159.24</ele>
        <time>2012-05-08T08:18:19Z</time>
      </trkpt>
      <trkpt lat="44.55985" lon="0.64004">
        <ele>159.24</ele>
        <time>2012-05-08T08:18:20Z</time>
      </trkpt>
      <trkpt lat="44.55988" lon="0.64007">
        <ele>159.24</ele>
        <time>2012-05-08T08:18:21Z</time>
      </trkpt>
      <trkpt lat="44.5599" lon="0.64012">
        <ele>158.75</ele>
        <time>2012-05-08T08:18:22Z</time>
      </trkpt>
      <trkpt lat="44.55993" lon="0.64018">
        <ele>158.75</ele>
        <time>2012-05-08T08:18:23Z</time>
      </trkpt>
      <trkpt lat="44.55997" lon="0.64024">
        <ele>157.79</ele>
        <time>2012-05-08T08:18:24Z</time>
      </trkpt>
      <trkpt lat="44.56042" lon="0.64121">
        <ele>149.62</ele>
        <time>2012-05-08T08:18:34Z</time>
      </trkpt>
      <trkpt lat="44.56101" lon="0.64288">
        <ele>141.93</ele>
        <time>2012-05-08T08:18:48Z</time>
      </trkpt>
      <trkpt lat="44.56118" lon="0.64401">
        <ele>138.57</ele>
        <time>2012-05-08T08:18:58Z</time>
      </trkpt>
      <trkpt lat="44.56117" lon="0.64412">
        <ele>138.09</ele>
        <time>2012-05-08T08:18:59Z</time>
      </trkpt>
      <trkpt lat="44.56115" lon="0.64423">
        <ele>138.09</ele>
        <time>2012-05-08T08:19:00Z</time>
      </trkpt>
      <trkpt lat="44.56113" lon="0.64434">
        <ele>137.61</ele>
        <time>2012-05-08T08:19:01Z</time>
      </trkpt>
      <trkpt lat="44.5611" lon="0.64444">
        <ele>137.13</ele>
        <time>2012-05-08T08:19:02Z</time>
      </trkpt>
      <trkpt lat="44.56105" lon="0.64463">
        <ele>136.16</ele>
        <time>2012-05-08T08:19:04Z</time>
      </trkpt>
      <trkpt lat="44.56104" lon="0.64472">
        <ele>135.68</ele>
        <time>2012-05-08T08:19:05Z</time>
      </trkpt>
      <trkpt lat="44.56104" lon="0.64481">
        <ele>135.2</ele>
        <time>2012-05-08T08:19:06Z</time>
      </trkpt>
      <trkpt lat="44.56104" lon="0.6449">
        <ele>134.72</ele>
        <time>2012-05-08T08:19:07Z</time>
      </trkpt>
      <trkpt lat="44.56105" lon="0.64498">
        <ele>134.24</ele>
        <time>2012-05-08T08:19:08Z</time>
      </trkpt>
      <trkpt lat="44.56108" lon="0.64505">
        <ele>133.76</ele>
        <time>2012-05-08T08:19:09Z</time>
      </trkpt>
      <trkpt lat="44.56113" lon="0.64509">
        <ele>133.28</ele>
        <time>2012-05-08T08:19:10Z</time>
      </trkpt>
      <trkpt lat="44.5612" lon="0.64509">
        <ele>132.8</ele>
        <time>2012-05-08T08:19:11Z</time>
      </trkpt>
      <trkpt lat="44.56127" lon="0.64504">
        <ele>132.32</ele>
        <time>2012-05-08T08:19:12Z</time>
      </trkpt>
      <trkpt lat="44.56133" lon="0.64497">
        <ele>131.36</ele>
        <time>2012-05-08T08:19:13Z</time>
      </trkpt>
      <trkpt lat="44.5614" lon="0.64489">
        <ele>130.88</ele>
        <time>2012-05-08T08:19:14Z</time>
      </trkpt>
      <trkpt lat="44.56189" lon="0.64442">
        <ele>127.03</ele>
        <time>2012-05-08T08:19:20Z</time>
      </trkpt>
      <trkpt lat="44.56199" lon="0.64437">
        <ele>126.07</ele>
        <time>2012-05-08T08:19:21Z</time>
      </trkpt>
      <trkpt lat="44.56209" lon="0.64435">
        <ele>125.59</ele>
        <time>2012-05-08T08:19:22Z</time>
      </trkpt>
      <trkpt lat="44.56219" lon="0.64436">
        <ele>125.11</ele>
        <time>2012-05-08T08:19:23Z</time>
      </trkpt>
      <trkpt lat="44.56229" lon="0.64438">
        <ele>124.15</ele>
        <time>2012-05-08T08:19:24Z</time>
      </trkpt>
      <trkpt lat="44.56238" lon="0.64442">
        <ele>123.67</ele>
        <time>2012-05-08T08:19:25Z</time>
      </trkpt>
      <trkpt lat="44.56246" lon="0.64446">
        <ele>122.71</ele>
        <time>2012-05-08T08:19:26Z</time>
      </trkpt>
      <trkpt lat="44.56253" lon="0.64452">
        <ele>121.74</ele>
        <time>2012-05-08T08:19:27Z</time>
      </trkpt>
      <trkpt lat="44.56258" lon="0.64457">
        <ele>121.26</ele>
        <time>2012-05-08T08:19:28Z</time>
      </trkpt>
      <trkpt lat="44.56263" lon="0.64462">
        <ele>120.78</ele>
        <time>2012-05-08T08:19:29Z</time>
      </trkpt>
      <trkpt lat="44.56265" lon="0.64468">
        <ele>120.78</ele>
        <time>2012-05-08T08:19:30Z</time>
      </trkpt>
      <trkpt lat="44.56268" lon="0.64475">
        <ele>120.3</ele>
        <time>2012-05-08T08:19:31Z</time>
      </trkpt>
      <trkpt lat="44.5627" lon="0.64483">
        <ele>118.86</ele>
        <time>2012-05-08T08:19:32Z</time>
      </trkpt>
      <trkpt lat="44.56277" lon="0.64499">
        <ele>117.42</ele>
        <time>2012-05-08T08:19:34Z</time>
      </trkpt>
      <trkpt lat="44.5628" lon="0.64506">
        <ele>116.46</ele>
        <time>2012-05-08T08:19:35Z</time>
      </trkpt>
      <trkpt lat="44.56285" lon="0.64513">
        <ele>115.98</ele>
        <time>2012-05-08T08:19:36Z</time>
      </trkpt>
      <trkpt lat="44.56293" lon="0.64524">
        <ele>114.53</ele>
        <time>2012-05-08T08:19:38Z</time>
      </trkpt>
      <trkpt lat="44.56309" lon="0.64541">
        <ele>112.61</ele>
        <time>2012-05-08T08:19:42Z</time>
      </trkpt>
      <trkpt lat="44.5633" lon="0.64568">
        <ele>107.81</ele>
        <time>2012-05-08T08:19:51Z</time>
      </trkpt>
      <trkpt lat="44.56347" lon="0.64604">
        <ele>106.36</ele>
        <time>2012-05-08T08:20:01Z</time>
      </trkpt>
      <trkpt lat="44.5637" lon="0.64646">
        <ele>106.84</ele>
        <time>2012-05-08T08:20:11Z</time>
      </trkpt>
      <trkpt lat="44.564" lon="0.64677">
        <ele>108.77</ele>
        <time>2012-05-08T08:20:22Z</time>
      </trkpt>
      <trkpt lat="44.56416" lon="0.64692">
        <ele>110.69</ele>
        <time>2012-05-08T08:20:33Z</time>
      </trkpt>
      <trkpt lat="44.56417" lon="0.64693">
        <ele>110.69</ele>
        <time>2012-05-08T08:20:34Z</time>
      </trkpt>
      <trkpt lat="44.56418" lon="0.64694">
        <ele>110.69</ele>
        <time>2012-05-08T08:20:35Z</time>
      </trkpt>
      <trkpt lat="44.56424" lon="0.647">
        <ele>111.17</ele>
        <time>2012-05-08T08:20:43Z</time>
      </trkpt>
      <trkpt lat="44.56425" lon="0.64701">
        <ele>111.17</ele>
        <time>2012-05-08T08:20:44Z</time>
      </trkpt>
      <trkpt lat="44.56439" lon="0.64714">
        <ele>109.73</ele>
        <time>2012-05-08T08:20:53Z</time>
      </trkpt>
      <trkpt lat="44.5644" lon="0.64715">
        <ele>109.25</ele>
        <time>2012-05-08T08:20:54Z</time>
      </trkpt>
      <trkpt lat="44.56442" lon="0.64717">
        <ele>109.25</ele>
        <time>2012-05-08T08:20:55Z</time>
      </trkpt>
      <trkpt lat="44.56444" lon="0.64719">
        <ele>109.25</ele>
        <time>2012-05-08T08:20:56Z</time>
      </trkpt>
      <trkpt lat="44.56445" lon="0.6472">
        <ele>109.25</ele>
        <time>2012-05-08T08:20:57Z</time>
      </trkpt>
      <trkpt lat="44.56472" lon="0.64746">
        <ele>111.65</ele>
        <time>2012-05-08T08:21:10Z</time>
      </trkpt>
      <trkpt lat="44.56479" lon="0.64755">
        <ele>113.57</ele>
        <time>2012-05-08T08:21:15Z</time>
      </trkpt>
      <trkpt lat="44.5648" lon="0.64757">
        <ele>114.05</ele>
        <time>2012-05-08T08:21:17Z</time>
      </trkpt>
      <trkpt lat="44.56481" lon="0.64758">
        <ele>114.05</ele>
        <time>2012-05-08T08:21:18Z</time>
      </trkpt>
      <trkpt lat="44.56482" lon="0.6476">
        <ele>114.53</ele>
        <time>2012-05-08T08:21:19Z</time>
      </trkpt>
      <trkpt lat="44.565" lon="0.64777">
        <ele>117.9</ele>
        <time>2012-05-08T08:21:32Z</time>
      </trkpt>
      <trkpt lat="44.5652" lon="0.64792">
        <ele>121.74</ele>
        <time>2012-05-08T08:21:46Z</time>
      </trkpt>
      <trkpt lat="44.56545" lon="0.64808">
        <ele>124.63</ele>
        <time>2012-05-08T08:22:01Z</time>
      </trkpt>
      <trkpt lat="44.5656" lon="0.64815">
        <ele>125.11</ele>
        <time>2012-05-08T08:22:08Z</time>
      </trkpt>
      <trkpt lat="44.56562" lon="0.64817">
        <ele>125.11</ele>
        <time>2012-05-08T08:22:09Z</time>
      </trkpt>
      <trkpt lat="44.56564" lon="0.64819">
        <ele>125.11</ele>
        <time>2012-05-08T08:22:10Z</time>
      </trkpt>
      <trkpt lat="44.56593" lon="0.6484">
        <ele>124.15</ele>
        <time>2012-05-08T08:22:22Z</time>
      </trkpt>
      <trkpt lat="44.56596" lon="0.64841">
        <ele>124.15</ele>
        <time>2012-05-08T08:22:23Z</time>
      </trkpt>
      <trkpt lat="44.56599" lon="0.64841">
        <ele>124.15</ele>
        <time>2012-05-08T08:22:24Z</time>
      </trkpt>
      <trkpt lat="44.56602" lon="0.64842">
        <ele>123.67</ele>
        <time>2012-05-08T08:22:25Z</time>
      </trkpt>
      <trkpt lat="44.56605" lon="0.64844">
        <ele>124.15</ele>
        <time>2012-05-08T08:22:26Z</time>
      </trkpt>
      <trkpt lat="44.56607" lon="0.64846">
        <ele>124.15</ele>
        <time>2012-05-08T08:22:27Z</time>
      </trkpt>
      <trkpt lat="44.56609" lon="0.64847">
        <ele>124.15</ele>
        <time>2012-05-08T08:22:28Z</time>
      </trkpt>
      <trkpt lat="44.56611" lon="0.64849">
        <ele>124.15</ele>
        <time>2012-05-08T08:22:29Z</time>
      </trkpt>
      <trkpt lat="44.56614" lon="0.6485">
        <ele>124.15</ele>
        <time>2012-05-08T08:22:30Z</time>
      </trkpt>
      <trkpt lat="44.56616" lon="0.64851">
        <ele>124.63</ele>
        <time>2012-05-08T08:22:31Z</time>
      </trkpt>
      <trkpt lat="44.56646" lon="0.64869">
        <ele>126.07</ele>
        <time>2012-05-08T08:22:43Z</time>
      </trkpt>
      <trkpt lat="44.56676" lon="0.64887">
        <ele>127.03</ele>
        <time>2012-05-08T08:22:55Z</time>
      </trkpt>
      <trkpt lat="44.5671" lon="0.649">
        <ele>124.63</ele>
        <time>2012-05-08T08:23:04Z</time>
      </trkpt>
      <trkpt lat="44.56715" lon="0.649">
        <ele>124.63</ele>
        <time>2012-05-08T08:23:05Z</time>
      </trkpt>
      <trkpt lat="44.56776" lon="0.649">
        <ele>120.78</ele>
        <time>2012-05-08T08:23:15Z</time>
      </trkpt>
      <trkpt lat="44.56795" lon="0.64898">
        <ele>118.86</ele>
        <time>2012-05-08T08:23:18Z</time>
      </trkpt>
      <trkpt lat="44.56802" lon="0.64896">
        <ele>118.38</ele>
        <time>2012-05-08T08:23:19Z</time>
      </trkpt>
      <trkpt lat="44.56842" lon="0.64885">
        <ele>115.5</ele>
        <time>2012-05-08T08:23:25Z</time>
      </trkpt>
      <trkpt lat="44.56847" lon="0.64885">
        <ele>115.01</ele>
        <time>2012-05-08T08:23:26Z</time>
      </trkpt>
      <trkpt lat="44.56852" lon="0.64886">
        <ele>114.05</ele>
        <time>2012-05-08T08:23:27Z</time>
      </trkpt>
      <trkpt lat="44.56856" lon="0.64889">
        <ele>113.09</ele>
        <time>2012-05-08T08:23:28Z</time>
      </trkpt>
      <trkpt lat="44.56861" lon="0.64892">
        <ele>112.61</ele>
        <time>2012-05-08T08:23:29Z</time>
      </trkpt>
      <trkpt lat="44.56866" lon="0.64895">
        <ele>111.65</ele>
        <time>2012-05-08T08:23:30Z</time>
      </trkpt>
      <trkpt lat="44.56871" lon="0.64899">
        <ele>110.69</ele>
        <time>2012-05-08T08:23:31Z</time>
      </trkpt>
      <trkpt lat="44.56876" lon="0.64902">
        <ele>110.21</ele>
        <time>2012-05-08T08:23:32Z</time>
      </trkpt>
      <trkpt lat="44.56881" lon="0.64905">
        <ele>109.25</ele>
        <time>2012-05-08T08:23:33Z</time>
      </trkpt>
      <trkpt lat="44.56887" lon="0.64907">
        <ele>108.77</ele>
        <time>2012-05-08T08:23:34Z</time>
      </trkpt>
      <trkpt lat="44.56894" lon="0.64907">
        <ele>108.77</ele>
        <time>2012-05-08T08:23:35Z</time>
      </trkpt>
      <trkpt lat="44.56901" lon="0.64906">
        <ele>108.77</ele>
        <time>2012-05-08T08:23:36Z</time>
      </trkpt>
      <trkpt lat="44.56928" lon="0.64903">
        <ele>108.77</ele>
        <time>2012-05-08T08:23:40Z</time>
      </trkpt>
      <trkpt lat="44.56963" lon="0.64906">
        <ele>107.81</ele>
        <time>2012-05-08T08:23:47Z</time>
      </trkpt>
      <trkpt lat="44.56966" lon="0.64907">
        <ele>107.32</ele>
        <time>2012-05-08T08:23:48Z</time>
      </trkpt>
      <trkpt lat="44.56968" lon="0.64908">
        <ele>106.84</ele>
        <time>2012-05-08T08:23:49Z</time>
      </trkpt>
      <trkpt lat="44.56971" lon="0.64909">
        <ele>106.36</ele>
        <time>2012-05-08T08:23:50Z</time>
      </trkpt>
      <trkpt lat="44.56975" lon="0.64911">
        <ele>105.88</ele>
        <time>2012-05-08T08:23:51Z</time>
      </trkpt>
      <trkpt lat="44.56978" lon="0.64914">
        <ele>105.4</ele>
        <time>2012-05-08T08:23:52Z</time>
      </trkpt>
      <trkpt lat="44.5701" lon="0.64936">
        <ele>102.52</ele>
        <time>2012-05-08T08:24:02Z</time>
      </trkpt>
      <trkpt lat="44.57063" lon="0.64948">
        <ele>109.25</ele>
        <time>2012-05-08T08:24:17Z</time>
      </trkpt>
      <trkpt lat="44.5708" lon="0.6495">
        <ele>112.61</ele>
        <time>2012-05-08T08:24:29Z</time>
      </trkpt>
      <trkpt lat="44.57091" lon="0.64946">
        <ele>115.01</ele>
        <time>2012-05-08T08:24:40Z</time>
      </trkpt>
      <trkpt lat="44.57108" lon="0.64941">
        <ele>118.86</ele>
        <time>2012-05-08T08:24:50Z</time>
      </trkpt>
      <trkpt lat="44.57115" lon="0.64939">
        <ele>119.34</ele>
        <time>2012-05-08T08:24:54Z</time>
      </trkpt>
      <trkpt lat="44.57131" lon="0.64937">
        <ele>119.34</ele>
        <time>2012-05-08T08:25:03Z</time>
      </trkpt>
      <trkpt lat="44.57159" lon="0.6493">
        <ele>121.26</ele>
        <time>2012-05-08T08:25:16Z</time>
      </trkpt>
      <trkpt lat="44.57192" lon="0.64926">
        <ele>120.78</ele>
        <time>2012-05-08T08:25:32Z</time>
      </trkpt>
      <trkpt lat="44.57214" lon="0.64916">
        <ele>120.78</ele>
        <time>2012-05-08T08:25:44Z</time>
      </trkpt>
      <trkpt lat="44.57221" lon="0.6491">
        <ele>121.26</ele>
        <time>2012-05-08T08:25:48Z</time>
      </trkpt>
      <trkpt lat="44.57238" lon="0.6489">
        <ele>120.78</ele>
        <time>2012-05-08T08:25:58Z</time>
      </trkpt>
      <trkpt lat="44.57259" lon="0.6486">
        <ele>120.78</ele>
        <time>2012-05-08T08:26:09Z</time>
      </trkpt>
      <trkpt lat="44.57273" lon="0.64855">
        <ele>122.22</ele>
        <time>2012-05-08T08:26:16Z</time>
      </trkpt>
      <trkpt lat="44.57296" lon="0.64832">
        <ele>122.22</ele>
        <time>2012-05-08T08:26:30Z</time>
      </trkpt>
      <trkpt lat="44.57322" lon="0.64805">
        <ele>123.67</ele>
        <time>2012-05-08T08:26:42Z</time>
      </trkpt>
      <trkpt lat="44.57343" lon="0.64785">
        <ele>127.99</ele>
        <time>2012-05-08T08:26:57Z</time>
      </trkpt>
      <trkpt lat="44.57367" lon="0.64778">
        <ele>130.4</ele>
        <time>2012-05-08T08:27:11Z</time>
      </trkpt>
      <trkpt lat="44.57395" lon="0.64789">
        <ele>132.32</ele>
        <time>2012-05-08T08:27:26Z</time>
      </trkpt>
      <trkpt lat="44.57426" lon="0.64808">
        <ele>133.76</ele>
        <time>2012-05-08T08:27:42Z</time>
      </trkpt>
      <trkpt lat="44.57462" lon="0.64824">
        <ele>135.68</ele>
        <time>2012-05-08T08:28:00Z</time>
      </trkpt>
      <trkpt lat="44.57473" lon="0.64826">
        <ele>135.68</ele>
        <time>2012-05-08T08:28:05Z</time>
      </trkpt>
      <trkpt lat="44.57493" lon="0.64794">
        <ele>135.2</ele>
        <time>2012-05-08T08:28:19Z</time>
      </trkpt>
      <trkpt lat="44.57513" lon="0.64761">
        <ele>135.68</ele>
        <time>2012-05-08T08:28:33Z</time>
      </trkpt>
      <trkpt lat="44.57534" lon="0.64728">
        <ele>136.64</ele>
        <time>2012-05-08T08:28:47Z</time>
      </trkpt>
      <trkpt lat="44.57563" lon="0.64685">
        <ele>137.13</ele>
        <time>2012-05-08T08:29:04Z</time>
      </trkpt>
      <trkpt lat="44.57589" lon="0.64655">
        <ele>138.57</ele>
        <time>2012-05-08T08:29:18Z</time>
      </trkpt>
      <trkpt lat="44.57616" lon="0.64624">
        <ele>140.49</ele>
        <time>2012-05-08T08:29:36Z</time>
      </trkpt>
      <trkpt lat="44.57639" lon="0.64601">
        <ele>142.41</ele>
        <time>2012-05-08T08:29:51Z</time>
      </trkpt>
      <trkpt lat="44.5766" lon="0.64585">
        <ele>143.85</ele>
        <time>2012-05-08T08:30:04Z</time>
      </trkpt>
      <trkpt lat="44.57695" lon="0.64562">
        <ele>143.37</ele>
        <time>2012-05-08T08:30:19Z</time>
      </trkpt>
      <trkpt lat="44.57721" lon="0.64542">
        <ele>148.66</ele>
        <time>2012-05-08T08:30:34Z</time>
      </trkpt>
      <trkpt lat="44.57754" lon="0.6452">
        <ele>152.99</ele>
        <time>2012-05-08T08:30:49Z</time>
      </trkpt>
      <trkpt lat="44.57781" lon="0.64488">
        <ele>150.1</ele>
        <time>2012-05-08T08:31:03Z</time>
      </trkpt>
      <trkpt lat="44.57785" lon="0.64481">
        <ele>149.62</ele>
        <time>2012-05-08T08:31:06Z</time>
      </trkpt>
      <trkpt lat="44.57804" lon="0.64467">
        <ele>153.47</ele>
        <time>2012-05-08T08:31:18Z</time>
      </trkpt>
      <trkpt lat="44.57819" lon="0.64481">
        <ele>159.24</ele>
        <time>2012-05-08T08:31:32Z</time>
      </trkpt>
      <trkpt lat="44.57834" lon="0.64504">
        <ele>161.64</ele>
        <time>2012-05-08T08:31:47Z</time>
      </trkpt>
      <trkpt lat="44.57846" lon="0.64528">
        <ele>164.04</ele>
        <time>2012-05-08T08:32:02Z</time>
      </trkpt>
      <trkpt lat="44.57858" lon="0.64551">
        <ele>165.96</ele>
        <time>2012-05-08T08:32:14Z</time>
      </trkpt>
      <trkpt lat="44.57873" lon="0.64581">
        <ele>166.93</ele>
        <time>2012-05-08T08:32:29Z</time>
      </trkpt>
      <trkpt lat="44.57889" lon="0.64611">
        <ele>169.81</ele>
        <time>2012-05-08T08:32:42Z</time>
      </trkpt>
      <trkpt lat="44.57908" lon="0.64653">
        <ele>172.69</ele>
        <time>2012-05-08T08:32:57Z</time>
      </trkpt>
      <trkpt lat="44.57911" lon="0.6466">
        <ele>172.69</ele>
        <time>2012-05-08T08:33:00Z</time>
      </trkpt>
      <trkpt lat="44.57912" lon="0.64662">
        <ele>172.21</ele>
        <time>2012-05-08T08:33:01Z</time>
      </trkpt>
      <trkpt lat="44.57926" lon="0.64694">
        <ele>171.25</ele>
        <time>2012-05-08T08:33:11Z</time>
      </trkpt>
      <trkpt lat="44.57935" lon="0.64715">
        <ele>170.29</ele>
        <time>2012-05-08T08:33:15Z</time>
      </trkpt>
      <trkpt lat="44.57937" lon="0.6472">
        <ele>169.81</ele>
        <time>2012-05-08T08:33:16Z</time>
      </trkpt>
      <trkpt lat="44.5794" lon="0.64726">
        <ele>169.33</ele>
        <time>2012-05-08T08:33:17Z</time>
      </trkpt>
      <trkpt lat="44.57942" lon="0.64732">
        <ele>169.33</ele>
        <time>2012-05-08T08:33:18Z</time>
      </trkpt>
      <trkpt lat="44.57945" lon="0.64738">
        <ele>168.85</ele>
        <time>2012-05-08T08:33:19Z</time>
      </trkpt>
      <trkpt lat="44.57949" lon="0.64744">
        <ele>168.37</ele>
        <time>2012-05-08T08:33:20Z</time>
      </trkpt>
      <trkpt lat="44.57951" lon="0.64751">
        <ele>167.89</ele>
        <time>2012-05-08T08:33:21Z</time>
      </trkpt>
      <trkpt lat="44.57953" lon="0.64758">
        <ele>167.41</ele>
        <time>2012-05-08T08:33:22Z</time>
      </trkpt>
      <trkpt lat="44.57955" lon="0.64768">
        <ele>166.45</ele>
        <time>2012-05-08T08:33:24Z</time>
      </trkpt>
      <trkpt lat="44.57957" lon="0.64773">
        <ele>165.96</ele>
        <time>2012-05-08T08:33:25Z</time>
      </trkpt>
      <trkpt lat="44.57959" lon="0.64777">
        <ele>165.48</ele>
        <time>2012-05-08T08:33:26Z</time>
      </trkpt>
      <trkpt lat="44.57961" lon="0.64782">
        <ele>165</ele>
        <time>2012-05-08T08:33:27Z</time>
      </trkpt>
      <trkpt lat="44.57963" lon="0.64787">
        <ele>164.04</ele>
        <time>2012-05-08T08:33:28Z</time>
      </trkpt>
      <trkpt lat="44.57965" lon="0.64791">
        <ele>163.56</ele>
        <time>2012-05-08T08:33:29Z</time>
      </trkpt>
      <trkpt lat="44.57967" lon="0.64795">
        <ele>162.6</ele>
        <time>2012-05-08T08:33:30Z</time>
      </trkpt>
      <trkpt lat="44.5797" lon="0.64798">
        <ele>162.12</ele>
        <time>2012-05-08T08:33:31Z</time>
      </trkpt>
      <trkpt lat="44.57975" lon="0.64808">
        <ele>160.68</ele>
        <time>2012-05-08T08:33:34Z</time>
      </trkpt>
      <trkpt lat="44.57975" lon="0.64812">
        <ele>160.68</ele>
        <time>2012-05-08T08:33:35Z</time>
      </trkpt>
      <trkpt lat="44.57976" lon="0.64815">
        <ele>160.2</ele>
        <time>2012-05-08T08:33:36Z</time>
      </trkpt>
      <trkpt lat="44.57976" lon="0.64818">
        <ele>160.2</ele>
        <time>2012-05-08T08:33:37Z</time>
      </trkpt>
      <trkpt lat="44.57978" lon="0.6482">
        <ele>159.72</ele>
        <time>2012-05-08T08:33:38Z</time>
      </trkpt>
      <trkpt lat="44.57979" lon="0.64823">
        <ele>159.24</ele>
        <time>2012-05-08T08:33:39Z</time>
      </trkpt>
      <trkpt lat="44.5798" lon="0.64827">
        <ele>159.24</ele>
        <time>2012-05-08T08:33:40Z</time>
      </trkpt>
      <trkpt lat="44.58" lon="0.64879">
        <ele>155.39</ele>
        <time>2012-05-08T08:33:53Z</time>
      </trkpt>
      <trkpt lat="44.58017" lon="0.64916">
        <ele>151.06</ele>
        <time>2012-05-08T08:34:03Z</time>
      </trkpt>
      <trkpt lat="44.58018" lon="0.64919">
        <ele>150.58</ele>
        <time>2012-05-08T08:34:07Z</time>
      </trkpt>
      <trkpt lat="44.5802" lon="0.64921">
        <ele>150.1</ele>
        <time>2012-05-08T08:34:08Z</time>
      </trkpt>
      <trkpt lat="44.58051" lon="0.64979">
        <ele>143.85</ele>
        <time>2012-05-08T08:34:20Z</time>
      </trkpt>
      <trkpt lat="44.58079" lon="0.65036">
        <ele>140.49</ele>
        <time>2012-05-08T08:34:33Z</time>
      </trkpt>
      <trkpt lat="44.58091" lon="0.65061">
        <ele>139.05</ele>
        <time>2012-05-08T08:34:38Z</time>
      </trkpt>
      <trkpt lat="44.58131" lon="0.65138">
        <ele>131.84</ele>
        <time>2012-05-08T08:34:51Z</time>
      </trkpt>
      <trkpt lat="44.58172" lon="0.65216">
        <ele>127.99</ele>
        <time>2012-05-08T08:35:04Z</time>
      </trkpt>
      <trkpt lat="44.58187" lon="0.65239">
        <ele>127.51</ele>
        <time>2012-05-08T08:35:09Z</time>
      </trkpt>
      <trkpt lat="44.58245" lon="0.6529">
        <ele>125.11</ele>
        <time>2012-05-08T08:35:25Z</time>
      </trkpt>
      <trkpt lat="44.58265" lon="0.65307">
        <ele>123.19</ele>
        <time>2012-05-08T08:35:32Z</time>
      </trkpt>
      <trkpt lat="44.58311" lon="0.65345">
        <ele>123.19</ele>
        <time>2012-05-08T08:35:44Z</time>
      </trkpt>
      <trkpt lat="44.58343" lon="0.65381">
        <ele>124.15</ele>
        <time>2012-05-08T08:35:55Z</time>
      </trkpt>
      <trkpt lat="44.58364" lon="0.65404">
        <ele>126.07</ele>
        <time>2012-05-08T08:36:05Z</time>
      </trkpt>
      <trkpt lat="44.58364" lon="0.65407">
        <ele>126.07</ele>
        <time>2012-05-08T08:36:06Z</time>
      </trkpt>
      <trkpt lat="44.58364" lon="0.6541">
        <ele>126.07</ele>
        <time>2012-05-08T08:36:07Z</time>
      </trkpt>
      <trkpt lat="44.58363" lon="0.65413">
        <ele>126.55</ele>
        <time>2012-05-08T08:36:08Z</time>
      </trkpt>
      <trkpt lat="44.58364" lon="0.65416">
        <ele>126.55</ele>
        <time>2012-05-08T08:36:09Z</time>
      </trkpt>
      <trkpt lat="44.58365" lon="0.6542">
        <ele>126.55</ele>
        <time>2012-05-08T08:36:10Z</time>
      </trkpt>
      <trkpt lat="44.58369" lon="0.6546">
        <ele>127.51</ele>
        <time>2012-05-08T08:36:22Z</time>
      </trkpt>
      <trkpt lat="44.58361" lon="0.65515">
        <ele>128.95</ele>
        <time>2012-05-08T08:36:36Z</time>
      </trkpt>
      <trkpt lat="44.58368" lon="0.65558">
        <ele>131.36</ele>
        <time>2012-05-08T08:36:48Z</time>
      </trkpt>
      <trkpt lat="44.58367" lon="0.65594">
        <ele>133.28</ele>
        <time>2012-05-08T08:37:00Z</time>
      </trkpt>
      <trkpt lat="44.58358" lon="0.65629">
        <ele>136.16</ele>
        <time>2012-05-08T08:37:14Z</time>
      </trkpt>
      <trkpt lat="44.58346" lon="0.65668">
        <ele>136.16</ele>
        <time>2012-05-08T08:37:26Z</time>
      </trkpt>
      <trkpt lat="44.58345" lon="0.65727">
        <ele>135.2</ele>
        <time>2012-05-08T08:37:39Z</time>
      </trkpt>
      <trkpt lat="44.58352" lon="0.65748">
        <ele>134.24</ele>
        <time>2012-05-08T08:37:43Z</time>
      </trkpt>
      <trkpt lat="44.58369" lon="0.65771">
        <ele>132.8</ele>
        <time>2012-05-08T08:37:48Z</time>
      </trkpt>
      <trkpt lat="44.58373" lon="0.65773">
        <ele>132.8</ele>
        <time>2012-05-08T08:37:49Z</time>
      </trkpt>
      <trkpt lat="44.58377" lon="0.65775">
        <ele>132.8</ele>
        <time>2012-05-08T08:37:50Z</time>
      </trkpt>
      <trkpt lat="44.5838" lon="0.65776">
        <ele>132.8</ele>
        <time>2012-05-08T08:37:51Z</time>
      </trkpt>
      <trkpt lat="44.58383" lon="0.65776">
        <ele>133.28</ele>
        <time>2012-05-08T08:37:52Z</time>
      </trkpt>
      <trkpt lat="44.58416" lon="0.65772">
        <ele>134.24</ele>
        <time>2012-05-08T08:38:04Z</time>
      </trkpt>
      <trkpt lat="44.58448" lon="0.65763">
        <ele>135.2</ele>
        <time>2012-05-08T08:38:17Z</time>
      </trkpt>
      <trkpt lat="44.58481" lon="0.65749">
        <ele>137.13</ele>
        <time>2012-05-08T08:38:32Z</time>
      </trkpt>
      <trkpt lat="44.58513" lon="0.65741">
        <ele>140.01</ele>
        <time>2012-05-08T08:38:48Z</time>
      </trkpt>
      <trkpt lat="44.5854" lon="0.6573">
        <ele>143.85</ele>
        <time>2012-05-08T08:39:05Z</time>
      </trkpt>
      <trkpt lat="44.58544" lon="0.65728">
        <ele>144.82</ele>
        <time>2012-05-08T08:39:08Z</time>
      </trkpt>
      <trkpt lat="44.58546" lon="0.65728">
        <ele>144.82</ele>
        <time>2012-05-08T08:39:09Z</time>
      </trkpt>
      <trkpt lat="44.58547" lon="0.65727">
        <ele>145.3</ele>
        <time>2012-05-08T08:39:10Z</time>
      </trkpt>
      <trkpt lat="44.58549" lon="0.65727">
        <ele>145.3</ele>
        <time>2012-05-08T08:39:11Z</time>
      </trkpt>
      <trkpt lat="44.58551" lon="0.65726">
        <ele>145.78</ele>
        <time>2012-05-08T08:39:12Z</time>
      </trkpt>
      <trkpt lat="44.5858" lon="0.65716">
        <ele>148.66</ele>
        <time>2012-05-08T08:39:29Z</time>
      </trkpt>
      <trkpt lat="44.58609" lon="0.6571">
        <ele>151.06</ele>
        <time>2012-05-08T08:39:45Z</time>
      </trkpt>
      <trkpt lat="44.58634" lon="0.65697">
        <ele>152.99</ele>
        <time>2012-05-08T08:39:59Z</time>
      </trkpt>
      <trkpt lat="44.58651" lon="0.65697">
        <ele>153.47</ele>
        <time>2012-05-08T08:40:07Z</time>
      </trkpt>
      <trkpt lat="44.58653" lon="0.65696">
        <ele>153.47</ele>
        <time>2012-05-08T08:40:08Z</time>
      </trkpt>
      <trkpt lat="44.58666" lon="0.65689">
        <ele>152.51</ele>
        <time>2012-05-08T08:40:17Z</time>
      </trkpt>
      <trkpt lat="44.58666" lon="0.65689">
        <ele>152.51</ele>
        <time>2012-05-08T08:40:32Z</time>
      </trkpt>
      <trkpt lat="44.58666" lon="0.65688">
        <ele>152.51</ele>
        <time>2012-05-08T08:40:57Z</time>
      </trkpt>
      <trkpt lat="44.58667" lon="0.65687">
        <ele>152.51</ele>
        <time>2012-05-08T08:41:02Z</time>
      </trkpt>
      <trkpt lat="44.58672" lon="0.65683">
        <ele>153.47</ele>
        <time>2012-05-08T08:41:07Z</time>
      </trkpt>
      <trkpt lat="44.58699" lon="0.65656">
        <ele>158.75</ele>
        <time>2012-05-08T08:41:21Z</time>
      </trkpt>
      <trkpt lat="44.58704" lon="0.65654">
        <ele>159.24</ele>
        <time>2012-05-08T08:41:23Z</time>
      </trkpt>
      <trkpt lat="44.58703" lon="0.65624">
        <ele>160.2</ele>
        <time>2012-05-08T08:41:33Z</time>
      </trkpt>
      <trkpt lat="44.58695" lon="0.65608">
        <ele>158.27</ele>
        <time>2012-05-08T08:41:37Z</time>
      </trkpt>
      <trkpt lat="44.58703" lon="0.65576">
        <ele>154.43</ele>
        <time>2012-05-08T08:41:44Z</time>
      </trkpt>
      <trkpt lat="44.58706" lon="0.65574">
        <ele>154.43</ele>
        <time>2012-05-08T08:41:45Z</time>
      </trkpt>
      <trkpt lat="44.58717" lon="0.65562">
        <ele>155.87</ele>
        <time>2012-05-08T08:41:50Z</time>
      </trkpt>
      <trkpt lat="44.58746" lon="0.65516">
        <ele>156.83</ele>
        <time>2012-05-08T08:42:05Z</time>
      </trkpt>
      <trkpt lat="44.58749" lon="0.65478">
        <ele>153.95</ele>
        <time>2012-05-08T08:42:13Z</time>
      </trkpt>
      <trkpt lat="44.58751" lon="0.65475">
        <ele>153.95</ele>
        <time>2012-05-08T08:42:14Z</time>
      </trkpt>
      <trkpt lat="44.58782" lon="0.65433">
        <ele>152.51</ele>
        <time>2012-05-08T08:42:28Z</time>
      </trkpt>
      <trkpt lat="44.58797" lon="0.65398">
        <ele>150.1</ele>
        <time>2012-05-08T08:42:38Z</time>
      </trkpt>
      <trkpt lat="44.58811" lon="0.65363">
        <ele>148.66</ele>
        <time>2012-05-08T08:42:50Z</time>
      </trkpt>
      <trkpt lat="44.58824" lon="0.65375">
        <ele>151.06</ele>
        <time>2012-05-08T08:42:59Z</time>
      </trkpt>
      <trkpt lat="44.58837" lon="0.65375">
        <ele>152.99</ele>
        <time>2012-05-08T08:43:07Z</time>
      </trkpt>
      <trkpt lat="44.58843" lon="0.65378">
        <ele>153.47</ele>
        <time>2012-05-08T08:43:11Z</time>
      </trkpt>
      <trkpt lat="44.58846" lon="0.65379">
        <ele>154.43</ele>
        <time>2012-05-08T08:43:13Z</time>
      </trkpt>
      <trkpt lat="44.58853" lon="0.65381">
        <ele>156.35</ele>
        <time>2012-05-08T08:43:17Z</time>
      </trkpt>
      <trkpt lat="44.58863" lon="0.65386">
        <ele>156.35</ele>
        <time>2012-05-08T08:43:23Z</time>
      </trkpt>
      <trkpt lat="44.58872" lon="0.6539">
        <ele>157.31</ele>
        <time>2012-05-08T08:43:29Z</time>
      </trkpt>
      <trkpt lat="44.58879" lon="0.65395">
        <ele>158.27</ele>
        <time>2012-05-08T08:43:34Z</time>
      </trkpt>
      <trkpt lat="44.58899" lon="0.65376">
        <ele>161.64</ele>
        <time>2012-05-08T08:43:45Z</time>
      </trkpt>
      <trkpt lat="44.5891" lon="0.65372">
        <ele>164.52</ele>
        <time>2012-05-08T08:43:52Z</time>
      </trkpt>
      <trkpt lat="44.58933" lon="0.65398">
        <ele>164.52</ele>
        <time>2012-05-08T08:44:08Z</time>
      </trkpt>
      <trkpt lat="44.58947" lon="0.65414">
        <ele>165</ele>
        <time>2012-05-08T08:44:18Z</time>
      </trkpt>
      <trkpt lat="44.58954" lon="0.65447">
        <ele>168.85</ele>
        <time>2012-05-08T08:44:31Z</time>
      </trkpt>
      <trkpt lat="44.5896" lon="0.6547">
        <ele>169.33</ele>
        <time>2012-05-08T08:44:38Z</time>
      </trkpt>
      <trkpt lat="44.58973" lon="0.65465">
        <ele>167.41</ele>
        <time>2012-05-08T08:44:45Z</time>
      </trkpt>
      <trkpt lat="44.58977" lon="0.65463">
        <ele>166.93</ele>
        <time>2012-05-08T08:44:47Z</time>
      </trkpt>
      <trkpt lat="44.59001" lon="0.65449">
        <ele>166.45</ele>
        <time>2012-05-08T08:44:59Z</time>
      </trkpt>
      <trkpt lat="44.59012" lon="0.65437">
        <ele>166.45</ele>
        <time>2012-05-08T08:45:05Z</time>
      </trkpt>
      <trkpt lat="44.5902" lon="0.65431">
        <ele>167.41</ele>
        <time>2012-05-08T08:45:09Z</time>
      </trkpt>
      <trkpt lat="44.59027" lon="0.65424">
        <ele>168.85</ele>
        <time>2012-05-08T08:45:13Z</time>
      </trkpt>
      <trkpt lat="44.59044" lon="0.654">
        <ele>170.77</ele>
        <time>2012-05-08T08:45:25Z</time>
      </trkpt>
      <trkpt lat="44.59068" lon="0.65382">
        <ele>168.85</ele>
        <time>2012-05-08T08:45:34Z</time>
      </trkpt>
      <trkpt lat="44.59083" lon="0.65359">
        <ele>167.89</ele>
        <time>2012-05-08T08:45:40Z</time>
      </trkpt>
      <trkpt lat="44.5909" lon="0.65347">
        <ele>168.37</ele>
        <time>2012-05-08T08:45:43Z</time>
      </trkpt>
      <trkpt lat="44.59103" lon="0.65351">
        <ele>167.89</ele>
        <time>2012-05-08T08:45:49Z</time>
      </trkpt>
      <trkpt lat="44.59116" lon="0.6536">
        <ele>166.93</ele>
        <time>2012-05-08T08:45:52Z</time>
      </trkpt>
      <trkpt lat="44.59145" lon="0.6538">
        <ele>162.6</ele>
        <time>2012-05-08T08:45:59Z</time>
      </trkpt>
      <trkpt lat="44.59164" lon="0.65367">
        <ele>158.27</ele>
        <time>2012-05-08T08:46:05Z</time>
      </trkpt>
      <trkpt lat="44.59186" lon="0.65337">
        <ele>157.31</ele>
        <time>2012-05-08T08:46:16Z</time>
      </trkpt>
      <trkpt lat="44.59193" lon="0.65327">
        <ele>157.31</ele>
        <time>2012-05-08T08:46:21Z</time>
      </trkpt>
      <trkpt lat="44.59212" lon="0.65298">
        <ele>158.75</ele>
        <time>2012-05-08T08:46:35Z</time>
      </trkpt>
      <trkpt lat="44.59214" lon="0.65294">
        <ele>159.24</ele>
        <time>2012-05-08T08:46:37Z</time>
      </trkpt>
      <trkpt lat="44.59233" lon="0.6527">
        <ele>163.56</ele>
        <time>2012-05-08T08:46:47Z</time>
      </trkpt>
      <trkpt lat="44.59241" lon="0.65259">
        <ele>164.04</ele>
        <time>2012-05-08T08:46:52Z</time>
      </trkpt>
      <trkpt lat="44.59251" lon="0.65243">
        <ele>162.6</ele>
        <time>2012-05-08T08:47:04Z</time>
      </trkpt>
      <trkpt lat="44.59253" lon="0.65242">
        <ele>162.12</ele>
        <time>2012-05-08T08:47:20Z</time>
      </trkpt>
      <trkpt lat="44.59253" lon="0.65242">
        <ele>162.12</ele>
        <time>2012-05-08T08:47:24Z</time>
      </trkpt>
      <trkpt lat="44.59258" lon="0.65245">
        <ele>163.08</ele>
        <time>2012-05-08T08:47:35Z</time>
      </trkpt>
      <trkpt lat="44.5926" lon="0.65247">
        <ele>165.48</ele>
        <time>2012-05-08T08:47:46Z</time>
      </trkpt>
      <trkpt lat="44.59268" lon="0.65256">
        <ele>167.41</ele>
        <time>2012-05-08T08:47:53Z</time>
      </trkpt>
      <trkpt lat="44.5927" lon="0.65259">
        <ele>167.41</ele>
        <time>2012-05-08T08:47:54Z</time>
      </trkpt>
      <trkpt lat="44.59272" lon="0.65261">
        <ele>167.41</ele>
        <time>2012-05-08T08:47:55Z</time>
      </trkpt>
      <trkpt lat="44.59274" lon="0.65262">
        <ele>167.41</ele>
        <time>2012-05-08T08:47:56Z</time>
      </trkpt>
      <trkpt lat="44.59277" lon="0.65263">
        <ele>167.41</ele>
        <time>2012-05-08T08:47:57Z</time>
      </trkpt>
      <trkpt lat="44.59281" lon="0.6526">
        <ele>167.41</ele>
        <time>2012-05-08T08:47:59Z</time>
      </trkpt>
      <trkpt lat="44.59282" lon="0.65258">
        <ele>167.41</ele>
        <time>2012-05-08T08:48:00Z</time>
      </trkpt>
      <trkpt lat="44.59283" lon="0.65256">
        <ele>167.41</ele>
        <time>2012-05-08T08:48:01Z</time>
      </trkpt>
      <trkpt lat="44.59285" lon="0.65255">
        <ele>167.41</ele>
        <time>2012-05-08T08:48:02Z</time>
      </trkpt>
      <trkpt lat="44.59287" lon="0.65255">
        <ele>167.89</ele>
        <time>2012-05-08T08:48:03Z</time>
      </trkpt>
      <trkpt lat="44.59289" lon="0.65255">
        <ele>168.85</ele>
        <time>2012-05-08T08:48:04Z</time>
      </trkpt>
      <trkpt lat="44.59291" lon="0.65256">
        <ele>169.33</ele>
        <time>2012-05-08T08:48:05Z</time>
      </trkpt>
      <trkpt lat="44.59293" lon="0.65257">
        <ele>169.81</ele>
        <time>2012-05-08T08:48:06Z</time>
      </trkpt>
      <trkpt lat="44.59295" lon="0.65259">
        <ele>169.81</ele>
        <time>2012-05-08T08:48:07Z</time>
      </trkpt>
      <trkpt lat="44.59312" lon="0.65275">
        <ele>172.69</ele>
        <time>2012-05-08T08:48:17Z</time>
      </trkpt>
      <trkpt lat="44.59314" lon="0.65275">
        <ele>172.69</ele>
        <time>2012-05-08T08:48:18Z</time>
      </trkpt>
      <trkpt lat="44.59322" lon="0.65267">
        <ele>172.21</ele>
        <time>2012-05-08T08:48:29Z</time>
      </trkpt>
      <trkpt lat="44.59325" lon="0.65265">
        <ele>172.21</ele>
        <time>2012-05-08T08:48:35Z</time>
      </trkpt>
      <trkpt lat="44.59336" lon="0.65267">
        <ele>173.66</ele>
        <time>2012-05-08T08:48:46Z</time>
      </trkpt>
      <trkpt lat="44.5935" lon="0.65268">
        <ele>176.06</ele>
        <time>2012-05-08T08:48:57Z</time>
      </trkpt>
      <trkpt lat="44.59361" lon="0.65278">
        <ele>177.02</ele>
        <time>2012-05-08T08:49:09Z</time>
      </trkpt>
      <trkpt lat="44.59364" lon="0.65281">
        <ele>178.46</ele>
        <time>2012-05-08T08:49:12Z</time>
      </trkpt>
      <trkpt lat="44.59371" lon="0.65284">
        <ele>180.87</ele>
        <time>2012-05-08T08:49:17Z</time>
      </trkpt>
      <trkpt lat="44.59377" lon="0.65289">
        <ele>181.83</ele>
        <time>2012-05-08T08:49:21Z</time>
      </trkpt>
      <trkpt lat="44.59381" lon="0.65293">
        <ele>183.27</ele>
        <time>2012-05-08T08:49:24Z</time>
      </trkpt>
      <trkpt lat="44.59393" lon="0.65302">
        <ele>182.79</ele>
        <time>2012-05-08T08:49:35Z</time>
      </trkpt>
      <trkpt lat="44.59404" lon="0.65315">
        <ele>182.79</ele>
        <time>2012-05-08T08:49:47Z</time>
      </trkpt>
      <trkpt lat="44.59407" lon="0.65317">
        <ele>182.31</ele>
        <time>2012-05-08T08:49:49Z</time>
      </trkpt>
      <trkpt lat="44.5941" lon="0.65331">
        <ele>182.31</ele>
        <time>2012-05-08T08:49:58Z</time>
      </trkpt>
      <trkpt lat="44.5941" lon="0.65332">
        <ele>181.83</ele>
        <time>2012-05-08T08:50:02Z</time>
      </trkpt>
      <trkpt lat="44.59412" lon="0.65346">
        <ele>181.35</ele>
        <time>2012-05-08T08:50:07Z</time>
      </trkpt>
      <trkpt lat="44.59409" lon="0.65359">
        <ele>179.9</ele>
        <time>2012-05-08T08:50:10Z</time>
      </trkpt>
      <trkpt lat="44.59422" lon="0.65388">
        <ele>174.14</ele>
        <time>2012-05-08T08:50:17Z</time>
      </trkpt>
      <trkpt lat="44.59433" lon="0.65404">
        <ele>173.66</ele>
        <time>2012-05-08T08:50:21Z</time>
      </trkpt>
      <trkpt lat="44.59446" lon="0.65419">
        <ele>173.17</ele>
        <time>2012-05-08T08:50:25Z</time>
      </trkpt>
      <trkpt lat="44.59459" lon="0.6544">
        <ele>173.17</ele>
        <time>2012-05-08T08:50:33Z</time>
      </trkpt>
      <trkpt lat="44.59466" lon="0.65446">
        <ele>174.62</ele>
        <time>2012-05-08T08:50:36Z</time>
      </trkpt>
      <trkpt lat="44.59474" lon="0.65469">
        <ele>176.54</ele>
        <time>2012-05-08T08:50:46Z</time>
      </trkpt>
      <trkpt lat="44.59475" lon="0.65474">
        <ele>177.02</ele>
        <time>2012-05-08T08:50:52Z</time>
      </trkpt>
      <trkpt lat="44.59478" lon="0.65492">
        <ele>179.42</ele>
        <time>2012-05-08T08:50:59Z</time>
      </trkpt>
      <trkpt lat="44.5948" lon="0.65507">
        <ele>180.38</ele>
        <time>2012-05-08T08:51:06Z</time>
      </trkpt>
      <trkpt lat="44.59474" lon="0.65517">
        <ele>179.42</ele>
        <time>2012-05-08T08:51:13Z</time>
      </trkpt>
      <trkpt lat="44.5947" lon="0.6552">
        <ele>178.94</ele>
        <time>2012-05-08T08:51:16Z</time>
      </trkpt>
      <trkpt lat="44.5947" lon="0.65532">
        <ele>179.9</ele>
        <time>2012-05-08T08:51:21Z</time>
      </trkpt>
      <trkpt lat="44.5948" lon="0.6555">
        <ele>183.75</ele>
        <time>2012-05-08T08:51:32Z</time>
      </trkpt>
      <trkpt lat="44.59483" lon="0.65553">
        <ele>184.71</ele>
        <time>2012-05-08T08:51:34Z</time>
      </trkpt>
      <trkpt lat="44.59487" lon="0.6556">
        <ele>185.67</ele>
        <time>2012-05-08T08:51:38Z</time>
      </trkpt>
      <trkpt lat="44.59504" lon="0.65583">
        <ele>187.11</ele>
        <time>2012-05-08T08:51:52Z</time>
      </trkpt>
      <trkpt lat="44.5952" lon="0.65588">
        <ele>188.56</ele>
        <time>2012-05-08T08:52:04Z</time>
      </trkpt>
      <trkpt lat="44.59538" lon="0.65589">
        <ele>189.04</ele>
        <time>2012-05-08T08:52:15Z</time>
      </trkpt>
      <trkpt lat="44.59546" lon="0.6559">
        <ele>189.52</ele>
        <time>2012-05-08T08:52:20Z</time>
      </trkpt>
      <trkpt lat="44.59568" lon="0.65594">
        <ele>190</ele>
        <time>2012-05-08T08:52:32Z</time>
      </trkpt>
      <trkpt lat="44.59586" lon="0.65606">
        <ele>191.44</ele>
        <time>2012-05-08T08:52:42Z</time>
      </trkpt>
      <trkpt lat="44.59588" lon="0.65608">
        <ele>191.44</ele>
        <time>2012-05-08T08:52:43Z</time>
      </trkpt>
      <trkpt lat="44.59596" lon="0.65618">
        <ele>191.44</ele>
        <time>2012-05-08T08:52:50Z</time>
      </trkpt>
      <trkpt lat="44.5961" lon="0.65628">
        <ele>192.4</ele>
        <time>2012-05-08T08:52:59Z</time>
      </trkpt>
      <trkpt lat="44.59627" lon="0.65649">
        <ele>191.92</ele>
        <time>2012-05-08T08:53:12Z</time>
      </trkpt>
      <trkpt lat="44.59634" lon="0.65655">
        <ele>190.96</ele>
        <time>2012-05-08T08:53:17Z</time>
      </trkpt>
      <trkpt lat="44.59636" lon="0.65657">
        <ele>191.44</ele>
        <time>2012-05-08T08:53:19Z</time>
      </trkpt>
      <trkpt lat="44.59644" lon="0.65663">
        <ele>194.32</ele>
        <time>2012-05-08T08:53:26Z</time>
      </trkpt>
      <trkpt lat="44.59656" lon="0.6562">
        <ele>194.8</ele>
        <time>2012-05-08T08:53:37Z</time>
      </trkpt>
      <trkpt lat="44.59669" lon="0.65599">
        <ele>194.32</ele>
        <time>2012-05-08T08:53:42Z</time>
      </trkpt>
      <trkpt lat="44.59691" lon="0.6561">
        <ele>193.84</ele>
        <time>2012-05-08T08:53:51Z</time>
      </trkpt>
      <trkpt lat="44.59714" lon="0.65622">
        <ele>194.8</ele>
        <time>2012-05-08T08:54:00Z</time>
      </trkpt>
      <trkpt lat="44.59714" lon="0.6564">
        <ele>193.84</ele>
        <time>2012-05-08T08:54:06Z</time>
      </trkpt>
      <trkpt lat="44.59715" lon="0.65644">
        <ele>193.84</ele>
        <time>2012-05-08T08:54:07Z</time>
      </trkpt>
      <trkpt lat="44.59717" lon="0.65651">
        <ele>192.88</ele>
        <time>2012-05-08T08:54:09Z</time>
      </trkpt>
      <trkpt lat="44.59728" lon="0.65658">
        <ele>191.44</ele>
        <time>2012-05-08T08:54:13Z</time>
      </trkpt>
      <trkpt lat="44.59734" lon="0.65659">
        <ele>190.48</ele>
        <time>2012-05-08T08:54:15Z</time>
      </trkpt>
      <trkpt lat="44.59753" lon="0.65668">
        <ele>186.15</ele>
        <time>2012-05-08T08:54:19Z</time>
      </trkpt>
      <trkpt lat="44.59763" lon="0.65664">
        <ele>184.71</ele>
        <time>2012-05-08T08:54:23Z</time>
      </trkpt>
      <trkpt lat="44.59785" lon="0.65647">
        <ele>182.31</ele>
        <time>2012-05-08T08:54:32Z</time>
      </trkpt>
      <trkpt lat="44.598" lon="0.65627">
        <ele>181.83</ele>
        <time>2012-05-08T08:54:40Z</time>
      </trkpt>
      <trkpt lat="44.59809" lon="0.65619">
        <ele>181.35</ele>
        <time>2012-05-08T08:54:51Z</time>
      </trkpt>
      <trkpt lat="44.59829" lon="0.65595">
        <ele>179.42</ele>
        <time>2012-05-08T08:55:04Z</time>
      </trkpt>
      <trkpt lat="44.59856" lon="0.65587">
        <ele>174.62</ele>
        <time>2012-05-08T08:55:14Z</time>
      </trkpt>
      <trkpt lat="44.59863" lon="0.65588">
        <ele>173.66</ele>
        <time>2012-05-08T08:55:17Z</time>
      </trkpt>
      <trkpt lat="44.59896" lon="0.65573">
        <ele>171.73</ele>
        <time>2012-05-08T08:55:28Z</time>
      </trkpt>
      <trkpt lat="44.5994" lon="0.65546">
        <ele>171.25</ele>
        <time>2012-05-08T08:55:39Z</time>
      </trkpt>
      <trkpt lat="44.59948" lon="0.65542">
        <ele>171.25</ele>
        <time>2012-05-08T08:55:41Z</time>
      </trkpt>
      <trkpt lat="44.5998" lon="0.65524">
        <ele>170.29</ele>
        <time>2012-05-08T08:55:48Z</time>
      </trkpt>
      <trkpt lat="44.59999" lon="0.65512">
        <ele>168.37</ele>
        <time>2012-05-08T08:55:53Z</time>
      </trkpt>
      <trkpt lat="44.60009" lon="0.65499">
        <ele>167.89</ele>
        <time>2012-05-08T08:55:57Z</time>
      </trkpt>
      <trkpt lat="44.60019" lon="0.65483">
        <ele>162.6</ele>
        <time>2012-05-08T08:56:06Z</time>
      </trkpt>
      <trkpt lat="44.6002" lon="0.65482">
        <ele>159.72</ele>
        <time>2012-05-08T08:56:24Z</time>
      </trkpt>
      <trkpt lat="44.6002" lon="0.65482">
        <ele>159.24</ele>
        <time>2012-05-08T08:56:39Z</time>
      </trkpt>
      <trkpt lat="44.6002" lon="0.65482">
        <ele>159.24</ele>
        <time>2012-05-08T08:56:41Z</time>
      </trkpt>
      <trkpt lat="44.60036" lon="0.65467">
        <ele>159.24</ele>
        <time>2012-05-08T08:56:48Z</time>
      </trkpt>
      <trkpt lat="44.60074" lon="0.65442">
        <ele>156.35</ele>
        <time>2012-05-08T08:56:58Z</time>
      </trkpt>
      <trkpt lat="44.60077" lon="0.6544">
        <ele>155.87</ele>
        <time>2012-05-08T08:56:59Z</time>
      </trkpt>
      <trkpt lat="44.6009" lon="0.65422">
        <ele>154.91</ele>
        <time>2012-05-08T08:57:04Z</time>
      </trkpt>
      <trkpt lat="44.60088" lon="0.65406">
        <ele>153.47</ele>
        <time>2012-05-08T08:57:09Z</time>
      </trkpt>
      <trkpt lat="44.60079" lon="0.65381">
        <ele>151.54</ele>
        <time>2012-05-08T08:57:16Z</time>
      </trkpt>
      <trkpt lat="44.60069" lon="0.65358">
        <ele>150.58</ele>
        <time>2012-05-08T08:57:20Z</time>
      </trkpt>
      <trkpt lat="44.60064" lon="0.65346">
        <ele>150.1</ele>
        <time>2012-05-08T08:57:22Z</time>
      </trkpt>
      <trkpt lat="44.60058" lon="0.65335">
        <ele>149.14</ele>
        <time>2012-05-08T08:57:24Z</time>
      </trkpt>
      <trkpt lat="44.60054" lon="0.65324">
        <ele>148.66</ele>
        <time>2012-05-08T08:57:26Z</time>
      </trkpt>
      <trkpt lat="44.60045" lon="0.65308">
        <ele>148.18</ele>
        <time>2012-05-08T08:57:30Z</time>
      </trkpt>
      <trkpt lat="44.60044" lon="0.65305">
        <ele>148.18</ele>
        <time>2012-05-08T08:57:32Z</time>
      </trkpt>
      <trkpt lat="44.60039" lon="0.65292">
        <ele>147.22</ele>
        <time>2012-05-08T08:57:38Z</time>
      </trkpt>
      <trkpt lat="44.60037" lon="0.6529">
        <ele>147.22</ele>
        <time>2012-05-08T08:57:39Z</time>
      </trkpt>
      <trkpt lat="44.6002" lon="0.65257">
        <ele>147.22</ele>
        <time>2012-05-08T08:57:48Z</time>
      </trkpt>
      <trkpt lat="44.59997" lon="0.65202">
        <ele>149.14</ele>
        <time>2012-05-08T08:58:01Z</time>
      </trkpt>
      <trkpt lat="44.5998" lon="0.65155">
        <ele>149.62</ele>
        <time>2012-05-08T08:58:14Z</time>
      </trkpt>
      <trkpt lat="44.59979" lon="0.65152">
        <ele>149.14</ele>
        <time>2012-05-08T08:58:15Z</time>
      </trkpt>
      <trkpt lat="44.59979" lon="0.65148">
        <ele>149.14</ele>
        <time>2012-05-08T08:58:16Z</time>
      </trkpt>
      <trkpt lat="44.59979" lon="0.65145">
        <ele>148.66</ele>
        <time>2012-05-08T08:58:17Z</time>
      </trkpt>
      <trkpt lat="44.59979" lon="0.65141">
        <ele>148.18</ele>
        <time>2012-05-08T08:58:18Z</time>
      </trkpt>
      <trkpt lat="44.5998" lon="0.65137">
        <ele>148.18</ele>
        <time>2012-05-08T08:58:19Z</time>
      </trkpt>
      <trkpt lat="44.5998" lon="0.65133">
        <ele>147.7</ele>
        <time>2012-05-08T08:58:20Z</time>
      </trkpt>
      <trkpt lat="44.5998" lon="0.65128">
        <ele>147.7</ele>
        <time>2012-05-08T08:58:21Z</time>
      </trkpt>
      <trkpt lat="44.59979" lon="0.65123">
        <ele>147.7</ele>
        <time>2012-05-08T08:58:22Z</time>
      </trkpt>
      <trkpt lat="44.59979" lon="0.65118">
        <ele>147.7</ele>
        <time>2012-05-08T08:58:23Z</time>
      </trkpt>
      <trkpt lat="44.59979" lon="0.65113">
        <ele>147.7</ele>
        <time>2012-05-08T08:58:24Z</time>
      </trkpt>
      <trkpt lat="44.59979" lon="0.65108">
        <ele>147.7</ele>
        <time>2012-05-08T08:58:25Z</time>
      </trkpt>
      <trkpt lat="44.5998" lon="0.65104">
        <ele>147.7</ele>
        <time>2012-05-08T08:58:26Z</time>
      </trkpt>
      <trkpt lat="44.59981" lon="0.651">
        <ele>148.18</ele>
        <time>2012-05-08T08:58:27Z</time>
      </trkpt>
      <trkpt lat="44.59983" lon="0.65095">
        <ele>148.18</ele>
        <time>2012-05-08T08:58:28Z</time>
      </trkpt>
      <trkpt lat="44.59984" lon="0.65091">
        <ele>148.18</ele>
        <time>2012-05-08T08:58:29Z</time>
      </trkpt>
      <trkpt lat="44.59985" lon="0.65086">
        <ele>148.18</ele>
        <time>2012-05-08T08:58:30Z</time>
      </trkpt>
      <trkpt lat="44.59987" lon="0.6506">
        <ele>148.66</ele>
        <time>2012-05-08T08:58:38Z</time>
      </trkpt>
      <trkpt lat="44.59988" lon="0.65057">
        <ele>148.66</ele>
        <time>2012-05-08T08:58:39Z</time>
      </trkpt>
      <trkpt lat="44.59988" lon="0.65054">
        <ele>148.18</ele>
        <time>2012-05-08T08:58:40Z</time>
      </trkpt>
      <trkpt lat="44.59989" lon="0.6505">
        <ele>148.18</ele>
        <time>2012-05-08T08:58:41Z</time>
      </trkpt>
      <trkpt lat="44.59989" lon="0.65045">
        <ele>147.7</ele>
        <time>2012-05-08T08:58:42Z</time>
      </trkpt>
      <trkpt lat="44.59991" lon="0.65024">
        <ele>147.22</ele>
        <time>2012-05-08T08:58:46Z</time>
      </trkpt>
      <trkpt lat="44.59992" lon="0.65018">
        <ele>146.74</ele>
        <time>2012-05-08T08:58:47Z</time>
      </trkpt>
      <trkpt lat="44.59995" lon="0.64992">
        <ele>145.3</ele>
        <time>2012-05-08T08:58:51Z</time>
      </trkpt>
      <trkpt lat="44.59995" lon="0.64985">
        <ele>144.82</ele>
        <time>2012-05-08T08:58:52Z</time>
      </trkpt>
      <trkpt lat="44.59999" lon="0.64935">
        <ele>142.41</ele>
        <time>2012-05-08T08:58:59Z</time>
      </trkpt>
      <trkpt lat="44.59998" lon="0.64929">
        <ele>141.93</ele>
        <time>2012-05-08T08:59:00Z</time>
      </trkpt>
      <trkpt lat="44.59997" lon="0.64917">
        <ele>139.53</ele>
        <time>2012-05-08T08:59:03Z</time>
      </trkpt>
      <trkpt lat="44.59998" lon="0.64915">
        <ele>139.05</ele>
        <time>2012-05-08T08:59:04Z</time>
      </trkpt>
      <trkpt lat="44.59998" lon="0.64913">
        <ele>139.05</ele>
        <time>2012-05-08T08:59:05Z</time>
      </trkpt>
      <trkpt lat="44.59997" lon="0.64911">
        <ele>138.57</ele>
        <time>2012-05-08T08:59:06Z</time>
      </trkpt>
      <trkpt lat="44.59997" lon="0.64908">
        <ele>138.57</ele>
        <time>2012-05-08T08:59:07Z</time>
      </trkpt>
      <trkpt lat="44.59996" lon="0.64902">
        <ele>138.09</ele>
        <time>2012-05-08T08:59:15Z</time>
      </trkpt>
      <trkpt lat="44.59997" lon="0.64894">
        <ele>139.05</ele>
        <time>2012-05-08T08:59:27Z</time>
      </trkpt>
      <trkpt lat="44.60001" lon="0.64882">
        <ele>139.53</ele>
        <time>2012-05-08T08:59:37Z</time>
      </trkpt>
      <trkpt lat="44.60002" lon="0.6488">
        <ele>139.53</ele>
        <time>2012-05-08T08:59:38Z</time>
      </trkpt>
      <trkpt lat="44.60003" lon="0.64878">
        <ele>139.53</ele>
        <time>2012-05-08T08:59:39Z</time>
      </trkpt>
      <trkpt lat="44.60009" lon="0.64857">
        <ele>141.93</ele>
        <time>2012-05-08T08:59:48Z</time>
      </trkpt>
      <trkpt lat="44.60011" lon="0.64856">
        <ele>142.89</ele>
        <time>2012-05-08T08:59:50Z</time>
      </trkpt>
      <trkpt lat="44.60017" lon="0.64846">
        <ele>146.74</ele>
        <time>2012-05-08T09:00:01Z</time>
      </trkpt>
      <trkpt lat="44.60018" lon="0.64842">
        <ele>147.7</ele>
        <time>2012-05-08T09:00:04Z</time>
      </trkpt>
      <trkpt lat="44.60021" lon="0.64829">
        <ele>149.14</ele>
        <time>2012-05-08T09:00:16Z</time>
      </trkpt>
      <trkpt lat="44.60022" lon="0.64815">
        <ele>150.1</ele>
        <time>2012-05-08T09:00:30Z</time>
      </trkpt>
      <trkpt lat="44.60022" lon="0.64811">
        <ele>151.06</ele>
        <time>2012-05-08T09:00:33Z</time>
      </trkpt>
      <trkpt lat="44.60018" lon="0.64793">
        <ele>154.43</ele>
        <time>2012-05-08T09:00:47Z</time>
      </trkpt>
      <trkpt lat="44.60011" lon="0.64766">
        <ele>155.39</ele>
        <time>2012-05-08T09:01:03Z</time>
      </trkpt>
      <trkpt lat="44.60004" lon="0.64751">
        <ele>156.83</ele>
        <time>2012-05-08T09:01:12Z</time>
      </trkpt>
      <trkpt lat="44.60004" lon="0.64749">
        <ele>156.83</ele>
        <time>2012-05-08T09:01:13Z</time>
      </trkpt>
      <trkpt lat="44.60004" lon="0.64745">
        <ele>155.87</ele>
        <time>2012-05-08T09:01:23Z</time>
      </trkpt>
      <trkpt lat="44.60006" lon="0.64744">
        <ele>155.87</ele>
        <time>2012-05-08T09:01:24Z</time>
      </trkpt>
      <trkpt lat="44.60036" lon="0.6472">
        <ele>154.91</ele>
        <time>2012-05-08T09:01:34Z</time>
      </trkpt>
      <trkpt lat="44.60094" lon="0.64653">
        <ele>151.06</ele>
        <time>2012-05-08T09:01:48Z</time>
      </trkpt>
      <trkpt lat="44.60097" lon="0.64648">
        <ele>150.58</ele>
        <time>2012-05-08T09:01:49Z</time>
      </trkpt>
      <trkpt lat="44.60101" lon="0.64648">
        <ele>150.58</ele>
        <time>2012-05-08T09:01:50Z</time>
      </trkpt>
      <trkpt lat="44.60105" lon="0.64649">
        <ele>150.58</ele>
        <time>2012-05-08T09:01:51Z</time>
      </trkpt>
      <trkpt lat="44.60108" lon="0.64651">
        <ele>151.06</ele>
        <time>2012-05-08T09:01:52Z</time>
      </trkpt>
      <trkpt lat="44.60112" lon="0.64654">
        <ele>151.06</ele>
        <time>2012-05-08T09:01:53Z</time>
      </trkpt>
      <trkpt lat="44.60115" lon="0.64655">
        <ele>151.06</ele>
        <time>2012-05-08T09:01:54Z</time>
      </trkpt>
      <trkpt lat="44.60119" lon="0.64655">
        <ele>151.06</ele>
        <time>2012-05-08T09:01:55Z</time>
      </trkpt>
      <trkpt lat="44.60123" lon="0.64653">
        <ele>151.54</ele>
        <time>2012-05-08T09:01:56Z</time>
      </trkpt>
      <trkpt lat="44.60127" lon="0.64651">
        <ele>151.54</ele>
        <time>2012-05-08T09:01:57Z</time>
      </trkpt>
      <trkpt lat="44.60131" lon="0.6465">
        <ele>151.54</ele>
        <time>2012-05-08T09:01:58Z</time>
      </trkpt>
      <trkpt lat="44.60135" lon="0.64648">
        <ele>151.54</ele>
        <time>2012-05-08T09:01:59Z</time>
      </trkpt>
      <trkpt lat="44.60207" lon="0.64622">
        <ele>151.06</ele>
        <time>2012-05-08T09:02:12Z</time>
      </trkpt>
      <trkpt lat="44.60291" lon="0.64602">
        <ele>152.99</ele>
        <time>2012-05-08T09:02:28Z</time>
      </trkpt>
      <trkpt lat="44.60295" lon="0.64602">
        <ele>152.99</ele>
        <time>2012-05-08T09:02:29Z</time>
      </trkpt>
      <trkpt lat="44.60335" lon="0.646">
        <ele>153.47</ele>
        <time>2012-05-08T09:02:40Z</time>
      </trkpt>
      <trkpt lat="44.60373" lon="0.64598">
        <ele>154.91</ele>
        <time>2012-05-08T09:02:51Z</time>
      </trkpt>
      <trkpt lat="44.6041" lon="0.64598">
        <ele>153.95</ele>
        <time>2012-05-08T09:03:02Z</time>
      </trkpt>
      <trkpt lat="44.60433" lon="0.64596">
        <ele>153.95</ele>
        <time>2012-05-08T09:03:10Z</time>
      </trkpt>
      <trkpt lat="44.6047" lon="0.64585">
        <ele>157.31</ele>
        <time>2012-05-08T09:03:21Z</time>
      </trkpt>
      <trkpt lat="44.60507" lon="0.64558">
        <ele>157.79</ele>
        <time>2012-05-08T09:03:33Z</time>
      </trkpt>
      <trkpt lat="44.60512" lon="0.64552">
        <ele>157.79</ele>
        <time>2012-05-08T09:03:35Z</time>
      </trkpt>
      <trkpt lat="44.60559" lon="0.64512">
        <ele>157.79</ele>
        <time>2012-05-08T09:03:48Z</time>
      </trkpt>
      <trkpt lat="44.60566" lon="0.64506">
        <ele>157.31</ele>
        <time>2012-05-08T09:03:50Z</time>
      </trkpt>
      <trkpt lat="44.6057" lon="0.64504">
        <ele>157.31</ele>
        <time>2012-05-08T09:03:51Z</time>
      </trkpt>
      <trkpt lat="44.60615" lon="0.64473">
        <ele>157.31</ele>
        <time>2012-05-08T09:04:03Z</time>
      </trkpt>
      <trkpt lat="44.6064" lon="0.64458">
        <ele>156.35</ele>
        <time>2012-05-08T09:04:09Z</time>
      </trkpt>
      <trkpt lat="44.60646" lon="0.64456">
        <ele>156.35</ele>
        <time>2012-05-08T09:04:10Z</time>
      </trkpt>
      <trkpt lat="44.60651" lon="0.64454">
        <ele>156.35</ele>
        <time>2012-05-08T09:04:11Z</time>
      </trkpt>
      <trkpt lat="44.60656" lon="0.64452">
        <ele>155.87</ele>
        <time>2012-05-08T09:04:12Z</time>
      </trkpt>
      <trkpt lat="44.60661" lon="0.64449">
        <ele>155.87</ele>
        <time>2012-05-08T09:04:13Z</time>
      </trkpt>
      <trkpt lat="44.60666" lon="0.64446">
        <ele>155.87</ele>
        <time>2012-05-08T09:04:14Z</time>
      </trkpt>
      <trkpt lat="44.6068" lon="0.64436">
        <ele>154.91</ele>
        <time>2012-05-08T09:04:17Z</time>
      </trkpt>
      <trkpt lat="44.60684" lon="0.64433">
        <ele>154.91</ele>
        <time>2012-05-08T09:04:18Z</time>
      </trkpt>
      <trkpt lat="44.60718" lon="0.64416">
        <ele>154.91</ele>
        <time>2012-05-08T09:04:26Z</time>
      </trkpt>
      <trkpt lat="44.60723" lon="0.64416">
        <ele>154.91</ele>
        <time>2012-05-08T09:04:27Z</time>
      </trkpt>
      <trkpt lat="44.60727" lon="0.64416">
        <ele>154.91</ele>
        <time>2012-05-08T09:04:28Z</time>
      </trkpt>
      <trkpt lat="44.60731" lon="0.64415">
        <ele>154.91</ele>
        <time>2012-05-08T09:04:29Z</time>
      </trkpt>
      <trkpt lat="44.60734" lon="0.64415">
        <ele>154.91</ele>
        <time>2012-05-08T09:04:30Z</time>
      </trkpt>
      <trkpt lat="44.60739" lon="0.64415">
        <ele>154.91</ele>
        <time>2012-05-08T09:04:31Z</time>
      </trkpt>
      <trkpt lat="44.60773" lon="0.64423">
        <ele>152.99</ele>
        <time>2012-05-08T09:04:39Z</time>
      </trkpt>
      <trkpt lat="44.60783" lon="0.64423">
        <ele>152.51</ele>
        <time>2012-05-08T09:04:41Z</time>
      </trkpt>
      <trkpt lat="44.60787" lon="0.64423">
        <ele>152.51</ele>
        <time>2012-05-08T09:04:42Z</time>
      </trkpt>
      <trkpt lat="44.60811" lon="0.64414">
        <ele>153.95</ele>
        <time>2012-05-08T09:04:48Z</time>
      </trkpt>
      <trkpt lat="44.60871" lon="0.64379">
        <ele>158.75</ele>
        <time>2012-05-08T09:05:03Z</time>
      </trkpt>
      <trkpt lat="44.60922" lon="0.64343">
        <ele>158.27</ele>
        <time>2012-05-08T09:05:16Z</time>
      </trkpt>
      <trkpt lat="44.60927" lon="0.64339">
        <ele>158.27</ele>
        <time>2012-05-08T09:05:17Z</time>
      </trkpt>
      <trkpt lat="44.60951" lon="0.64324">
        <ele>157.79</ele>
        <time>2012-05-08T09:05:22Z</time>
      </trkpt>
      <trkpt lat="44.6102" lon="0.64305">
        <ele>154.43</ele>
        <time>2012-05-08T09:05:33Z</time>
      </trkpt>
      <trkpt lat="44.61027" lon="0.64306">
        <ele>153.95</ele>
        <time>2012-05-08T09:05:34Z</time>
      </trkpt>
      <trkpt lat="44.61034" lon="0.64307">
        <ele>153.47</ele>
        <time>2012-05-08T09:05:35Z</time>
      </trkpt>
      <trkpt lat="44.6107" lon="0.64322">
        <ele>152.99</ele>
        <time>2012-05-08T09:05:41Z</time>
      </trkpt>
      <trkpt lat="44.61075" lon="0.64325">
        <ele>152.99</ele>
        <time>2012-05-08T09:05:42Z</time>
      </trkpt>
      <trkpt lat="44.61079" lon="0.64327">
        <ele>152.99</ele>
        <time>2012-05-08T09:05:43Z</time>
      </trkpt>
      <trkpt lat="44.61084" lon="0.6433">
        <ele>152.51</ele>
        <time>2012-05-08T09:05:44Z</time>
      </trkpt>
      <trkpt lat="44.61089" lon="0.64332">
        <ele>152.51</ele>
        <time>2012-05-08T09:05:45Z</time>
      </trkpt>
      <trkpt lat="44.61123" lon="0.64347">
        <ele>151.54</ele>
        <time>2012-05-08T09:05:52Z</time>
      </trkpt>
      <trkpt lat="44.61134" lon="0.64347">
        <ele>151.54</ele>
        <time>2012-05-08T09:05:54Z</time>
      </trkpt>
      <trkpt lat="44.61145" lon="0.64344">
        <ele>151.54</ele>
        <time>2012-05-08T09:05:56Z</time>
      </trkpt>
      <trkpt lat="44.6115" lon="0.64341">
        <ele>151.54</ele>
        <time>2012-05-08T09:05:57Z</time>
      </trkpt>
      <trkpt lat="44.61165" lon="0.64331">
        <ele>151.06</ele>
        <time>2012-05-08T09:06:00Z</time>
      </trkpt>
      <trkpt lat="44.61203" lon="0.64297">
        <ele>151.06</ele>
        <time>2012-05-08T09:06:08Z</time>
      </trkpt>
      <trkpt lat="44.61207" lon="0.64292">
        <ele>151.54</ele>
        <time>2012-05-08T09:06:09Z</time>
      </trkpt>
      <trkpt lat="44.61219" lon="0.64275">
        <ele>152.03</ele>
        <time>2012-05-08T09:06:12Z</time>
      </trkpt>
      <trkpt lat="44.61231" lon="0.64257">
        <ele>152.51</ele>
        <time>2012-05-08T09:06:15Z</time>
      </trkpt>
      <trkpt lat="44.6124" lon="0.6424">
        <ele>153.95</ele>
        <time>2012-05-08T09:06:18Z</time>
      </trkpt>
      <trkpt lat="44.61243" lon="0.64235">
        <ele>154.43</ele>
        <time>2012-05-08T09:06:19Z</time>
      </trkpt>
      <trkpt lat="44.61253" lon="0.6422">
        <ele>157.31</ele>
        <time>2012-05-08T09:06:22Z</time>
      </trkpt>
      <trkpt lat="44.61262" lon="0.64202">
        <ele>159.24</ele>
        <time>2012-05-08T09:06:25Z</time>
      </trkpt>
      <trkpt lat="44.61269" lon="0.6418">
        <ele>160.2</ele>
        <time>2012-05-08T09:06:28Z</time>
      </trkpt>
      <trkpt lat="44.61272" lon="0.64172">
        <ele>159.72</ele>
        <time>2012-05-08T09:06:29Z</time>
      </trkpt>
      <trkpt lat="44.61281" lon="0.64132">
        <ele>158.75</ele>
        <time>2012-05-08T09:06:34Z</time>
      </trkpt>
      <trkpt lat="44.61282" lon="0.64125">
        <ele>158.27</ele>
        <time>2012-05-08T09:06:35Z</time>
      </trkpt>
      <trkpt lat="44.61283" lon="0.64118">
        <ele>158.27</ele>
        <time>2012-05-08T09:06:36Z</time>
      </trkpt>
      <trkpt lat="44.61286" lon="0.64104">
        <ele>157.79</ele>
        <time>2012-05-08T09:06:38Z</time>
      </trkpt>
      <trkpt lat="44.61288" lon="0.64098">
        <ele>157.79</ele>
        <time>2012-05-08T09:06:39Z</time>
      </trkpt>
      <trkpt lat="44.6129" lon="0.64092">
        <ele>158.27</ele>
        <time>2012-05-08T09:06:40Z</time>
      </trkpt>
      <trkpt lat="44.61297" lon="0.64076">
        <ele>158.27</ele>
        <time>2012-05-08T09:06:43Z</time>
      </trkpt>
      <trkpt lat="44.61304" lon="0.6406">
        <ele>158.27</ele>
        <time>2012-05-08T09:06:46Z</time>
      </trkpt>
      <trkpt lat="44.61309" lon="0.64048">
        <ele>158.27</ele>
        <time>2012-05-08T09:06:48Z</time>
      </trkpt>
      <trkpt lat="44.61311" lon="0.64043">
        <ele>158.27</ele>
        <time>2012-05-08T09:06:49Z</time>
      </trkpt>
      <trkpt lat="44.61314" lon="0.64037">
        <ele>158.27</ele>
        <time>2012-05-08T09:06:50Z</time>
      </trkpt>
      <trkpt lat="44.61321" lon="0.64019">
        <ele>158.75</ele>
        <time>2012-05-08T09:06:53Z</time>
      </trkpt>
      <trkpt lat="44.61323" lon="0.64012">
        <ele>158.75</ele>
        <time>2012-05-08T09:06:54Z</time>
      </trkpt>
      <trkpt lat="44.61329" lon="0.63992">
        <ele>158.75</ele>
        <time>2012-05-08T09:06:57Z</time>
      </trkpt>
      <trkpt lat="44.61333" lon="0.63977">
        <ele>158.75</ele>
        <time>2012-05-08T09:06:59Z</time>
      </trkpt>
      <trkpt lat="44.61335" lon="0.63956">
        <ele>157.79</ele>
        <time>2012-05-08T09:07:02Z</time>
      </trkpt>
      <trkpt lat="44.61336" lon="0.63949">
        <ele>157.79</ele>
        <time>2012-05-08T09:07:03Z</time>
      </trkpt>
      <trkpt lat="44.61355" lon="0.63842">
        <ele>155.87</ele>
        <time>2012-05-08T09:07:19Z</time>
      </trkpt>
      <trkpt lat="44.61376" lon="0.63723">
        <ele>153.47</ele>
        <time>2012-05-08T09:07:33Z</time>
      </trkpt>
      <trkpt lat="44.61392" lon="0.63626">
        <ele>152.03</ele>
        <time>2012-05-08T09:07:43Z</time>
      </trkpt>
      <trkpt lat="44.61395" lon="0.63617">
        <ele>152.03</ele>
        <time>2012-05-08T09:07:44Z</time>
      </trkpt>
      <trkpt lat="44.61401" lon="0.63599">
        <ele>152.03</ele>
        <time>2012-05-08T09:07:46Z</time>
      </trkpt>
      <trkpt lat="44.6143" lon="0.63516">
        <ele>150.58</ele>
        <time>2012-05-08T09:07:56Z</time>
      </trkpt>
      <trkpt lat="44.61433" lon="0.63508">
        <ele>150.58</ele>
        <time>2012-05-08T09:07:57Z</time>
      </trkpt>
      <trkpt lat="44.61436" lon="0.635">
        <ele>150.58</ele>
        <time>2012-05-08T09:07:58Z</time>
      </trkpt>
      <trkpt lat="44.61439" lon="0.63491">
        <ele>150.58</ele>
        <time>2012-05-08T09:07:59Z</time>
      </trkpt>
      <trkpt lat="44.6144" lon="0.63482">
        <ele>150.58</ele>
        <time>2012-05-08T09:08:00Z</time>
      </trkpt>
      <trkpt lat="44.61441" lon="0.63472">
        <ele>150.1</ele>
        <time>2012-05-08T09:08:01Z</time>
      </trkpt>
      <trkpt lat="44.61444" lon="0.63455">
        <ele>150.1</ele>
        <time>2012-05-08T09:08:03Z</time>
      </trkpt>
      <trkpt lat="44.61448" lon="0.63437">
        <ele>149.62</ele>
        <time>2012-05-08T09:08:05Z</time>
      </trkpt>
      <trkpt lat="44.61451" lon="0.63429">
        <ele>149.62</ele>
        <time>2012-05-08T09:08:06Z</time>
      </trkpt>
      <trkpt lat="44.61482" lon="0.63366">
        <ele>148.18</ele>
        <time>2012-05-08T09:08:14Z</time>
      </trkpt>
      <trkpt lat="44.61522" lon="0.63305">
        <ele>147.7</ele>
        <time>2012-05-08T09:08:23Z</time>
      </trkpt>
      <trkpt lat="44.61524" lon="0.63299">
        <ele>148.18</ele>
        <time>2012-05-08T09:08:24Z</time>
      </trkpt>
      <trkpt lat="44.61526" lon="0.63295">
        <ele>148.18</ele>
        <time>2012-05-08T09:08:25Z</time>
      </trkpt>
      <trkpt lat="44.61533" lon="0.63276">
        <ele>148.66</ele>
        <time>2012-05-08T09:08:29Z</time>
      </trkpt>
      <trkpt lat="44.6154" lon="0.63262">
        <ele>149.62</ele>
        <time>2012-05-08T09:08:32Z</time>
      </trkpt>
      <trkpt lat="44.61561" lon="0.63229">
        <ele>151.54</ele>
        <time>2012-05-08T09:08:39Z</time>
      </trkpt>
      <trkpt lat="44.61563" lon="0.63223">
        <ele>151.54</ele>
        <time>2012-05-08T09:08:40Z</time>
      </trkpt>
      <trkpt lat="44.61565" lon="0.63217">
        <ele>151.54</ele>
        <time>2012-05-08T09:08:41Z</time>
      </trkpt>
      <trkpt lat="44.61583" lon="0.63168">
        <ele>150.1</ele>
        <time>2012-05-08T09:08:49Z</time>
      </trkpt>
      <trkpt lat="44.61585" lon="0.63162">
        <ele>150.1</ele>
        <time>2012-05-08T09:08:50Z</time>
      </trkpt>
      <trkpt lat="44.61613" lon="0.63075">
        <ele>151.06</ele>
        <time>2012-05-08T09:09:04Z</time>
      </trkpt>
      <trkpt lat="44.61616" lon="0.63069">
        <ele>151.06</ele>
        <time>2012-05-08T09:09:05Z</time>
      </trkpt>
      <trkpt lat="44.61619" lon="0.63063">
        <ele>151.06</ele>
        <time>2012-05-08T09:09:06Z</time>
      </trkpt>
      <trkpt lat="44.61622" lon="0.63057">
        <ele>151.06</ele>
        <time>2012-05-08T09:09:07Z</time>
      </trkpt>
      <trkpt lat="44.61624" lon="0.63051">
        <ele>150.58</ele>
        <time>2012-05-08T09:09:08Z</time>
      </trkpt>
      <trkpt lat="44.61629" lon="0.63039">
        <ele>150.58</ele>
        <time>2012-05-08T09:09:10Z</time>
      </trkpt>
      <trkpt lat="44.61631" lon="0.63032">
        <ele>150.58</ele>
        <time>2012-05-08T09:09:11Z</time>
      </trkpt>
      <trkpt lat="44.61633" lon="0.63025">
        <ele>150.1</ele>
        <time>2012-05-08T09:09:12Z</time>
      </trkpt>
      <trkpt lat="44.61659" lon="0.62953">
        <ele>147.7</ele>
        <time>2012-05-08T09:09:22Z</time>
      </trkpt>
      <trkpt lat="44.61662" lon="0.62947">
        <ele>147.7</ele>
        <time>2012-05-08T09:09:23Z</time>
      </trkpt>
      <trkpt lat="44.61715" lon="0.62857">
        <ele>144.82</ele>
        <time>2012-05-08T09:09:36Z</time>
      </trkpt>
      <trkpt lat="44.61797" lon="0.62768">
        <ele>140.49</ele>
        <time>2012-05-08T09:09:51Z</time>
      </trkpt>
      <trkpt lat="44.61842" lon="0.62713">
        <ele>138.09</ele>
        <time>2012-05-08T09:10:00Z</time>
      </trkpt>
      <trkpt lat="44.61846" lon="0.62707">
        <ele>137.61</ele>
        <time>2012-05-08T09:10:01Z</time>
      </trkpt>
      <trkpt lat="44.6185" lon="0.627">
        <ele>137.61</ele>
        <time>2012-05-08T09:10:02Z</time>
      </trkpt>
      <trkpt lat="44.61865" lon="0.62669">
        <ele>137.13</ele>
        <time>2012-05-08T09:10:06Z</time>
      </trkpt>
      <trkpt lat="44.61867" lon="0.6266">
        <ele>136.64</ele>
        <time>2012-05-08T09:10:07Z</time>
      </trkpt>
      <trkpt lat="44.61869" lon="0.62651">
        <ele>136.64</ele>
        <time>2012-05-08T09:10:08Z</time>
      </trkpt>
      <trkpt lat="44.61884" lon="0.62591">
        <ele>136.16</ele>
        <time>2012-05-08T09:10:15Z</time>
      </trkpt>
      <trkpt lat="44.61886" lon="0.62582">
        <ele>136.16</ele>
        <time>2012-05-08T09:10:16Z</time>
      </trkpt>
      <trkpt lat="44.61888" lon="0.62574">
        <ele>135.68</ele>
        <time>2012-05-08T09:10:17Z</time>
      </trkpt>
      <trkpt lat="44.61892" lon="0.62557">
        <ele>135.2</ele>
        <time>2012-05-08T09:10:19Z</time>
      </trkpt>
      <trkpt lat="44.61909" lon="0.62507">
        <ele>133.76</ele>
        <time>2012-05-08T09:10:25Z</time>
      </trkpt>
      <trkpt lat="44.61913" lon="0.62498">
        <ele>133.76</ele>
        <time>2012-05-08T09:10:26Z</time>
      </trkpt>
      <trkpt lat="44.61917" lon="0.6249">
        <ele>133.76</ele>
        <time>2012-05-08T09:10:27Z</time>
      </trkpt>
      <trkpt lat="44.61949" lon="0.62436">
        <ele>132.8</ele>
        <time>2012-05-08T09:10:34Z</time>
      </trkpt>
      <trkpt lat="44.61968" lon="0.62393">
        <ele>130.88</ele>
        <time>2012-05-08T09:10:39Z</time>
      </trkpt>
      <trkpt lat="44.61972" lon="0.62385">
        <ele>130.4</ele>
        <time>2012-05-08T09:10:40Z</time>
      </trkpt>
      <trkpt lat="44.61976" lon="0.62378">
        <ele>129.92</ele>
        <time>2012-05-08T09:10:41Z</time>
      </trkpt>
      <trkpt lat="44.61978" lon="0.62371">
        <ele>129.43</ele>
        <time>2012-05-08T09:10:42Z</time>
      </trkpt>
      <trkpt lat="44.61981" lon="0.62364">
        <ele>129.43</ele>
        <time>2012-05-08T09:10:43Z</time>
      </trkpt>
      <trkpt lat="44.61984" lon="0.62358">
        <ele>129.43</ele>
        <time>2012-05-08T09:10:44Z</time>
      </trkpt>
      <trkpt lat="44.61987" lon="0.62355">
        <ele>128.95</ele>
        <time>2012-05-08T09:10:45Z</time>
      </trkpt>
      <trkpt lat="44.62" lon="0.62364">
        <ele>124.63</ele>
        <time>2012-05-08T09:10:52Z</time>
      </trkpt>
      <trkpt lat="44.6201" lon="0.62379">
        <ele>118.38</ele>
        <time>2012-05-08T09:10:59Z</time>
      </trkpt>
      <trkpt lat="44.62021" lon="0.62384">
        <ele>116.94</ele>
        <time>2012-05-08T09:11:02Z</time>
      </trkpt>
      <trkpt lat="44.62035" lon="0.62385">
        <ele>115.5</ele>
        <time>2012-05-08T09:11:07Z</time>
      </trkpt>
      <trkpt lat="44.62062" lon="0.62402">
        <ele>108.77</ele>
        <time>2012-05-08T09:11:14Z</time>
      </trkpt>
      <trkpt lat="44.62105" lon="0.62446">
        <ele>96.75</ele>
        <time>2012-05-08T09:11:24Z</time>
      </trkpt>
      <trkpt lat="44.62196" lon="0.62518">
        <ele>89.06</ele>
        <time>2012-05-08T09:11:39Z</time>
      </trkpt>
      <trkpt lat="44.62272" lon="0.62577">
        <ele>87.14</ele>
        <time>2012-05-08T09:11:54Z</time>
      </trkpt>
      <trkpt lat="44.62313" lon="0.62645">
        <ele>88.1</ele>
        <time>2012-05-08T09:12:07Z</time>
      </trkpt>
      <trkpt lat="44.62344" lon="0.62699">
        <ele>91.46</ele>
        <time>2012-05-08T09:12:20Z</time>
      </trkpt>
      <trkpt lat="44.62391" lon="0.6277">
        <ele>90.5</ele>
        <time>2012-05-08T09:12:35Z</time>
      </trkpt>
      <trkpt lat="44.62404" lon="0.62793">
        <ele>91.46</ele>
        <time>2012-05-08T09:12:40Z</time>
      </trkpt>
      <trkpt lat="44.62428" lon="0.62833">
        <ele>94.83</ele>
        <time>2012-05-08T09:12:50Z</time>
      </trkpt>
      <trkpt lat="44.62427" lon="0.62838">
        <ele>94.83</ele>
        <time>2012-05-08T09:12:51Z</time>
      </trkpt>
      <trkpt lat="44.62427" lon="0.62844">
        <ele>94.83</ele>
        <time>2012-05-08T09:12:52Z</time>
      </trkpt>
      <trkpt lat="44.62418" lon="0.62903">
        <ele>94.83</ele>
        <time>2012-05-08T09:13:03Z</time>
      </trkpt>
      <trkpt lat="44.62407" lon="0.62969">
        <ele>95.79</ele>
        <time>2012-05-08T09:13:16Z</time>
      </trkpt>
      <trkpt lat="44.62395" lon="0.63046">
        <ele>97.23</ele>
        <time>2012-05-08T09:13:31Z</time>
      </trkpt>
      <trkpt lat="44.62385" lon="0.6311">
        <ele>99.63</ele>
        <time>2012-05-08T09:13:44Z</time>
      </trkpt>
      <trkpt lat="44.62392" lon="0.63174">
        <ele>101.08</ele>
        <time>2012-05-08T09:13:57Z</time>
      </trkpt>
      <trkpt lat="44.62402" lon="0.63203">
        <ele>102.04</ele>
        <time>2012-05-08T09:14:03Z</time>
      </trkpt>
      <trkpt lat="44.62404" lon="0.63208">
        <ele>102.04</ele>
        <time>2012-05-08T09:14:04Z</time>
      </trkpt>
      <trkpt lat="44.62406" lon="0.63213">
        <ele>102.04</ele>
        <time>2012-05-08T09:14:05Z</time>
      </trkpt>
      <trkpt lat="44.62408" lon="0.63218">
        <ele>102.04</ele>
        <time>2012-05-08T09:14:06Z</time>
      </trkpt>
      <trkpt lat="44.6241" lon="0.63223">
        <ele>102.52</ele>
        <time>2012-05-08T09:14:07Z</time>
      </trkpt>
      <trkpt lat="44.62441" lon="0.63298">
        <ele>104.44</ele>
        <time>2012-05-08T09:14:23Z</time>
      </trkpt>
      <trkpt lat="44.62447" lon="0.63312">
        <ele>104.44</ele>
        <time>2012-05-08T09:14:26Z</time>
      </trkpt>
      <trkpt lat="44.62473" lon="0.63379">
        <ele>104.92</ele>
        <time>2012-05-08T09:14:40Z</time>
      </trkpt>
      <trkpt lat="44.62484" lon="0.63405">
        <ele>104.44</ele>
        <time>2012-05-08T09:14:45Z</time>
      </trkpt>
      <trkpt lat="44.62485" lon="0.63411">
        <ele>103.96</ele>
        <time>2012-05-08T09:14:46Z</time>
      </trkpt>
      <trkpt lat="44.62485" lon="0.63418">
        <ele>103.48</ele>
        <time>2012-05-08T09:14:47Z</time>
      </trkpt>
      <trkpt lat="44.62485" lon="0.63426">
        <ele>102.52</ele>
        <time>2012-05-08T09:14:48Z</time>
      </trkpt>
      <trkpt lat="44.62473" lon="0.63555">
        <ele>96.27</ele>
        <time>2012-05-08T09:15:02Z</time>
      </trkpt>
      <trkpt lat="44.62468" lon="0.63598">
        <ele>94.35</ele>
        <time>2012-05-08T09:15:07Z</time>
      </trkpt>
      <trkpt lat="44.62457" lon="0.63628">
        <ele>93.39</ele>
        <time>2012-05-08T09:15:11Z</time>
      </trkpt>
      <trkpt lat="44.62447" lon="0.63648">
        <ele>92.9</ele>
        <time>2012-05-08T09:15:14Z</time>
      </trkpt>
      <trkpt lat="44.62399" lon="0.63738">
        <ele>90.98</ele>
        <time>2012-05-08T09:15:27Z</time>
      </trkpt>
      <trkpt lat="44.62343" lon="0.6384">
        <ele>85.21</ele>
        <time>2012-05-08T09:15:40Z</time>
      </trkpt>
      <trkpt lat="44.62296" lon="0.63937">
        <ele>83.29</ele>
        <time>2012-05-08T09:15:53Z</time>
      </trkpt>
      <trkpt lat="44.62251" lon="0.64034">
        <ele>85.69</ele>
        <time>2012-05-08T09:16:08Z</time>
      </trkpt>
      <trkpt lat="44.62221" lon="0.64091">
        <ele>84.73</ele>
        <time>2012-05-08T09:16:17Z</time>
      </trkpt>
      <trkpt lat="44.62183" lon="0.64186">
        <ele>86.66</ele>
        <time>2012-05-08T09:16:32Z</time>
      </trkpt>
      <trkpt lat="44.62165" lon="0.64219">
        <ele>86.66</ele>
        <time>2012-05-08T09:16:38Z</time>
      </trkpt>
      <trkpt lat="44.6214" lon="0.64269">
        <ele>88.1</ele>
        <time>2012-05-08T09:16:47Z</time>
      </trkpt>
      <trkpt lat="44.62094" lon="0.64354">
        <ele>87.14</ele>
        <time>2012-05-08T09:17:04Z</time>
      </trkpt>
      <trkpt lat="44.62086" lon="0.64392">
        <ele>88.1</ele>
        <time>2012-05-08T09:17:15Z</time>
      </trkpt>
      <trkpt lat="44.62081" lon="0.64423">
        <ele>89.06</ele>
        <time>2012-05-08T09:17:26Z</time>
      </trkpt>
      <trkpt lat="44.62075" lon="0.64471">
        <ele>89.54</ele>
        <time>2012-05-08T09:17:39Z</time>
      </trkpt>
      <trkpt lat="44.62068" lon="0.64518">
        <ele>90.02</ele>
        <time>2012-05-08T09:17:51Z</time>
      </trkpt>
      <trkpt lat="44.62065" lon="0.64565">
        <ele>91.46</ele>
        <time>2012-05-08T09:18:04Z</time>
      </trkpt>
      <trkpt lat="44.62064" lon="0.64619">
        <ele>91.94</ele>
        <time>2012-05-08T09:18:19Z</time>
      </trkpt>
      <trkpt lat="44.62055" lon="0.64661">
        <ele>93.87</ele>
        <time>2012-05-08T09:18:30Z</time>
      </trkpt>
      <trkpt lat="44.62042" lon="0.64714">
        <ele>101.56</ele>
        <time>2012-05-08T09:18:41Z</time>
      </trkpt>
      <trkpt lat="44.62038" lon="0.64732">
        <ele>102.04</ele>
        <time>2012-05-08T09:18:44Z</time>
      </trkpt>
      <trkpt lat="44.62055" lon="0.64795">
        <ele>101.56</ele>
        <time>2012-05-08T09:18:53Z</time>
      </trkpt>
      <trkpt lat="44.6211" lon="0.64861">
        <ele>95.79</ele>
        <time>2012-05-08T09:19:05Z</time>
      </trkpt>
      <trkpt lat="44.62124" lon="0.64869">
        <ele>94.83</ele>
        <time>2012-05-08T09:19:08Z</time>
      </trkpt>
      <trkpt lat="44.62167" lon="0.64892">
        <ele>96.75</ele>
        <time>2012-05-08T09:19:21Z</time>
      </trkpt>
      <trkpt lat="44.62209" lon="0.64927">
        <ele>96.27</ele>
        <time>2012-05-08T09:19:36Z</time>
      </trkpt>
      <trkpt lat="44.62249" lon="0.64964">
        <ele>97.71</ele>
        <time>2012-05-08T09:19:51Z</time>
      </trkpt>
      <trkpt lat="44.62275" lon="0.6499">
        <ele>99.63</ele>
        <time>2012-05-08T09:20:03Z</time>
      </trkpt>
      <trkpt lat="44.62297" lon="0.65011">
        <ele>103</ele>
        <time>2012-05-08T09:20:15Z</time>
      </trkpt>
      <trkpt lat="44.623" lon="0.65026">
        <ele>104.44</ele>
        <time>2012-05-08T09:20:22Z</time>
      </trkpt>
      <trkpt lat="44.62299" lon="0.65029">
        <ele>104.44</ele>
        <time>2012-05-08T09:20:23Z</time>
      </trkpt>
      <trkpt lat="44.62298" lon="0.65031">
        <ele>104.44</ele>
        <time>2012-05-08T09:20:24Z</time>
      </trkpt>
      <trkpt lat="44.62297" lon="0.65034">
        <ele>104.44</ele>
        <time>2012-05-08T09:20:25Z</time>
      </trkpt>
      <trkpt lat="44.62295" lon="0.65037">
        <ele>104.44</ele>
        <time>2012-05-08T09:20:26Z</time>
      </trkpt>
      <trkpt lat="44.62294" lon="0.6504">
        <ele>104.44</ele>
        <time>2012-05-08T09:20:27Z</time>
      </trkpt>
      <trkpt lat="44.62293" lon="0.65043">
        <ele>103.96</ele>
        <time>2012-05-08T09:20:28Z</time>
      </trkpt>
      <trkpt lat="44.62291" lon="0.65048">
        <ele>104.44</ele>
        <time>2012-05-08T09:20:30Z</time>
      </trkpt>
      <trkpt lat="44.62289" lon="0.6505">
        <ele>104.44</ele>
        <time>2012-05-08T09:20:31Z</time>
      </trkpt>
      <trkpt lat="44.62287" lon="0.65052">
        <ele>103.96</ele>
        <time>2012-05-08T09:20:32Z</time>
      </trkpt>
      <trkpt lat="44.62286" lon="0.65055">
        <ele>103.48</ele>
        <time>2012-05-08T09:20:33Z</time>
      </trkpt>
      <trkpt lat="44.62285" lon="0.65059">
        <ele>103.48</ele>
        <time>2012-05-08T09:20:34Z</time>
      </trkpt>
      <trkpt lat="44.62286" lon="0.65063">
        <ele>103.48</ele>
        <time>2012-05-08T09:20:35Z</time>
      </trkpt>
      <trkpt lat="44.62287" lon="0.65068">
        <ele>103.48</ele>
        <time>2012-05-08T09:20:36Z</time>
      </trkpt>
      <trkpt lat="44.62289" lon="0.65072">
        <ele>103.48</ele>
        <time>2012-05-08T09:20:37Z</time>
      </trkpt>
      <trkpt lat="44.62291" lon="0.65076">
        <ele>103</ele>
        <time>2012-05-08T09:20:38Z</time>
      </trkpt>
      <trkpt lat="44.6231" lon="0.65116">
        <ele>102.52</ele>
        <time>2012-05-08T09:20:47Z</time>
      </trkpt>
      <trkpt lat="44.62311" lon="0.65123">
        <ele>102.52</ele>
        <time>2012-05-08T09:20:48Z</time>
      </trkpt>
      <trkpt lat="44.62312" lon="0.6513">
        <ele>102.04</ele>
        <time>2012-05-08T09:20:49Z</time>
      </trkpt>
      <trkpt lat="44.62313" lon="0.65137">
        <ele>101.56</ele>
        <time>2012-05-08T09:20:50Z</time>
      </trkpt>
      <trkpt lat="44.62313" lon="0.65146">
        <ele>100.6</ele>
        <time>2012-05-08T09:20:51Z</time>
      </trkpt>
      <trkpt lat="44.62314" lon="0.65155">
        <ele>100.11</ele>
        <time>2012-05-08T09:20:52Z</time>
      </trkpt>
      <trkpt lat="44.62316" lon="0.65279">
        <ele>96.27</ele>
        <time>2012-05-08T09:21:04Z</time>
      </trkpt>
      <trkpt lat="44.62318" lon="0.6539">
        <ele>98.19</ele>
        <time>2012-05-08T09:21:18Z</time>
      </trkpt>
      <trkpt lat="44.6232" lon="0.65489">
        <ele>99.63</ele>
        <time>2012-05-08T09:21:32Z</time>
      </trkpt>
      <trkpt lat="44.62321" lon="0.65508">
        <ele>100.11</ele>
        <time>2012-05-08T09:21:35Z</time>
      </trkpt>
      <trkpt lat="44.62321" lon="0.6552">
        <ele>100.11</ele>
        <time>2012-05-08T09:21:37Z</time>
      </trkpt>
      <trkpt lat="44.62321" lon="0.65525">
        <ele>100.6</ele>
        <time>2012-05-08T09:21:38Z</time>
      </trkpt>
      <trkpt lat="44.62337" lon="0.65585">
        <ele>103.48</ele>
        <time>2012-05-08T09:21:51Z</time>
      </trkpt>
      <trkpt lat="44.62383" lon="0.65659">
        <ele>105.88</ele>
        <time>2012-05-08T09:22:09Z</time>
      </trkpt>
      <trkpt lat="44.62417" lon="0.65734">
        <ele>109.73</ele>
        <time>2012-05-08T09:22:26Z</time>
      </trkpt>
      <trkpt lat="44.62417" lon="0.658">
        <ele>112.13</ele>
        <time>2012-05-08T09:22:39Z</time>
      </trkpt>
      <trkpt lat="44.62438" lon="0.65861">
        <ele>114.53</ele>
        <time>2012-05-08T09:22:53Z</time>
      </trkpt>
      <trkpt lat="44.62473" lon="0.65894">
        <ele>117.42</ele>
        <time>2012-05-08T09:23:07Z</time>
      </trkpt>
      <trkpt lat="44.62514" lon="0.65933">
        <ele>122.22</ele>
        <time>2012-05-08T09:23:24Z</time>
      </trkpt>
      <trkpt lat="44.62514" lon="0.65937">
        <ele>123.19</ele>
        <time>2012-05-08T09:23:25Z</time>
      </trkpt>
      <trkpt lat="44.62513" lon="0.65941">
        <ele>123.67</ele>
        <time>2012-05-08T09:23:26Z</time>
      </trkpt>
      <trkpt lat="44.62511" lon="0.65945">
        <ele>123.67</ele>
        <time>2012-05-08T09:23:27Z</time>
      </trkpt>
      <trkpt lat="44.62508" lon="0.65949">
        <ele>124.15</ele>
        <time>2012-05-08T09:23:28Z</time>
      </trkpt>
      <trkpt lat="44.62468" lon="0.66">
        <ele>125.59</ele>
        <time>2012-05-08T09:23:42Z</time>
      </trkpt>
      <trkpt lat="44.62433" lon="0.66046">
        <ele>127.03</ele>
        <time>2012-05-08T09:23:55Z</time>
      </trkpt>
      <trkpt lat="44.62415" lon="0.66076">
        <ele>127.99</ele>
        <time>2012-05-08T09:24:03Z</time>
      </trkpt>
      <trkpt lat="44.62412" lon="0.66077">
        <ele>128.47</ele>
        <time>2012-05-08T09:24:04Z</time>
      </trkpt>
      <trkpt lat="44.6241" lon="0.66077">
        <ele>128.47</ele>
        <time>2012-05-08T09:24:05Z</time>
      </trkpt>
      <trkpt lat="44.62383" lon="0.66077">
        <ele>129.43</ele>
        <time>2012-05-08T09:24:18Z</time>
      </trkpt>
      <trkpt lat="44.62359" lon="0.66084">
        <ele>131.84</ele>
        <time>2012-05-08T09:24:31Z</time>
      </trkpt>
      <trkpt lat="44.62358" lon="0.66084">
        <ele>131.84</ele>
        <time>2012-05-08T09:24:32Z</time>
      </trkpt>
      <trkpt lat="44.62357" lon="0.66085">
        <ele>131.84</ele>
        <time>2012-05-08T09:24:33Z</time>
      </trkpt>
      <trkpt lat="44.62356" lon="0.66086">
        <ele>131.84</ele>
        <time>2012-05-08T09:24:34Z</time>
      </trkpt>
      <trkpt lat="44.62355" lon="0.66087">
        <ele>131.84</ele>
        <time>2012-05-08T09:24:35Z</time>
      </trkpt>
      <trkpt lat="44.62339" lon="0.66108">
        <ele>138.09</ele>
        <time>2012-05-08T09:24:49Z</time>
      </trkpt>
      <trkpt lat="44.62325" lon="0.66126">
        <ele>141.93</ele>
        <time>2012-05-08T09:25:01Z</time>
      </trkpt>
      <trkpt lat="44.62309" lon="0.66142">
        <ele>143.85</ele>
        <time>2012-05-08T09:25:16Z</time>
      </trkpt>
      <trkpt lat="44.62298" lon="0.66152">
        <ele>145.78</ele>
        <time>2012-05-08T09:25:26Z</time>
      </trkpt>
      <trkpt lat="44.62296" lon="0.66155">
        <ele>145.3</ele>
        <time>2012-05-08T09:25:28Z</time>
      </trkpt>
      <trkpt lat="44.62295" lon="0.66156">
        <ele>145.78</ele>
        <time>2012-05-08T09:25:29Z</time>
      </trkpt>
      <trkpt lat="44.62294" lon="0.66157">
        <ele>145.3</ele>
        <time>2012-05-08T09:25:30Z</time>
      </trkpt>
      <trkpt lat="44.6227" lon="0.66179">
        <ele>146.26</ele>
        <time>2012-05-08T09:25:46Z</time>
      </trkpt>
      <trkpt lat="44.62252" lon="0.662">
        <ele>147.7</ele>
        <time>2012-05-08T09:25:59Z</time>
      </trkpt>
      <trkpt lat="44.62234" lon="0.66219">
        <ele>149.62</ele>
        <time>2012-05-08T09:26:13Z</time>
      </trkpt>
      <trkpt lat="44.62221" lon="0.66242">
        <ele>151.54</ele>
        <time>2012-05-08T09:26:25Z</time>
      </trkpt>
      <trkpt lat="44.62207" lon="0.66282">
        <ele>153.95</ele>
        <time>2012-05-08T09:26:37Z</time>
      </trkpt>
      <trkpt lat="44.62185" lon="0.66343">
        <ele>157.79</ele>
        <time>2012-05-08T09:26:53Z</time>
      </trkpt>
      <trkpt lat="44.62144" lon="0.66406">
        <ele>156.35</ele>
        <time>2012-05-08T09:27:09Z</time>
      </trkpt>
      <trkpt lat="44.6212" lon="0.66444">
        <ele>156.35</ele>
        <time>2012-05-08T09:27:18Z</time>
      </trkpt>
      <trkpt lat="44.62118" lon="0.66449">
        <ele>156.35</ele>
        <time>2012-05-08T09:27:19Z</time>
      </trkpt>
      <trkpt lat="44.6209" lon="0.66487">
        <ele>157.31</ele>
        <time>2012-05-08T09:27:28Z</time>
      </trkpt>
      <trkpt lat="44.62088" lon="0.66492">
        <ele>157.31</ele>
        <time>2012-05-08T09:27:29Z</time>
      </trkpt>
      <trkpt lat="44.62084" lon="0.66496">
        <ele>157.31</ele>
        <time>2012-05-08T09:27:30Z</time>
      </trkpt>
      <trkpt lat="44.62081" lon="0.66499">
        <ele>157.31</ele>
        <time>2012-05-08T09:27:31Z</time>
      </trkpt>
      <trkpt lat="44.62077" lon="0.66502">
        <ele>157.31</ele>
        <time>2012-05-08T09:27:32Z</time>
      </trkpt>
      <trkpt lat="44.62073" lon="0.66505">
        <ele>156.83</ele>
        <time>2012-05-08T09:27:33Z</time>
      </trkpt>
      <trkpt lat="44.6207" lon="0.66509">
        <ele>156.35</ele>
        <time>2012-05-08T09:27:34Z</time>
      </trkpt>
      <trkpt lat="44.62026" lon="0.6656">
        <ele>158.27</ele>
        <time>2012-05-08T09:27:47Z</time>
      </trkpt>
      <trkpt lat="44.61976" lon="0.66602">
        <ele>158.75</ele>
        <time>2012-05-08T09:28:00Z</time>
      </trkpt>
      <trkpt lat="44.61972" lon="0.66605">
        <ele>158.75</ele>
        <time>2012-05-08T09:28:01Z</time>
      </trkpt>
      <trkpt lat="44.61958" lon="0.66617">
        <ele>159.24</ele>
        <time>2012-05-08T09:28:04Z</time>
      </trkpt>
      <trkpt lat="44.61954" lon="0.6662">
        <ele>158.75</ele>
        <time>2012-05-08T09:28:05Z</time>
      </trkpt>
      <trkpt lat="44.61926" lon="0.66642">
        <ele>158.27</ele>
        <time>2012-05-08T09:28:11Z</time>
      </trkpt>
      <trkpt lat="44.61855" lon="0.66679">
        <ele>157.79</ele>
        <time>2012-05-08T09:28:25Z</time>
      </trkpt>
      <trkpt lat="44.61836" lon="0.66687">
        <ele>158.27</ele>
        <time>2012-05-08T09:28:29Z</time>
      </trkpt>
      <trkpt lat="44.61772" lon="0.66711">
        <ele>158.27</ele>
        <time>2012-05-08T09:28:44Z</time>
      </trkpt>
      <trkpt lat="44.61764" lon="0.66715">
        <ele>157.79</ele>
        <time>2012-05-08T09:28:48Z</time>
      </trkpt>
      <trkpt lat="44.61763" lon="0.66717">
        <ele>157.79</ele>
        <time>2012-05-08T09:28:49Z</time>
      </trkpt>
      <trkpt lat="44.61764" lon="0.66723">
        <ele>158.27</ele>
        <time>2012-05-08T09:28:51Z</time>
      </trkpt>
      <trkpt lat="44.61765" lon="0.66726">
        <ele>158.27</ele>
        <time>2012-05-08T09:28:52Z</time>
      </trkpt>
      <trkpt lat="44.61767" lon="0.66729">
        <ele>158.27</ele>
        <time>2012-05-08T09:28:53Z</time>
      </trkpt>
      <trkpt lat="44.61769" lon="0.66733">
        <ele>158.75</ele>
        <time>2012-05-08T09:28:54Z</time>
      </trkpt>
      <trkpt lat="44.61772" lon="0.66736">
        <ele>158.27</ele>
        <time>2012-05-08T09:28:55Z</time>
      </trkpt>
      <trkpt lat="44.61776" lon="0.66739">
        <ele>158.27</ele>
        <time>2012-05-08T09:28:56Z</time>
      </trkpt>
      <trkpt lat="44.61803" lon="0.66765">
        <ele>155.87</ele>
        <time>2012-05-08T09:29:04Z</time>
      </trkpt>
      <trkpt lat="44.6181" lon="0.66773">
        <ele>154.91</ele>
        <time>2012-05-08T09:29:06Z</time>
      </trkpt>
      <trkpt lat="44.61814" lon="0.66776">
        <ele>153.95</ele>
        <time>2012-05-08T09:29:07Z</time>
      </trkpt>
      <trkpt lat="44.61854" lon="0.66802">
        <ele>140.01</ele>
        <time>2012-05-08T09:29:18Z</time>
      </trkpt>
      <trkpt lat="44.61883" lon="0.66824">
        <ele>130.4</ele>
        <time>2012-05-08T09:29:24Z</time>
      </trkpt>
      <trkpt lat="44.61889" lon="0.66829">
        <ele>128.95</ele>
        <time>2012-05-08T09:29:25Z</time>
      </trkpt>
      <trkpt lat="44.61906" lon="0.66847">
        <ele>123.67</ele>
        <time>2012-05-08T09:29:28Z</time>
      </trkpt>
      <trkpt lat="44.61911" lon="0.66854">
        <ele>122.22</ele>
        <time>2012-05-08T09:29:29Z</time>
      </trkpt>
      <trkpt lat="44.61916" lon="0.6686">
        <ele>120.78</ele>
        <time>2012-05-08T09:29:30Z</time>
      </trkpt>
      <trkpt lat="44.6192" lon="0.66866">
        <ele>119.34</ele>
        <time>2012-05-08T09:29:31Z</time>
      </trkpt>
      <trkpt lat="44.61923" lon="0.66873">
        <ele>117.9</ele>
        <time>2012-05-08T09:29:32Z</time>
      </trkpt>
      <trkpt lat="44.61925" lon="0.6688">
        <ele>116.94</ele>
        <time>2012-05-08T09:29:33Z</time>
      </trkpt>
      <trkpt lat="44.61927" lon="0.66887">
        <ele>115.98</ele>
        <time>2012-05-08T09:29:34Z</time>
      </trkpt>
      <trkpt lat="44.61933" lon="0.66923">
        <ele>112.61</ele>
        <time>2012-05-08T09:29:39Z</time>
      </trkpt>
      <trkpt lat="44.61935" lon="0.66931">
        <ele>111.65</ele>
        <time>2012-05-08T09:29:40Z</time>
      </trkpt>
      <trkpt lat="44.61949" lon="0.67049">
        <ele>106.84</ele>
        <time>2012-05-08T09:29:52Z</time>
      </trkpt>
      <trkpt lat="44.61951" lon="0.67069">
        <ele>106.36</ele>
        <time>2012-05-08T09:29:54Z</time>
      </trkpt>
      <trkpt lat="44.61954" lon="0.67077">
        <ele>105.88</ele>
        <time>2012-05-08T09:29:55Z</time>
      </trkpt>
      <trkpt lat="44.61958" lon="0.67084">
        <ele>105.88</ele>
        <time>2012-05-08T09:29:56Z</time>
      </trkpt>
      <trkpt lat="44.61963" lon="0.67091">
        <ele>105.88</ele>
        <time>2012-05-08T09:29:57Z</time>
      </trkpt>
      <trkpt lat="44.61968" lon="0.67097">
        <ele>105.4</ele>
        <time>2012-05-08T09:29:58Z</time>
      </trkpt>
      <trkpt lat="44.62037" lon="0.67164">
        <ele>102.52</ele>
        <time>2012-05-08T09:30:09Z</time>
      </trkpt>
      <trkpt lat="44.62052" lon="0.67184">
        <ele>102.52</ele>
        <time>2012-05-08T09:30:12Z</time>
      </trkpt>
      <trkpt lat="44.62056" lon="0.67191">
        <ele>102.52</ele>
        <time>2012-05-08T09:30:13Z</time>
      </trkpt>
      <trkpt lat="44.62064" lon="0.67206">
        <ele>102.52</ele>
        <time>2012-05-08T09:30:15Z</time>
      </trkpt>
      <trkpt lat="44.62067" lon="0.67214">
        <ele>102.52</ele>
        <time>2012-05-08T09:30:16Z</time>
      </trkpt>
      <trkpt lat="44.62084" lon="0.67248">
        <ele>103</ele>
        <time>2012-05-08T09:30:21Z</time>
      </trkpt>
      <trkpt lat="44.62142" lon="0.67359">
        <ele>104.44</ele>
        <time>2012-05-08T09:30:38Z</time>
      </trkpt>
      <trkpt lat="44.62159" lon="0.67397">
        <ele>104.92</ele>
        <time>2012-05-08T09:30:44Z</time>
      </trkpt>
      <trkpt lat="44.62159" lon="0.67403">
        <ele>104.92</ele>
        <time>2012-05-08T09:30:45Z</time>
      </trkpt>
      <trkpt lat="44.62157" lon="0.67409">
        <ele>105.4</ele>
        <time>2012-05-08T09:30:46Z</time>
      </trkpt>
      <trkpt lat="44.62153" lon="0.67413">
        <ele>104.92</ele>
        <time>2012-05-08T09:30:47Z</time>
      </trkpt>
      <trkpt lat="44.6215" lon="0.67418">
        <ele>104.92</ele>
        <time>2012-05-08T09:30:48Z</time>
      </trkpt>
      <trkpt lat="44.62147" lon="0.67424">
        <ele>104.44</ele>
        <time>2012-05-08T09:30:49Z</time>
      </trkpt>
      <trkpt lat="44.62108" lon="0.67503">
        <ele>102.52</ele>
        <time>2012-05-08T09:31:04Z</time>
      </trkpt>
      <trkpt lat="44.62084" lon="0.67553">
        <ele>101.08</ele>
        <time>2012-05-08T09:31:13Z</time>
      </trkpt>
      <trkpt lat="44.62057" lon="0.67621">
        <ele>97.23</ele>
        <time>2012-05-08T09:31:26Z</time>
      </trkpt>
      <trkpt lat="44.62058" lon="0.67654">
        <ele>96.27</ele>
        <time>2012-05-08T09:31:32Z</time>
      </trkpt>
      <trkpt lat="44.62059" lon="0.67666">
        <ele>96.27</ele>
        <time>2012-05-08T09:31:34Z</time>
      </trkpt>
      <trkpt lat="44.62066" lon="0.67773">
        <ele>94.35</ele>
        <time>2012-05-08T09:31:50Z</time>
      </trkpt>
      <trkpt lat="44.6207" lon="0.67871">
        <ele>93.39</ele>
        <time>2012-05-08T09:32:06Z</time>
      </trkpt>
      <trkpt lat="44.62071" lon="0.67929">
        <ele>93.39</ele>
        <time>2012-05-08T09:32:17Z</time>
      </trkpt>
      <trkpt lat="44.62071" lon="0.67959">
        <ele>92.42</ele>
        <time>2012-05-08T09:32:22Z</time>
      </trkpt>
      <trkpt lat="44.62071" lon="0.67983">
        <ele>92.9</ele>
        <time>2012-05-08T09:32:26Z</time>
      </trkpt>
      <trkpt lat="44.62071" lon="0.67994">
        <ele>93.39</ele>
        <time>2012-05-08T09:32:28Z</time>
      </trkpt>
      <trkpt lat="44.6207" lon="0.67999">
        <ele>93.87</ele>
        <time>2012-05-08T09:32:29Z</time>
      </trkpt>
      <trkpt lat="44.6207" lon="0.68005">
        <ele>93.87</ele>
        <time>2012-05-08T09:32:30Z</time>
      </trkpt>
      <trkpt lat="44.62068" lon="0.68078">
        <ele>95.79</ele>
        <time>2012-05-08T09:32:42Z</time>
      </trkpt>
      <trkpt lat="44.62072" lon="0.68146">
        <ele>97.71</ele>
        <time>2012-05-08T09:32:54Z</time>
      </trkpt>
      <trkpt lat="44.62085" lon="0.68212">
        <ele>99.15</ele>
        <time>2012-05-08T09:33:08Z</time>
      </trkpt>
      <trkpt lat="44.621" lon="0.68269">
        <ele>101.08</ele>
        <time>2012-05-08T09:33:23Z</time>
      </trkpt>
      <trkpt lat="44.62112" lon="0.6832">
        <ele>104.44</ele>
        <time>2012-05-08T09:33:37Z</time>
      </trkpt>
      <trkpt lat="44.62115" lon="0.6833">
        <ele>104.92</ele>
        <time>2012-05-08T09:33:40Z</time>
      </trkpt>
      <trkpt lat="44.62116" lon="0.68334">
        <ele>104.92</ele>
        <time>2012-05-08T09:33:41Z</time>
      </trkpt>
      <trkpt lat="44.62121" lon="0.68369">
        <ele>107.32</ele>
        <time>2012-05-08T09:33:54Z</time>
      </trkpt>
      <trkpt lat="44.62123" lon="0.68383">
        <ele>108.77</ele>
        <time>2012-05-08T09:33:59Z</time>
      </trkpt>
      <trkpt lat="44.62124" lon="0.68386">
        <ele>108.77</ele>
        <time>2012-05-08T09:34:00Z</time>
      </trkpt>
      <trkpt lat="44.62125" lon="0.68389">
        <ele>109.25</ele>
        <time>2012-05-08T09:34:01Z</time>
      </trkpt>
      <trkpt lat="44.62125" lon="0.68392">
        <ele>109.73</ele>
        <time>2012-05-08T09:34:02Z</time>
      </trkpt>
      <trkpt lat="44.62125" lon="0.68395">
        <ele>110.21</ele>
        <time>2012-05-08T09:34:03Z</time>
      </trkpt>
      <trkpt lat="44.62126" lon="0.68399">
        <ele>110.69</ele>
        <time>2012-05-08T09:34:04Z</time>
      </trkpt>
      <trkpt lat="44.62126" lon="0.68402">
        <ele>111.17</ele>
        <time>2012-05-08T09:34:05Z</time>
      </trkpt>
      <trkpt lat="44.62127" lon="0.68405">
        <ele>111.65</ele>
        <time>2012-05-08T09:34:06Z</time>
      </trkpt>
      <trkpt lat="44.62134" lon="0.68455">
        <ele>113.57</ele>
        <time>2012-05-08T09:34:21Z</time>
      </trkpt>
      <trkpt lat="44.62135" lon="0.68457">
        <ele>113.57</ele>
        <time>2012-05-08T09:34:22Z</time>
      </trkpt>
      <trkpt lat="44.62135" lon="0.6846">
        <ele>113.57</ele>
        <time>2012-05-08T09:34:23Z</time>
      </trkpt>
      <trkpt lat="44.62135" lon="0.68463">
        <ele>113.57</ele>
        <time>2012-05-08T09:34:24Z</time>
      </trkpt>
      <trkpt lat="44.62136" lon="0.68466">
        <ele>113.57</ele>
        <time>2012-05-08T09:34:25Z</time>
      </trkpt>
      <trkpt lat="44.62137" lon="0.68469">
        <ele>114.05</ele>
        <time>2012-05-08T09:34:26Z</time>
      </trkpt>
      <trkpt lat="44.62137" lon="0.68473">
        <ele>114.05</ele>
        <time>2012-05-08T09:34:27Z</time>
      </trkpt>
      <trkpt lat="44.62138" lon="0.68476">
        <ele>114.53</ele>
        <time>2012-05-08T09:34:28Z</time>
      </trkpt>
      <trkpt lat="44.62145" lon="0.68521">
        <ele>114.53</ele>
        <time>2012-05-08T09:34:41Z</time>
      </trkpt>
      <trkpt lat="44.62147" lon="0.68578">
        <ele>111.65</ele>
        <time>2012-05-08T09:34:53Z</time>
      </trkpt>
      <trkpt lat="44.62148" lon="0.68613">
        <ele>111.65</ele>
        <time>2012-05-08T09:35:02Z</time>
      </trkpt>
      <trkpt lat="44.62149" lon="0.6868">
        <ele>109.73</ele>
        <time>2012-05-08T09:35:16Z</time>
      </trkpt>
      <trkpt lat="44.62163" lon="0.68724">
        <ele>108.29</ele>
        <time>2012-05-08T09:35:27Z</time>
      </trkpt>
      <trkpt lat="44.62181" lon="0.6876">
        <ele>108.29</ele>
        <time>2012-05-08T09:35:38Z</time>
      </trkpt>
      <trkpt lat="44.62187" lon="0.68798">
        <ele>112.61</ele>
        <time>2012-05-08T09:35:48Z</time>
      </trkpt>
      <trkpt lat="44.62185" lon="0.688">
        <ele>112.13</ele>
        <time>2012-05-08T09:35:49Z</time>
      </trkpt>
      <trkpt lat="44.62184" lon="0.68803">
        <ele>112.61</ele>
        <time>2012-05-08T09:35:50Z</time>
      </trkpt>
      <trkpt lat="44.62168" lon="0.68836">
        <ele>114.05</ele>
        <time>2012-05-08T09:36:00Z</time>
      </trkpt>
      <trkpt lat="44.62145" lon="0.68875">
        <ele>113.57</ele>
        <time>2012-05-08T09:36:13Z</time>
      </trkpt>
      <trkpt lat="44.62127" lon="0.68908">
        <ele>114.05</ele>
        <time>2012-05-08T09:36:24Z</time>
      </trkpt>
      <trkpt lat="44.62112" lon="0.68944">
        <ele>115.98</ele>
        <time>2012-05-08T09:36:36Z</time>
      </trkpt>
      <trkpt lat="44.62096" lon="0.68983">
        <ele>119.34</ele>
        <time>2012-05-08T09:36:48Z</time>
      </trkpt>
      <trkpt lat="44.6208" lon="0.69024">
        <ele>120.78</ele>
        <time>2012-05-08T09:37:01Z</time>
      </trkpt>
      <trkpt lat="44.62065" lon="0.69058">
        <ele>122.22</ele>
        <time>2012-05-08T09:37:13Z</time>
      </trkpt>
      <trkpt lat="44.6205" lon="0.69102">
        <ele>125.59</ele>
        <time>2012-05-08T09:37:27Z</time>
      </trkpt>
      <trkpt lat="44.6204" lon="0.69132">
        <ele>124.15</ele>
        <time>2012-05-08T09:37:35Z</time>
      </trkpt>
      <trkpt lat="44.62037" lon="0.69134">
        <ele>123.67</ele>
        <time>2012-05-08T09:37:36Z</time>
      </trkpt>
      <trkpt lat="44.62034" lon="0.69134">
        <ele>123.19</ele>
        <time>2012-05-08T09:37:37Z</time>
      </trkpt>
      <trkpt lat="44.62031" lon="0.69133">
        <ele>122.22</ele>
        <time>2012-05-08T09:37:38Z</time>
      </trkpt>
      <trkpt lat="44.62028" lon="0.69132">
        <ele>121.74</ele>
        <time>2012-05-08T09:37:39Z</time>
      </trkpt>
      <trkpt lat="44.62013" lon="0.69125">
        <ele>120.3</ele>
        <time>2012-05-08T09:37:43Z</time>
      </trkpt>
      <trkpt lat="44.62001" lon="0.69118">
        <ele>120.3</ele>
        <time>2012-05-08T09:37:46Z</time>
      </trkpt>
      <trkpt lat="44.61975" lon="0.69109">
        <ele>119.82</ele>
        <time>2012-05-08T09:37:52Z</time>
      </trkpt>
      <trkpt lat="44.61931" lon="0.69091">
        <ele>117.42</ele>
        <time>2012-05-08T09:38:02Z</time>
      </trkpt>
      <trkpt lat="44.61922" lon="0.69089">
        <ele>116.94</ele>
        <time>2012-05-08T09:38:04Z</time>
      </trkpt>
      <trkpt lat="44.61917" lon="0.69087">
        <ele>116.46</ele>
        <time>2012-05-08T09:38:05Z</time>
      </trkpt>
      <trkpt lat="44.61912" lon="0.69087">
        <ele>116.46</ele>
        <time>2012-05-08T09:38:06Z</time>
      </trkpt>
      <trkpt lat="44.61867" lon="0.69089">
        <ele>114.53</ele>
        <time>2012-05-08T09:38:15Z</time>
      </trkpt>
      <trkpt lat="44.61862" lon="0.69089">
        <ele>114.53</ele>
        <time>2012-05-08T09:38:16Z</time>
      </trkpt>
      <trkpt lat="44.61858" lon="0.69089">
        <ele>115.01</ele>
        <time>2012-05-08T09:38:17Z</time>
      </trkpt>
      <trkpt lat="44.61855" lon="0.69088">
        <ele>115.01</ele>
        <time>2012-05-08T09:38:18Z</time>
      </trkpt>
      <trkpt lat="44.61853" lon="0.69085">
        <ele>115.01</ele>
        <time>2012-05-08T09:38:19Z</time>
      </trkpt>
      <trkpt lat="44.61852" lon="0.6908">
        <ele>115.01</ele>
        <time>2012-05-08T09:38:20Z</time>
      </trkpt>
      <trkpt lat="44.61851" lon="0.69077">
        <ele>114.53</ele>
        <time>2012-05-08T09:38:21Z</time>
      </trkpt>
      <trkpt lat="44.6185" lon="0.69074">
        <ele>114.53</ele>
        <time>2012-05-08T09:38:22Z</time>
      </trkpt>
      <trkpt lat="44.61848" lon="0.69072">
        <ele>114.53</ele>
        <time>2012-05-08T09:38:23Z</time>
      </trkpt>
      <trkpt lat="44.61846" lon="0.69069">
        <ele>114.53</ele>
        <time>2012-05-08T09:38:24Z</time>
      </trkpt>
      <trkpt lat="44.61845" lon="0.69066">
        <ele>114.53</ele>
        <time>2012-05-08T09:38:25Z</time>
      </trkpt>
      <trkpt lat="44.61843" lon="0.69062">
        <ele>114.53</ele>
        <time>2012-05-08T09:38:26Z</time>
      </trkpt>
      <trkpt lat="44.61842" lon="0.69059">
        <ele>114.53</ele>
        <time>2012-05-08T09:38:27Z</time>
      </trkpt>
      <trkpt lat="44.61839" lon="0.69056">
        <ele>114.53</ele>
        <time>2012-05-08T09:38:28Z</time>
      </trkpt>
      <trkpt lat="44.61834" lon="0.69044">
        <ele>114.05</ele>
        <time>2012-05-08T09:38:32Z</time>
      </trkpt>
      <trkpt lat="44.61832" lon="0.69041">
        <ele>114.05</ele>
        <time>2012-05-08T09:38:33Z</time>
      </trkpt>
      <trkpt lat="44.61829" lon="0.69039">
        <ele>114.05</ele>
        <time>2012-05-08T09:38:34Z</time>
      </trkpt>
      <trkpt lat="44.61827" lon="0.69036">
        <ele>114.05</ele>
        <time>2012-05-08T09:38:35Z</time>
      </trkpt>
      <trkpt lat="44.61825" lon="0.69033">
        <ele>113.57</ele>
        <time>2012-05-08T09:38:36Z</time>
      </trkpt>
      <trkpt lat="44.61823" lon="0.69029">
        <ele>113.57</ele>
        <time>2012-05-08T09:38:37Z</time>
      </trkpt>
      <trkpt lat="44.6182" lon="0.69026">
        <ele>113.57</ele>
        <time>2012-05-08T09:38:38Z</time>
      </trkpt>
      <trkpt lat="44.61793" lon="0.68988">
        <ele>113.57</ele>
        <time>2012-05-08T09:38:49Z</time>
      </trkpt>
      <trkpt lat="44.61786" lon="0.68979">
        <ele>113.57</ele>
        <time>2012-05-08T09:38:51Z</time>
      </trkpt>
      <trkpt lat="44.61783" lon="0.68974">
        <ele>113.57</ele>
        <time>2012-05-08T09:38:52Z</time>
      </trkpt>
      <trkpt lat="44.6178" lon="0.6897">
        <ele>113.57</ele>
        <time>2012-05-08T09:38:53Z</time>
      </trkpt>
      <trkpt lat="44.61725" lon="0.68903">
        <ele>112.61</ele>
        <time>2012-05-08T09:39:08Z</time>
      </trkpt>
      <trkpt lat="44.6166" lon="0.68828">
        <ele>106.84</ele>
        <time>2012-05-08T09:39:20Z</time>
      </trkpt>
      <trkpt lat="44.616" lon="0.68767">
        <ele>105.4</ele>
        <time>2012-05-08T09:39:30Z</time>
      </trkpt>
      <trkpt lat="44.61589" lon="0.68758">
        <ele>105.88</ele>
        <time>2012-05-08T09:39:32Z</time>
      </trkpt>
      <trkpt lat="44.61573" lon="0.68746">
        <ele>105.88</ele>
        <time>2012-05-08T09:39:35Z</time>
      </trkpt>
      <trkpt lat="44.61569" lon="0.68741">
        <ele>105.88</ele>
        <time>2012-05-08T09:39:36Z</time>
      </trkpt>
      <trkpt lat="44.61532" lon="0.68687">
        <ele>107.32</ele>
        <time>2012-05-08T09:39:47Z</time>
      </trkpt>
      <trkpt lat="44.61504" lon="0.68645">
        <ele>111.17</ele>
        <time>2012-05-08T09:40:03Z</time>
      </trkpt>
      <trkpt lat="44.61501" lon="0.68641">
        <ele>111.65</ele>
        <time>2012-05-08T09:40:05Z</time>
      </trkpt>
      <trkpt lat="44.615" lon="0.68639">
        <ele>112.13</ele>
        <time>2012-05-08T09:40:06Z</time>
      </trkpt>
      <trkpt lat="44.61498" lon="0.68637">
        <ele>112.61</ele>
        <time>2012-05-08T09:40:07Z</time>
      </trkpt>
      <trkpt lat="44.61497" lon="0.68636">
        <ele>113.09</ele>
        <time>2012-05-08T09:40:08Z</time>
      </trkpt>
      <trkpt lat="44.61495" lon="0.68634">
        <ele>113.57</ele>
        <time>2012-05-08T09:40:09Z</time>
      </trkpt>
      <trkpt lat="44.61493" lon="0.6863">
        <ele>113.57</ele>
        <time>2012-05-08T09:40:11Z</time>
      </trkpt>
      <trkpt lat="44.61492" lon="0.68628">
        <ele>114.05</ele>
        <time>2012-05-08T09:40:12Z</time>
      </trkpt>
      <trkpt lat="44.61491" lon="0.68626">
        <ele>114.05</ele>
        <time>2012-05-08T09:40:13Z</time>
      </trkpt>
      <trkpt lat="44.61483" lon="0.68615">
        <ele>115.5</ele>
        <time>2012-05-08T09:40:20Z</time>
      </trkpt>
      <trkpt lat="44.61482" lon="0.68614">
        <ele>115.98</ele>
        <time>2012-05-08T09:40:21Z</time>
      </trkpt>
      <trkpt lat="44.6148" lon="0.68613">
        <ele>115.98</ele>
        <time>2012-05-08T09:40:22Z</time>
      </trkpt>
      <trkpt lat="44.61479" lon="0.68612">
        <ele>116.46</ele>
        <time>2012-05-08T09:40:23Z</time>
      </trkpt>
      <trkpt lat="44.61479" lon="0.68611">
        <ele>116.46</ele>
        <time>2012-05-08T09:40:24Z</time>
      </trkpt>
      <trkpt lat="44.61478" lon="0.68609">
        <ele>116.94</ele>
        <time>2012-05-08T09:40:25Z</time>
      </trkpt>
      <trkpt lat="44.61477" lon="0.68607">
        <ele>116.94</ele>
        <time>2012-05-08T09:40:26Z</time>
      </trkpt>
      <trkpt lat="44.61476" lon="0.68606">
        <ele>116.94</ele>
        <time>2012-05-08T09:40:27Z</time>
      </trkpt>
      <trkpt lat="44.61475" lon="0.68604">
        <ele>116.94</ele>
        <time>2012-05-08T09:40:28Z</time>
      </trkpt>
      <trkpt lat="44.61475" lon="0.68603">
        <ele>116.94</ele>
        <time>2012-05-08T09:40:29Z</time>
      </trkpt>
      <trkpt lat="44.61474" lon="0.68601">
        <ele>116.94</ele>
        <time>2012-05-08T09:40:30Z</time>
      </trkpt>
      <trkpt lat="44.61473" lon="0.686">
        <ele>116.94</ele>
        <time>2012-05-08T09:40:31Z</time>
      </trkpt>
      <trkpt lat="44.6146" lon="0.68579">
        <ele>119.82</ele>
        <time>2012-05-08T09:40:46Z</time>
      </trkpt>
      <trkpt lat="44.61455" lon="0.68572">
        <ele>122.22</ele>
        <time>2012-05-08T09:40:52Z</time>
      </trkpt>
      <trkpt lat="44.61454" lon="0.68571">
        <ele>122.71</ele>
        <time>2012-05-08T09:40:53Z</time>
      </trkpt>
      <trkpt lat="44.61453" lon="0.68569">
        <ele>123.19</ele>
        <time>2012-05-08T09:40:54Z</time>
      </trkpt>
      <trkpt lat="44.61448" lon="0.68561">
        <ele>124.15</ele>
        <time>2012-05-08T09:41:01Z</time>
      </trkpt>
      <trkpt lat="44.61445" lon="0.6855">
        <ele>126.07</ele>
        <time>2012-05-08T09:41:12Z</time>
      </trkpt>
      <trkpt lat="44.61441" lon="0.68545">
        <ele>130.88</ele>
        <time>2012-05-08T09:41:26Z</time>
      </trkpt>
      <trkpt lat="44.61435" lon="0.6853">
        <ele>133.76</ele>
        <time>2012-05-08T09:41:41Z</time>
      </trkpt>
      <trkpt lat="44.61429" lon="0.6852">
        <ele>139.05</ele>
        <time>2012-05-08T09:41:57Z</time>
      </trkpt>
      <trkpt lat="44.61423" lon="0.68509">
        <ele>140.01</ele>
        <time>2012-05-08T09:42:10Z</time>
      </trkpt>
      <trkpt lat="44.6141" lon="0.68493">
        <ele>144.82</ele>
        <time>2012-05-08T09:42:26Z</time>
      </trkpt>
      <trkpt lat="44.614" lon="0.6848">
        <ele>147.7</ele>
        <time>2012-05-08T09:42:41Z</time>
      </trkpt>
      <trkpt lat="44.61389" lon="0.68465">
        <ele>150.58</ele>
        <time>2012-05-08T09:42:56Z</time>
      </trkpt>
      <trkpt lat="44.61375" lon="0.6845">
        <ele>152.99</ele>
        <time>2012-05-08T09:43:11Z</time>
      </trkpt>
      <trkpt lat="44.61367" lon="0.68439">
        <ele>152.51</ele>
        <time>2012-05-08T09:43:19Z</time>
      </trkpt>
      <trkpt lat="44.61367" lon="0.68437">
        <ele>152.03</ele>
        <time>2012-05-08T09:43:20Z</time>
      </trkpt>
      <trkpt lat="44.61367" lon="0.68433">
        <ele>152.03</ele>
        <time>2012-05-08T09:43:22Z</time>
      </trkpt>
      <trkpt lat="44.61368" lon="0.68432">
        <ele>152.03</ele>
        <time>2012-05-08T09:43:23Z</time>
      </trkpt>
      <trkpt lat="44.61369" lon="0.68427">
        <ele>152.03</ele>
        <time>2012-05-08T09:43:35Z</time>
      </trkpt>
      <trkpt lat="44.61389" lon="0.68392">
        <ele>150.58</ele>
        <time>2012-05-08T09:43:47Z</time>
      </trkpt>
      <trkpt lat="44.61404" lon="0.68349">
        <ele>147.7</ele>
        <time>2012-05-08T09:43:56Z</time>
      </trkpt>
      <trkpt lat="44.61402" lon="0.68343">
        <ele>147.22</ele>
        <time>2012-05-08T09:43:57Z</time>
      </trkpt>
      <trkpt lat="44.614" lon="0.68337">
        <ele>146.74</ele>
        <time>2012-05-08T09:43:58Z</time>
      </trkpt>
      <trkpt lat="44.61398" lon="0.68333">
        <ele>146.74</ele>
        <time>2012-05-08T09:43:59Z</time>
      </trkpt>
      <trkpt lat="44.61396" lon="0.68328">
        <ele>146.26</ele>
        <time>2012-05-08T09:44:00Z</time>
      </trkpt>
      <trkpt lat="44.61393" lon="0.68324">
        <ele>146.74</ele>
        <time>2012-05-08T09:44:01Z</time>
      </trkpt>
      <trkpt lat="44.61364" lon="0.68275">
        <ele>148.18</ele>
        <time>2012-05-08T09:44:14Z</time>
      </trkpt>
      <trkpt lat="44.61356" lon="0.68268">
        <ele>147.7</ele>
        <time>2012-05-08T09:44:23Z</time>
      </trkpt>
      <trkpt lat="44.61342" lon="0.68272">
        <ele>152.51</ele>
        <time>2012-05-08T09:44:37Z</time>
      </trkpt>
      <trkpt lat="44.61333" lon="0.68274">
        <ele>153.47</ele>
        <time>2012-05-08T09:44:49Z</time>
      </trkpt>
      <trkpt lat="44.61304" lon="0.68291">
        <ele>153.47</ele>
        <time>2012-05-08T09:45:01Z</time>
      </trkpt>
      <trkpt lat="44.61273" lon="0.68328">
        <ele>152.03</ele>
        <time>2012-05-08T09:45:13Z</time>
      </trkpt>
      <trkpt lat="44.61251" lon="0.68351">
        <ele>151.06</ele>
        <time>2012-05-08T09:45:22Z</time>
      </trkpt>
      <trkpt lat="44.61251" lon="0.68354">
        <ele>151.06</ele>
        <time>2012-05-08T09:45:23Z</time>
      </trkpt>
      <trkpt lat="44.6125" lon="0.68364">
        <ele>150.58</ele>
        <time>2012-05-08T09:45:25Z</time>
      </trkpt>
      <trkpt lat="44.61249" lon="0.68371">
        <ele>150.1</ele>
        <time>2012-05-08T09:45:26Z</time>
      </trkpt>
      <trkpt lat="44.61246" lon="0.68419">
        <ele>141.93</ele>
        <time>2012-05-08T09:45:35Z</time>
      </trkpt>
      <trkpt lat="44.61245" lon="0.68429">
        <ele>139.53</ele>
        <time>2012-05-08T09:45:38Z</time>
      </trkpt>
      <trkpt lat="44.61226" lon="0.68437">
        <ele>135.2</ele>
        <time>2012-05-08T09:45:45Z</time>
      </trkpt>
      <trkpt lat="44.61207" lon="0.68436">
        <ele>131.36</ele>
        <time>2012-05-08T09:45:49Z</time>
      </trkpt>
      <trkpt lat="44.61179" lon="0.68444">
        <ele>127.03</ele>
        <time>2012-05-08T09:45:58Z</time>
      </trkpt>
      <trkpt lat="44.61147" lon="0.68475">
        <ele>121.26</ele>
        <time>2012-05-08T09:46:06Z</time>
      </trkpt>
      <trkpt lat="44.61077" lon="0.68555">
        <ele>111.65</ele>
        <time>2012-05-08T09:46:17Z</time>
      </trkpt>
      <trkpt lat="44.61041" lon="0.68591">
        <ele>109.25</ele>
        <time>2012-05-08T09:46:22Z</time>
      </trkpt>
      <trkpt lat="44.61034" lon="0.68595">
        <ele>109.25</ele>
        <time>2012-05-08T09:46:23Z</time>
      </trkpt>
      <trkpt lat="44.61027" lon="0.68597">
        <ele>109.25</ele>
        <time>2012-05-08T09:46:24Z</time>
      </trkpt>
      <trkpt lat="44.6102" lon="0.68597">
        <ele>109.73</ele>
        <time>2012-05-08T09:46:25Z</time>
      </trkpt>
      <trkpt lat="44.61014" lon="0.68596">
        <ele>110.21</ele>
        <time>2012-05-08T09:46:26Z</time>
      </trkpt>
      <trkpt lat="44.61008" lon="0.68595">
        <ele>110.69</ele>
        <time>2012-05-08T09:46:27Z</time>
      </trkpt>
      <trkpt lat="44.61003" lon="0.68594">
        <ele>110.69</ele>
        <time>2012-05-08T09:46:28Z</time>
      </trkpt>
      <trkpt lat="44.60998" lon="0.68593">
        <ele>111.17</ele>
        <time>2012-05-08T09:46:29Z</time>
      </trkpt>
      <trkpt lat="44.60958" lon="0.68584">
        <ele>115.01</ele>
        <time>2012-05-08T09:46:40Z</time>
      </trkpt>
      <trkpt lat="44.6092" lon="0.6856">
        <ele>117.42</ele>
        <time>2012-05-08T09:46:52Z</time>
      </trkpt>
      <trkpt lat="44.60878" lon="0.68527">
        <ele>119.34</ele>
        <time>2012-05-08T09:47:04Z</time>
      </trkpt>
      <trkpt lat="44.60828" lon="0.68502">
        <ele>119.34</ele>
        <time>2012-05-08T09:47:17Z</time>
      </trkpt>
      <trkpt lat="44.6078" lon="0.68478">
        <ele>119.82</ele>
        <time>2012-05-08T09:47:32Z</time>
      </trkpt>
      <trkpt lat="44.60755" lon="0.68466">
        <ele>117.9</ele>
        <time>2012-05-08T09:47:44Z</time>
      </trkpt>
      <trkpt lat="44.60729" lon="0.68449">
        <ele>121.26</ele>
        <time>2012-05-08T09:47:58Z</time>
      </trkpt>
      <trkpt lat="44.60704" lon="0.68432">
        <ele>124.15</ele>
        <time>2012-05-08T09:48:12Z</time>
      </trkpt>
      <trkpt lat="44.60691" lon="0.68423">
        <ele>126.07</ele>
        <time>2012-05-08T09:48:20Z</time>
      </trkpt>
      <trkpt lat="44.60689" lon="0.68421">
        <ele>126.55</ele>
        <time>2012-05-08T09:48:22Z</time>
      </trkpt>
      <trkpt lat="44.60683" lon="0.68418">
        <ele>127.03</ele>
        <time>2012-05-08T09:48:26Z</time>
      </trkpt>
      <trkpt lat="44.60682" lon="0.68416">
        <ele>127.03</ele>
        <time>2012-05-08T09:48:27Z</time>
      </trkpt>
      <trkpt lat="44.6068" lon="0.68415">
        <ele>127.51</ele>
        <time>2012-05-08T09:48:28Z</time>
      </trkpt>
      <trkpt lat="44.60661" lon="0.68401">
        <ele>129.92</ele>
        <time>2012-05-08T09:48:40Z</time>
      </trkpt>
      <trkpt lat="44.60652" lon="0.68394">
        <ele>130.88</ele>
        <time>2012-05-08T09:48:47Z</time>
      </trkpt>
      <trkpt lat="44.60649" lon="0.68391">
        <ele>131.36</ele>
        <time>2012-05-08T09:48:50Z</time>
      </trkpt>
      <trkpt lat="44.60648" lon="0.6839">
        <ele>131.36</ele>
        <time>2012-05-08T09:48:51Z</time>
      </trkpt>
      <trkpt lat="44.60647" lon="0.68389">
        <ele>131.36</ele>
        <time>2012-05-08T09:48:52Z</time>
      </trkpt>
      <trkpt lat="44.60646" lon="0.68388">
        <ele>131.36</ele>
        <time>2012-05-08T09:48:53Z</time>
      </trkpt>
      <trkpt lat="44.60635" lon="0.68378">
        <ele>133.28</ele>
        <time>2012-05-08T09:49:03Z</time>
      </trkpt>
      <trkpt lat="44.60633" lon="0.68377">
        <ele>133.28</ele>
        <time>2012-05-08T09:49:04Z</time>
      </trkpt>
      <trkpt lat="44.60623" lon="0.68369">
        <ele>132.8</ele>
        <time>2012-05-08T09:49:16Z</time>
      </trkpt>
      <trkpt lat="44.60617" lon="0.68364">
        <ele>133.76</ele>
        <time>2012-05-08T09:49:22Z</time>
      </trkpt>
      <trkpt lat="44.60615" lon="0.68364">
        <ele>133.76</ele>
        <time>2012-05-08T09:49:23Z</time>
      </trkpt>
      <trkpt lat="44.60598" lon="0.68356">
        <ele>137.13</ele>
        <time>2012-05-08T09:49:36Z</time>
      </trkpt>
      <trkpt lat="44.60583" lon="0.68351">
        <ele>140.01</ele>
        <time>2012-05-08T09:49:49Z</time>
      </trkpt>
      <trkpt lat="44.60581" lon="0.6835">
        <ele>140.49</ele>
        <time>2012-05-08T09:49:51Z</time>
      </trkpt>
      <trkpt lat="44.60565" lon="0.68342">
        <ele>142.89</ele>
        <time>2012-05-08T09:50:07Z</time>
      </trkpt>
      <trkpt lat="44.60555" lon="0.68339">
        <ele>143.85</ele>
        <time>2012-05-08T09:50:15Z</time>
      </trkpt>
      <trkpt lat="44.60554" lon="0.68338">
        <ele>143.85</ele>
        <time>2012-05-08T09:50:16Z</time>
      </trkpt>
      <trkpt lat="44.60545" lon="0.68337">
        <ele>143.85</ele>
        <time>2012-05-08T09:50:23Z</time>
      </trkpt>
      <trkpt lat="44.60544" lon="0.68336">
        <ele>143.37</ele>
        <time>2012-05-08T09:50:24Z</time>
      </trkpt>
      <trkpt lat="44.60541" lon="0.68335">
        <ele>143.37</ele>
        <time>2012-05-08T09:50:27Z</time>
      </trkpt>
      <trkpt lat="44.60527" lon="0.68335">
        <ele>143.37</ele>
        <time>2012-05-08T09:50:40Z</time>
      </trkpt>
      <trkpt lat="44.60523" lon="0.68336">
        <ele>143.85</ele>
        <time>2012-05-08T09:50:52Z</time>
      </trkpt>
      <trkpt lat="44.60509" lon="0.68338">
        <ele>147.7</ele>
        <time>2012-05-08T09:51:08Z</time>
      </trkpt>
      <trkpt lat="44.60493" lon="0.6834">
        <ele>149.14</ele>
        <time>2012-05-08T09:51:22Z</time>
      </trkpt>
      <trkpt lat="44.60483" lon="0.68342">
        <ele>150.1</ele>
        <time>2012-05-08T09:51:30Z</time>
      </trkpt>
      <trkpt lat="44.60468" lon="0.6834">
        <ele>152.03</ele>
        <time>2012-05-08T09:51:44Z</time>
      </trkpt>
      <trkpt lat="44.60467" lon="0.6834">
        <ele>152.03</ele>
        <time>2012-05-08T09:51:45Z</time>
      </trkpt>
      <trkpt lat="44.60465" lon="0.68339">
        <ele>152.03</ele>
        <time>2012-05-08T09:51:46Z</time>
      </trkpt>
      <trkpt lat="44.60434" lon="0.6833">
        <ele>152.03</ele>
        <time>2012-05-08T09:52:06Z</time>
      </trkpt>
      <trkpt lat="44.6041" lon="0.68324">
        <ele>152.51</ele>
        <time>2012-05-08T09:52:24Z</time>
      </trkpt>
      <trkpt lat="44.60401" lon="0.68322">
        <ele>152.99</ele>
        <time>2012-05-08T09:52:30Z</time>
      </trkpt>
      <trkpt lat="44.604" lon="0.68321">
        <ele>153.47</ele>
        <time>2012-05-08T09:52:31Z</time>
      </trkpt>
      <trkpt lat="44.60399" lon="0.68321">
        <ele>153.47</ele>
        <time>2012-05-08T09:52:32Z</time>
      </trkpt>
      <trkpt lat="44.60397" lon="0.68321">
        <ele>153.95</ele>
        <time>2012-05-08T09:52:33Z</time>
      </trkpt>
      <trkpt lat="44.60396" lon="0.68321">
        <ele>153.95</ele>
        <time>2012-05-08T09:52:34Z</time>
      </trkpt>
      <trkpt lat="44.60395" lon="0.68321">
        <ele>154.43</ele>
        <time>2012-05-08T09:52:35Z</time>
      </trkpt>
      <trkpt lat="44.60394" lon="0.68321">
        <ele>154.43</ele>
        <time>2012-05-08T09:52:36Z</time>
      </trkpt>
      <trkpt lat="44.60392" lon="0.68321">
        <ele>154.91</ele>
        <time>2012-05-08T09:52:37Z</time>
      </trkpt>
      <trkpt lat="44.60374" lon="0.68315">
        <ele>158.27</ele>
        <time>2012-05-08T09:52:51Z</time>
      </trkpt>
      <trkpt lat="44.60356" lon="0.68307">
        <ele>160.68</ele>
        <time>2012-05-08T09:53:05Z</time>
      </trkpt>
      <trkpt lat="44.60355" lon="0.68307">
        <ele>161.16</ele>
        <time>2012-05-08T09:53:06Z</time>
      </trkpt>
      <trkpt lat="44.60353" lon="0.68307">
        <ele>161.64</ele>
        <time>2012-05-08T09:53:07Z</time>
      </trkpt>
      <trkpt lat="44.60352" lon="0.68306">
        <ele>161.64</ele>
        <time>2012-05-08T09:53:08Z</time>
      </trkpt>
      <trkpt lat="44.6035" lon="0.68306">
        <ele>161.64</ele>
        <time>2012-05-08T09:53:09Z</time>
      </trkpt>
      <trkpt lat="44.60348" lon="0.68305">
        <ele>161.64</ele>
        <time>2012-05-08T09:53:10Z</time>
      </trkpt>
      <trkpt lat="44.60347" lon="0.68304">
        <ele>161.64</ele>
        <time>2012-05-08T09:53:11Z</time>
      </trkpt>
      <trkpt lat="44.60345" lon="0.68304">
        <ele>161.64</ele>
        <time>2012-05-08T09:53:12Z</time>
      </trkpt>
      <trkpt lat="44.60344" lon="0.68304">
        <ele>162.12</ele>
        <time>2012-05-08T09:53:13Z</time>
      </trkpt>
      <trkpt lat="44.60343" lon="0.68303">
        <ele>162.12</ele>
        <time>2012-05-08T09:53:14Z</time>
      </trkpt>
      <trkpt lat="44.60341" lon="0.68303">
        <ele>162.12</ele>
        <time>2012-05-08T09:53:15Z</time>
      </trkpt>
      <trkpt lat="44.6034" lon="0.68302">
        <ele>162.6</ele>
        <time>2012-05-08T09:53:16Z</time>
      </trkpt>
      <trkpt lat="44.60338" lon="0.68302">
        <ele>162.6</ele>
        <time>2012-05-08T09:53:17Z</time>
      </trkpt>
      <trkpt lat="44.60337" lon="0.68301">
        <ele>163.08</ele>
        <time>2012-05-08T09:53:18Z</time>
      </trkpt>
      <trkpt lat="44.60336" lon="0.683">
        <ele>163.08</ele>
        <time>2012-05-08T09:53:19Z</time>
      </trkpt>
      <trkpt lat="44.60334" lon="0.683">
        <ele>163.08</ele>
        <time>2012-05-08T09:53:20Z</time>
      </trkpt>
      <trkpt lat="44.60333" lon="0.683">
        <ele>163.56</ele>
        <time>2012-05-08T09:53:21Z</time>
      </trkpt>
      <trkpt lat="44.60331" lon="0.683">
        <ele>164.04</ele>
        <time>2012-05-08T09:53:22Z</time>
      </trkpt>
      <trkpt lat="44.6033" lon="0.68299">
        <ele>164.52</ele>
        <time>2012-05-08T09:53:23Z</time>
      </trkpt>
      <trkpt lat="44.60328" lon="0.68299">
        <ele>165</ele>
        <time>2012-05-08T09:53:24Z</time>
      </trkpt>
      <trkpt lat="44.60327" lon="0.68299">
        <ele>165</ele>
        <time>2012-05-08T09:53:25Z</time>
      </trkpt>
      <trkpt lat="44.60326" lon="0.68298">
        <ele>165</ele>
        <time>2012-05-08T09:53:26Z</time>
      </trkpt>
      <trkpt lat="44.60324" lon="0.68298">
        <ele>165</ele>
        <time>2012-05-08T09:53:27Z</time>
      </trkpt>
      <trkpt lat="44.60322" lon="0.68297">
        <ele>165</ele>
        <time>2012-05-08T09:53:28Z</time>
      </trkpt>
      <trkpt lat="44.60321" lon="0.68297">
        <ele>165</ele>
        <time>2012-05-08T09:53:29Z</time>
      </trkpt>
      <trkpt lat="44.60305" lon="0.68292">
        <ele>165</ele>
        <time>2012-05-08T09:53:38Z</time>
      </trkpt>
      <trkpt lat="44.60304" lon="0.68291">
        <ele>165</ele>
        <time>2012-05-08T09:53:39Z</time>
      </trkpt>
      <trkpt lat="44.60277" lon="0.68284">
        <ele>166.45</ele>
        <time>2012-05-08T09:53:50Z</time>
      </trkpt>
      <trkpt lat="44.60229" lon="0.68268">
        <ele>167.89</ele>
        <time>2012-05-08T09:54:07Z</time>
      </trkpt>
      <trkpt lat="44.60189" lon="0.68255">
        <ele>166.45</ele>
        <time>2012-05-08T09:54:20Z</time>
      </trkpt>
      <trkpt lat="44.60187" lon="0.68254">
        <ele>166.45</ele>
        <time>2012-05-08T09:54:21Z</time>
      </trkpt>
      <trkpt lat="44.60184" lon="0.68252">
        <ele>166.45</ele>
        <time>2012-05-08T09:54:22Z</time>
      </trkpt>
      <trkpt lat="44.60175" lon="0.68247">
        <ele>166.45</ele>
        <time>2012-05-08T09:54:25Z</time>
      </trkpt>
      <trkpt lat="44.60173" lon="0.68246">
        <ele>166.45</ele>
        <time>2012-05-08T09:54:26Z</time>
      </trkpt>
      <trkpt lat="44.6017" lon="0.68245">
        <ele>166.45</ele>
        <time>2012-05-08T09:54:27Z</time>
      </trkpt>
      <trkpt lat="44.60168" lon="0.68243">
        <ele>166.45</ele>
        <time>2012-05-08T09:54:28Z</time>
      </trkpt>
      <trkpt lat="44.60165" lon="0.68242">
        <ele>166.93</ele>
        <time>2012-05-08T09:54:29Z</time>
      </trkpt>
      <trkpt lat="44.60162" lon="0.68241">
        <ele>166.93</ele>
        <time>2012-05-08T09:54:30Z</time>
      </trkpt>
      <trkpt lat="44.6016" lon="0.6824">
        <ele>166.93</ele>
        <time>2012-05-08T09:54:31Z</time>
      </trkpt>
      <trkpt lat="44.60157" lon="0.68239">
        <ele>166.93</ele>
        <time>2012-05-08T09:54:32Z</time>
      </trkpt>
      <trkpt lat="44.60155" lon="0.68238">
        <ele>167.41</ele>
        <time>2012-05-08T09:54:33Z</time>
      </trkpt>
      <trkpt lat="44.60152" lon="0.68237">
        <ele>167.41</ele>
        <time>2012-05-08T09:54:34Z</time>
      </trkpt>
      <trkpt lat="44.60119" lon="0.68221">
        <ele>168.37</ele>
        <time>2012-05-08T09:54:48Z</time>
      </trkpt>
      <trkpt lat="44.60085" lon="0.68212">
        <ele>165</ele>
        <time>2012-05-08T09:55:01Z</time>
      </trkpt>
      <trkpt lat="44.60054" lon="0.682">
        <ele>161.16</ele>
        <time>2012-05-08T09:55:15Z</time>
      </trkpt>
      <trkpt lat="44.60045" lon="0.68197">
        <ele>161.64</ele>
        <time>2012-05-08T09:55:25Z</time>
      </trkpt>
      <trkpt lat="44.60036" lon="0.68195">
        <ele>161.64</ele>
        <time>2012-05-08T09:55:31Z</time>
      </trkpt>
      <trkpt lat="44.60035" lon="0.68195">
        <ele>161.64</ele>
        <time>2012-05-08T09:55:32Z</time>
      </trkpt>
      <trkpt lat="44.60034" lon="0.68195">
        <ele>161.64</ele>
        <time>2012-05-08T09:55:33Z</time>
      </trkpt>
      <trkpt lat="44.60032" lon="0.68194">
        <ele>161.64</ele>
        <time>2012-05-08T09:55:34Z</time>
      </trkpt>
      <trkpt lat="44.60031" lon="0.68194">
        <ele>162.12</ele>
        <time>2012-05-08T09:55:35Z</time>
      </trkpt>
      <trkpt lat="44.60029" lon="0.68193">
        <ele>162.12</ele>
        <time>2012-05-08T09:55:36Z</time>
      </trkpt>
      <trkpt lat="44.60028" lon="0.68192">
        <ele>163.08</ele>
        <time>2012-05-08T09:55:37Z</time>
      </trkpt>
      <trkpt lat="44.6002" lon="0.6819">
        <ele>165.96</ele>
        <time>2012-05-08T09:55:47Z</time>
      </trkpt>
      <trkpt lat="44.60019" lon="0.68189">
        <ele>165.96</ele>
        <time>2012-05-08T09:55:48Z</time>
      </trkpt>
      <trkpt lat="44.60017" lon="0.68189">
        <ele>166.45</ele>
        <time>2012-05-08T09:55:49Z</time>
      </trkpt>
      <trkpt lat="44.60016" lon="0.68189">
        <ele>166.45</ele>
        <time>2012-05-08T09:55:50Z</time>
      </trkpt>
      <trkpt lat="44.60014" lon="0.6819">
        <ele>166.93</ele>
        <time>2012-05-08T09:55:51Z</time>
      </trkpt>
      <trkpt lat="44.60012" lon="0.68192">
        <ele>166.93</ele>
        <time>2012-05-08T09:55:52Z</time>
      </trkpt>
      <trkpt lat="44.60011" lon="0.68193">
        <ele>166.93</ele>
        <time>2012-05-08T09:55:53Z</time>
      </trkpt>
      <trkpt lat="44.60009" lon="0.68194">
        <ele>167.41</ele>
        <time>2012-05-08T09:55:54Z</time>
      </trkpt>
      <trkpt lat="44.60008" lon="0.68195">
        <ele>167.41</ele>
        <time>2012-05-08T09:55:55Z</time>
      </trkpt>
      <trkpt lat="44.60006" lon="0.68197">
        <ele>167.41</ele>
        <time>2012-05-08T09:55:56Z</time>
      </trkpt>
      <trkpt lat="44.60004" lon="0.68198">
        <ele>167.41</ele>
        <time>2012-05-08T09:55:57Z</time>
      </trkpt>
      <trkpt lat="44.60002" lon="0.682">
        <ele>167.41</ele>
        <time>2012-05-08T09:55:58Z</time>
      </trkpt>
      <trkpt lat="44.5998" lon="0.6822">
        <ele>167.41</ele>
        <time>2012-05-08T09:56:09Z</time>
      </trkpt>
      <trkpt lat="44.59955" lon="0.68238">
        <ele>169.33</ele>
        <time>2012-05-08T09:56:19Z</time>
      </trkpt>
      <trkpt lat="44.59931" lon="0.68218">
        <ele>170.77</ele>
        <time>2012-05-08T09:56:31Z</time>
      </trkpt>
      <trkpt lat="44.59898" lon="0.68175">
        <ele>170.77</ele>
        <time>2012-05-08T09:56:47Z</time>
      </trkpt>
      <trkpt lat="44.59866" lon="0.68172">
        <ele>168.85</ele>
        <time>2012-05-08T09:57:00Z</time>
      </trkpt>
      <trkpt lat="44.59848" lon="0.68179">
        <ele>167.41</ele>
        <time>2012-05-08T09:57:06Z</time>
      </trkpt>
      <trkpt lat="44.5984" lon="0.68182">
        <ele>166.93</ele>
        <time>2012-05-08T09:57:08Z</time>
      </trkpt>
      <trkpt lat="44.59784" lon="0.68205">
        <ele>165.48</ele>
        <time>2012-05-08T09:57:21Z</time>
      </trkpt>
      <trkpt lat="44.59756" lon="0.68223">
        <ele>167.89</ele>
        <time>2012-05-08T09:57:35Z</time>
      </trkpt>
      <trkpt lat="44.59746" lon="0.68229">
        <ele>169.33</ele>
        <time>2012-05-08T09:57:41Z</time>
      </trkpt>
      <trkpt lat="44.59719" lon="0.68231">
        <ele>171.25</ele>
        <time>2012-05-08T09:57:55Z</time>
      </trkpt>
      <trkpt lat="44.59717" lon="0.68227">
        <ele>172.21</ele>
        <time>2012-05-08T09:57:58Z</time>
      </trkpt>
      <trkpt lat="44.597" lon="0.68204">
        <ele>174.62</ele>
        <time>2012-05-08T09:58:16Z</time>
      </trkpt>
      <trkpt lat="44.59688" lon="0.68184">
        <ele>177.5</ele>
        <time>2012-05-08T09:58:30Z</time>
      </trkpt>
      <trkpt lat="44.59673" lon="0.68162">
        <ele>179.9</ele>
        <time>2012-05-08T09:58:44Z</time>
      </trkpt>
      <trkpt lat="44.59656" lon="0.68138">
        <ele>177.02</ele>
        <time>2012-05-08T09:58:56Z</time>
      </trkpt>
      <trkpt lat="44.59629" lon="0.68101">
        <ele>179.42</ele>
        <time>2012-05-08T09:59:08Z</time>
      </trkpt>
      <trkpt lat="44.59625" lon="0.68097">
        <ele>178.94</ele>
        <time>2012-05-08T09:59:09Z</time>
      </trkpt>
      <trkpt lat="44.59622" lon="0.68093">
        <ele>178.94</ele>
        <time>2012-05-08T09:59:10Z</time>
      </trkpt>
      <trkpt lat="44.59619" lon="0.68089">
        <ele>178.46</ele>
        <time>2012-05-08T09:59:11Z</time>
      </trkpt>
      <trkpt lat="44.59618" lon="0.68084">
        <ele>178.46</ele>
        <time>2012-05-08T09:59:12Z</time>
      </trkpt>
      <trkpt lat="44.59618" lon="0.6808">
        <ele>177.98</ele>
        <time>2012-05-08T09:59:13Z</time>
      </trkpt>
      <trkpt lat="44.59618" lon="0.68077">
        <ele>177.98</ele>
        <time>2012-05-08T09:59:14Z</time>
      </trkpt>
      <trkpt lat="44.59621" lon="0.68071">
        <ele>177.5</ele>
        <time>2012-05-08T09:59:16Z</time>
      </trkpt>
      <trkpt lat="44.59624" lon="0.6807">
        <ele>177.5</ele>
        <time>2012-05-08T09:59:17Z</time>
      </trkpt>
      <trkpt lat="44.59626" lon="0.68068">
        <ele>177.98</ele>
        <time>2012-05-08T09:59:18Z</time>
      </trkpt>
      <trkpt lat="44.59627" lon="0.68066">
        <ele>177.5</ele>
        <time>2012-05-08T09:59:19Z</time>
      </trkpt>
      <trkpt lat="44.59629" lon="0.68064">
        <ele>177.98</ele>
        <time>2012-05-08T09:59:20Z</time>
      </trkpt>
      <trkpt lat="44.59633" lon="0.6806">
        <ele>177.5</ele>
        <time>2012-05-08T09:59:28Z</time>
      </trkpt>
      <trkpt lat="44.59635" lon="0.6806">
        <ele>177.5</ele>
        <time>2012-05-08T09:59:29Z</time>
      </trkpt>
      <trkpt lat="44.59636" lon="0.68063">
        <ele>176.06</ele>
        <time>2012-05-08T09:59:38Z</time>
      </trkpt>
      <trkpt lat="44.59636" lon="0.68062">
        <ele>175.1</ele>
        <time>2012-05-08T10:00:08Z</time>
      </trkpt>
      <trkpt lat="44.59636" lon="0.68061">
        <ele>177.02</ele>
        <time>2012-05-08T10:00:44Z</time>
      </trkpt>
      <trkpt lat="44.59635" lon="0.68061">
        <ele>177.5</ele>
        <time>2012-05-08T10:01:12Z</time>
      </trkpt>
      <trkpt lat="44.59635" lon="0.68061">
        <ele>177.5</ele>
        <time>2012-05-08T10:01:52Z</time>
      </trkpt>
      <trkpt lat="44.59636" lon="0.68061">
        <ele>177.98</ele>
        <time>2012-05-08T10:02:19Z</time>
      </trkpt>
      <trkpt lat="44.59636" lon="0.68062">
        <ele>178.46</ele>
        <time>2012-05-08T10:02:55Z</time>
      </trkpt>
      <trkpt lat="44.59636" lon="0.68061">
        <ele>178.46</ele>
        <time>2012-05-08T10:03:39Z</time>
      </trkpt>
      <trkpt lat="44.59634" lon="0.68061">
        <ele>177.98</ele>
        <time>2012-05-08T10:04:09Z</time>
      </trkpt>
      <trkpt lat="44.59635" lon="0.68062">
        <ele>177.5</ele>
        <time>2012-05-08T10:04:33Z</time>
      </trkpt>
      <trkpt lat="44.59632" lon="0.68063">
        <ele>176.54</ele>
        <time>2012-05-08T10:04:49Z</time>
      </trkpt>
      <trkpt lat="44.59633" lon="0.68063">
        <ele>176.06</ele>
        <time>2012-05-08T10:05:10Z</time>
      </trkpt>
      <trkpt lat="44.59631" lon="0.68062">
        <ele>176.54</ele>
        <time>2012-05-08T10:05:23Z</time>
      </trkpt>
      <trkpt lat="44.5963" lon="0.68059">
        <ele>176.06</ele>
        <time>2012-05-08T10:05:45Z</time>
      </trkpt>
      <trkpt lat="44.59627" lon="0.68057">
        <ele>176.06</ele>
        <time>2012-05-08T10:05:57Z</time>
      </trkpt>
      <trkpt lat="44.59626" lon="0.68057">
        <ele>175.58</ele>
        <time>2012-05-08T10:06:14Z</time>
      </trkpt>
      <trkpt lat="44.59625" lon="0.68055">
        <ele>175.1</ele>
        <time>2012-05-08T10:06:31Z</time>
      </trkpt>
      <trkpt lat="44.59625" lon="0.68055">
        <ele>175.1</ele>
        <time>2012-05-08T10:06:38Z</time>
      </trkpt>
      <trkpt lat="44.59624" lon="0.68053">
        <ele>175.1</ele>
        <time>2012-05-08T10:06:39Z</time>
      </trkpt>
      <trkpt lat="44.59622" lon="0.6805">
        <ele>174.62</ele>
        <time>2012-05-08T10:06:40Z</time>
      </trkpt>
      <trkpt lat="44.59621" lon="0.68046">
        <ele>174.14</ele>
        <time>2012-05-08T10:06:41Z</time>
      </trkpt>
      <trkpt lat="44.59618" lon="0.68042">
        <ele>174.14</ele>
        <time>2012-05-08T10:06:42Z</time>
      </trkpt>
      <trkpt lat="44.59616" lon="0.68037">
        <ele>173.66</ele>
        <time>2012-05-08T10:06:43Z</time>
      </trkpt>
      <trkpt lat="44.59593" lon="0.67999">
        <ele>169.81</ele>
        <time>2012-05-08T10:06:50Z</time>
      </trkpt>
      <trkpt lat="44.59589" lon="0.67997">
        <ele>169.33</ele>
        <time>2012-05-08T10:06:51Z</time>
      </trkpt>
      <trkpt lat="44.59584" lon="0.67998">
        <ele>169.33</ele>
        <time>2012-05-08T10:06:52Z</time>
      </trkpt>
      <trkpt lat="44.59569" lon="0.68002">
        <ele>168.37</ele>
        <time>2012-05-08T10:06:55Z</time>
      </trkpt>
      <trkpt lat="44.59506" lon="0.68039">
        <ele>165.96</ele>
        <time>2012-05-08T10:07:07Z</time>
      </trkpt>
      <trkpt lat="44.59495" lon="0.68047">
        <ele>165.48</ele>
        <time>2012-05-08T10:07:09Z</time>
      </trkpt>
      <trkpt lat="44.59489" lon="0.68051">
        <ele>165</ele>
        <time>2012-05-08T10:07:10Z</time>
      </trkpt>
      <trkpt lat="44.59483" lon="0.68055">
        <ele>165</ele>
        <time>2012-05-08T10:07:11Z</time>
      </trkpt>
      <trkpt lat="44.59412" lon="0.68132">
        <ele>160.68</ele>
        <time>2012-05-08T10:07:25Z</time>
      </trkpt>
      <trkpt lat="44.59349" lon="0.6821">
        <ele>156.83</ele>
        <time>2012-05-08T10:07:37Z</time>
      </trkpt>
      <trkpt lat="44.59268" lon="0.68325">
        <ele>152.03</ele>
        <time>2012-05-08T10:07:52Z</time>
      </trkpt>
      <trkpt lat="44.59228" lon="0.68393">
        <ele>149.62</ele>
        <time>2012-05-08T10:08:00Z</time>
      </trkpt>
      <trkpt lat="44.59214" lon="0.68414">
        <ele>149.62</ele>
        <time>2012-05-08T10:08:03Z</time>
      </trkpt>
      <trkpt lat="44.5921" lon="0.68421">
        <ele>149.62</ele>
        <time>2012-05-08T10:08:04Z</time>
      </trkpt>
      <trkpt lat="44.59206" lon="0.68429">
        <ele>149.62</ele>
        <time>2012-05-08T10:08:05Z</time>
      </trkpt>
      <trkpt lat="44.59193" lon="0.68449">
        <ele>149.14</ele>
        <time>2012-05-08T10:08:08Z</time>
      </trkpt>
      <trkpt lat="44.59162" lon="0.68509">
        <ele>146.74</ele>
        <time>2012-05-08T10:08:17Z</time>
      </trkpt>
      <trkpt lat="44.59127" lon="0.68583">
        <ele>147.22</ele>
        <time>2012-05-08T10:08:29Z</time>
      </trkpt>
      <trkpt lat="44.59093" lon="0.68657">
        <ele>144.82</ele>
        <time>2012-05-08T10:08:40Z</time>
      </trkpt>
      <trkpt lat="44.59056" lon="0.6872">
        <ele>142.41</ele>
        <time>2012-05-08T10:08:50Z</time>
      </trkpt>
      <trkpt lat="44.59053" lon="0.68726">
        <ele>141.93</ele>
        <time>2012-05-08T10:08:51Z</time>
      </trkpt>
      <trkpt lat="44.59048" lon="0.68732">
        <ele>141.93</ele>
        <time>2012-05-08T10:08:52Z</time>
      </trkpt>
      <trkpt lat="44.59031" lon="0.68751">
        <ele>140.01</ele>
        <time>2012-05-08T10:08:56Z</time>
      </trkpt>
      <trkpt lat="44.59017" lon="0.68763">
        <ele>139.05</ele>
        <time>2012-05-08T10:08:59Z</time>
      </trkpt>
      <trkpt lat="44.59013" lon="0.68767">
        <ele>138.57</ele>
        <time>2012-05-08T10:09:00Z</time>
      </trkpt>
      <trkpt lat="44.59" lon="0.68781">
        <ele>137.61</ele>
        <time>2012-05-08T10:09:03Z</time>
      </trkpt>
      <trkpt lat="44.58995" lon="0.68785">
        <ele>137.13</ele>
        <time>2012-05-08T10:09:04Z</time>
      </trkpt>
      <trkpt lat="44.58991" lon="0.68789">
        <ele>137.13</ele>
        <time>2012-05-08T10:09:05Z</time>
      </trkpt>
      <trkpt lat="44.58939" lon="0.6885">
        <ele>133.76</ele>
        <time>2012-05-08T10:09:18Z</time>
      </trkpt>
      <trkpt lat="44.58889" lon="0.68913">
        <ele>130.88</ele>
        <time>2012-05-08T10:09:29Z</time>
      </trkpt>
      <trkpt lat="44.58853" lon="0.6895">
        <ele>128.95</ele>
        <time>2012-05-08T10:09:36Z</time>
      </trkpt>
      <trkpt lat="44.58848" lon="0.68952">
        <ele>128.95</ele>
        <time>2012-05-08T10:09:37Z</time>
      </trkpt>
      <trkpt lat="44.5881" lon="0.68989">
        <ele>125.59</ele>
        <time>2012-05-08T10:09:47Z</time>
      </trkpt>
      <trkpt lat="44.58787" lon="0.69012">
        <ele>123.67</ele>
        <time>2012-05-08T10:09:52Z</time>
      </trkpt>
      <trkpt lat="44.58783" lon="0.69017">
        <ele>123.67</ele>
        <time>2012-05-08T10:09:53Z</time>
      </trkpt>
      <trkpt lat="44.5878" lon="0.69022">
        <ele>123.19</ele>
        <time>2012-05-08T10:09:54Z</time>
      </trkpt>
      <trkpt lat="44.58748" lon="0.69064">
        <ele>123.19</ele>
        <time>2012-05-08T10:10:06Z</time>
      </trkpt>
      <trkpt lat="44.58729" lon="0.6909">
        <ele>123.67</ele>
        <time>2012-05-08T10:10:16Z</time>
      </trkpt>
      <trkpt lat="44.58727" lon="0.69094">
        <ele>124.15</ele>
        <time>2012-05-08T10:10:18Z</time>
      </trkpt>
      <trkpt lat="44.58713" lon="0.69119">
        <ele>127.99</ele>
        <time>2012-05-08T10:10:31Z</time>
      </trkpt>
      <trkpt lat="44.58698" lon="0.69151">
        <ele>130.88</ele>
        <time>2012-05-08T10:10:45Z</time>
      </trkpt>
      <trkpt lat="44.58682" lon="0.69184">
        <ele>131.84</ele>
        <time>2012-05-08T10:10:59Z</time>
      </trkpt>
      <trkpt lat="44.58679" lon="0.6919">
        <ele>131.84</ele>
        <time>2012-05-08T10:11:02Z</time>
      </trkpt>
      <trkpt lat="44.58678" lon="0.69192">
        <ele>132.32</ele>
        <time>2012-05-08T10:11:03Z</time>
      </trkpt>
      <trkpt lat="44.58662" lon="0.69223">
        <ele>133.76</ele>
        <time>2012-05-08T10:11:15Z</time>
      </trkpt>
      <trkpt lat="44.5863" lon="0.69276">
        <ele>134.72</ele>
        <time>2012-05-08T10:11:31Z</time>
      </trkpt>
      <trkpt lat="44.58603" lon="0.69319">
        <ele>135.68</ele>
        <time>2012-05-08T10:11:45Z</time>
      </trkpt>
      <trkpt lat="44.58561" lon="0.69372">
        <ele>135.2</ele>
        <time>2012-05-08T10:12:01Z</time>
      </trkpt>
      <trkpt lat="44.58533" lon="0.69412">
        <ele>136.64</ele>
        <time>2012-05-08T10:12:15Z</time>
      </trkpt>
      <trkpt lat="44.58505" lon="0.6944">
        <ele>138.57</ele>
        <time>2012-05-08T10:12:31Z</time>
      </trkpt>
      <trkpt lat="44.5848" lon="0.69459">
        <ele>140.01</ele>
        <time>2012-05-08T10:12:45Z</time>
      </trkpt>
      <trkpt lat="44.58457" lon="0.69478">
        <ele>140.01</ele>
        <time>2012-05-08T10:12:58Z</time>
      </trkpt>
      <trkpt lat="44.58431" lon="0.69512">
        <ele>137.61</ele>
        <time>2012-05-08T10:13:08Z</time>
      </trkpt>
      <trkpt lat="44.58408" lon="0.69542">
        <ele>136.16</ele>
        <time>2012-05-08T10:13:15Z</time>
      </trkpt>
      <trkpt lat="44.58389" lon="0.69561">
        <ele>135.68</ele>
        <time>2012-05-08T10:13:20Z</time>
      </trkpt>
      <trkpt lat="44.58359" lon="0.6959">
        <ele>137.61</ele>
        <time>2012-05-08T10:13:30Z</time>
      </trkpt>
      <trkpt lat="44.58337" lon="0.69609">
        <ele>140.01</ele>
        <time>2012-05-08T10:13:36Z</time>
      </trkpt>
      <trkpt lat="44.58333" lon="0.69613">
        <ele>140.49</ele>
        <time>2012-05-08T10:13:37Z</time>
      </trkpt>
      <trkpt lat="44.58295" lon="0.69643">
        <ele>140.49</ele>
        <time>2012-05-08T10:13:47Z</time>
      </trkpt>
      <trkpt lat="44.5829" lon="0.69647">
        <ele>140.97</ele>
        <time>2012-05-08T10:13:48Z</time>
      </trkpt>
      <trkpt lat="44.58276" lon="0.69659">
        <ele>141.45</ele>
        <time>2012-05-08T10:13:51Z</time>
      </trkpt>
      <trkpt lat="44.5827" lon="0.69663">
        <ele>140.97</ele>
        <time>2012-05-08T10:13:52Z</time>
      </trkpt>
      <trkpt lat="44.58224" lon="0.69687">
        <ele>136.64</ele>
        <time>2012-05-08T10:14:00Z</time>
      </trkpt>
      <trkpt lat="44.58202" lon="0.69701">
        <ele>131.84</ele>
        <time>2012-05-08T10:14:10Z</time>
      </trkpt>
      <trkpt lat="44.58199" lon="0.697">
        <ele>131.36</ele>
        <time>2012-05-08T10:14:13Z</time>
      </trkpt>
      <trkpt lat="44.58197" lon="0.69699">
        <ele>131.36</ele>
        <time>2012-05-08T10:14:14Z</time>
      </trkpt>
      <trkpt lat="44.58196" lon="0.69698">
        <ele>131.36</ele>
        <time>2012-05-08T10:14:15Z</time>
      </trkpt>
      <trkpt lat="44.58176" lon="0.69685">
        <ele>130.4</ele>
        <time>2012-05-08T10:14:26Z</time>
      </trkpt>
      <trkpt lat="44.58174" lon="0.69682">
        <ele>129.92</ele>
        <time>2012-05-08T10:14:27Z</time>
      </trkpt>
      <trkpt lat="44.58172" lon="0.6968">
        <ele>130.4</ele>
        <time>2012-05-08T10:14:28Z</time>
      </trkpt>
      <trkpt lat="44.5817" lon="0.69679">
        <ele>130.4</ele>
        <time>2012-05-08T10:14:29Z</time>
      </trkpt>
      <trkpt lat="44.58168" lon="0.69677">
        <ele>130.4</ele>
        <time>2012-05-08T10:14:30Z</time>
      </trkpt>
      <trkpt lat="44.58165" lon="0.69676">
        <ele>130.88</ele>
        <time>2012-05-08T10:14:31Z</time>
      </trkpt>
      <trkpt lat="44.58135" lon="0.69657">
        <ele>132.8</ele>
        <time>2012-05-08T10:14:44Z</time>
      </trkpt>
      <trkpt lat="44.58108" lon="0.69653">
        <ele>134.24</ele>
        <time>2012-05-08T10:14:57Z</time>
      </trkpt>
      <trkpt lat="44.58083" lon="0.69657">
        <ele>135.2</ele>
        <time>2012-05-08T10:15:09Z</time>
      </trkpt>
      <trkpt lat="44.58045" lon="0.69668">
        <ele>137.61</ele>
        <time>2012-05-08T10:15:27Z</time>
      </trkpt>
      <trkpt lat="44.5801" lon="0.69673">
        <ele>139.05</ele>
        <time>2012-05-08T10:15:42Z</time>
      </trkpt>
      <trkpt lat="44.57974" lon="0.69673">
        <ele>142.89</ele>
        <time>2012-05-08T10:15:57Z</time>
      </trkpt>
      <trkpt lat="44.57952" lon="0.69668">
        <ele>144.82</ele>
        <time>2012-05-08T10:16:09Z</time>
      </trkpt>
      <trkpt lat="44.57929" lon="0.69644">
        <ele>145.3</ele>
        <time>2012-05-08T10:16:23Z</time>
      </trkpt>
      <trkpt lat="44.57906" lon="0.69613">
        <ele>147.22</ele>
        <time>2012-05-08T10:16:38Z</time>
      </trkpt>
      <trkpt lat="44.57881" lon="0.69587">
        <ele>149.14</ele>
        <time>2012-05-08T10:16:53Z</time>
      </trkpt>
      <trkpt lat="44.57851" lon="0.69556">
        <ele>149.62</ele>
        <time>2012-05-08T10:17:09Z</time>
      </trkpt>
      <trkpt lat="44.57835" lon="0.69536">
        <ele>152.03</ele>
        <time>2012-05-08T10:17:20Z</time>
      </trkpt>
      <trkpt lat="44.57833" lon="0.69535">
        <ele>152.51</ele>
        <time>2012-05-08T10:17:21Z</time>
      </trkpt>
      <trkpt lat="44.57832" lon="0.69533">
        <ele>152.99</ele>
        <time>2012-05-08T10:17:22Z</time>
      </trkpt>
      <trkpt lat="44.5781" lon="0.69507">
        <ele>155.87</ele>
        <time>2012-05-08T10:17:38Z</time>
      </trkpt>
      <trkpt lat="44.57803" lon="0.69466">
        <ele>156.83</ele>
        <time>2012-05-08T10:17:52Z</time>
      </trkpt>
      <trkpt lat="44.57801" lon="0.69464">
        <ele>156.83</ele>
        <time>2012-05-08T10:17:53Z</time>
      </trkpt>
      <trkpt lat="44.57799" lon="0.69463">
        <ele>156.83</ele>
        <time>2012-05-08T10:17:54Z</time>
      </trkpt>
      <trkpt lat="44.57798" lon="0.69461">
        <ele>157.31</ele>
        <time>2012-05-08T10:17:55Z</time>
      </trkpt>
      <trkpt lat="44.57796" lon="0.6946">
        <ele>157.31</ele>
        <time>2012-05-08T10:17:56Z</time>
      </trkpt>
      <trkpt lat="44.57794" lon="0.69459">
        <ele>157.31</ele>
        <time>2012-05-08T10:17:57Z</time>
      </trkpt>
      <trkpt lat="44.57792" lon="0.69458">
        <ele>157.79</ele>
        <time>2012-05-08T10:17:58Z</time>
      </trkpt>
      <trkpt lat="44.5779" lon="0.69456">
        <ele>157.79</ele>
        <time>2012-05-08T10:17:59Z</time>
      </trkpt>
      <trkpt lat="44.57761" lon="0.69438">
        <ele>158.75</ele>
        <time>2012-05-08T10:18:11Z</time>
      </trkpt>
      <trkpt lat="44.57751" lon="0.69436">
        <ele>158.27</ele>
        <time>2012-05-08T10:18:14Z</time>
      </trkpt>
      <trkpt lat="44.57735" lon="0.69419">
        <ele>155.87</ele>
        <time>2012-05-08T10:18:19Z</time>
      </trkpt>
      <trkpt lat="44.57731" lon="0.69416">
        <ele>155.39</ele>
        <time>2012-05-08T10:18:20Z</time>
      </trkpt>
      <trkpt lat="44.57726" lon="0.69412">
        <ele>154.91</ele>
        <time>2012-05-08T10:18:21Z</time>
      </trkpt>
      <trkpt lat="44.57717" lon="0.69403">
        <ele>153.47</ele>
        <time>2012-05-08T10:18:23Z</time>
      </trkpt>
      <trkpt lat="44.57668" lon="0.69344">
        <ele>145.78</ele>
        <time>2012-05-08T10:18:32Z</time>
      </trkpt>
      <trkpt lat="44.57636" lon="0.69306">
        <ele>140.49</ele>
        <time>2012-05-08T10:18:40Z</time>
      </trkpt>
      <trkpt lat="44.57633" lon="0.69298">
        <ele>140.01</ele>
        <time>2012-05-08T10:18:42Z</time>
      </trkpt>
      <trkpt lat="44.57632" lon="0.69291">
        <ele>139.05</ele>
        <time>2012-05-08T10:18:43Z</time>
      </trkpt>
      <trkpt lat="44.57631" lon="0.69284">
        <ele>138.09</ele>
        <time>2012-05-08T10:18:44Z</time>
      </trkpt>
      <trkpt lat="44.5762" lon="0.69214">
        <ele>129.43</ele>
        <time>2012-05-08T10:18:54Z</time>
      </trkpt>
      <trkpt lat="44.57619" lon="0.69207">
        <ele>128.47</ele>
        <time>2012-05-08T10:18:56Z</time>
      </trkpt>
      <trkpt lat="44.57618" lon="0.69204">
        <ele>127.99</ele>
        <time>2012-05-08T10:18:57Z</time>
      </trkpt>
      <trkpt lat="44.57617" lon="0.692">
        <ele>127.51</ele>
        <time>2012-05-08T10:18:58Z</time>
      </trkpt>
      <trkpt lat="44.57616" lon="0.69196">
        <ele>127.03</ele>
        <time>2012-05-08T10:18:59Z</time>
      </trkpt>
      <trkpt lat="44.57615" lon="0.69191">
        <ele>126.55</ele>
        <time>2012-05-08T10:19:00Z</time>
      </trkpt>
      <trkpt lat="44.57599" lon="0.69134">
        <ele>124.63</ele>
        <time>2012-05-08T10:19:13Z</time>
      </trkpt>
      <trkpt lat="44.5758" lon="0.69084">
        <ele>124.15</ele>
        <time>2012-05-08T10:19:24Z</time>
      </trkpt>
      <trkpt lat="44.57563" lon="0.69029">
        <ele>123.67</ele>
        <time>2012-05-08T10:19:36Z</time>
      </trkpt>
      <trkpt lat="44.57548" lon="0.68991">
        <ele>126.55</ele>
        <time>2012-05-08T10:19:49Z</time>
      </trkpt>
      <trkpt lat="44.57536" lon="0.6896">
        <ele>130.88</ele>
        <time>2012-05-08T10:20:04Z</time>
      </trkpt>
      <trkpt lat="44.57533" lon="0.68955">
        <ele>131.36</ele>
        <time>2012-05-08T10:20:07Z</time>
      </trkpt>
      <trkpt lat="44.57531" lon="0.68953">
        <ele>131.84</ele>
        <time>2012-05-08T10:20:08Z</time>
      </trkpt>
      <trkpt lat="44.57529" lon="0.68952">
        <ele>132.32</ele>
        <time>2012-05-08T10:20:09Z</time>
      </trkpt>
      <trkpt lat="44.57527" lon="0.6895">
        <ele>132.8</ele>
        <time>2012-05-08T10:20:10Z</time>
      </trkpt>
      <trkpt lat="44.57524" lon="0.68949">
        <ele>132.8</ele>
        <time>2012-05-08T10:20:11Z</time>
      </trkpt>
      <trkpt lat="44.57522" lon="0.68948">
        <ele>133.28</ele>
        <time>2012-05-08T10:20:12Z</time>
      </trkpt>
      <trkpt lat="44.57519" lon="0.68948">
        <ele>133.28</ele>
        <time>2012-05-08T10:20:13Z</time>
      </trkpt>
      <trkpt lat="44.57516" lon="0.68949">
        <ele>133.76</ele>
        <time>2012-05-08T10:20:14Z</time>
      </trkpt>
      <trkpt lat="44.57513" lon="0.68951">
        <ele>133.76</ele>
        <time>2012-05-08T10:20:15Z</time>
      </trkpt>
      <trkpt lat="44.57475" lon="0.6894">
        <ele>134.24</ele>
        <time>2012-05-08T10:20:26Z</time>
      </trkpt>
      <trkpt lat="44.57441" lon="0.68926">
        <ele>132.8</ele>
        <time>2012-05-08T10:20:35Z</time>
      </trkpt>
      <trkpt lat="44.57436" lon="0.68923">
        <ele>131.84</ele>
        <time>2012-05-08T10:20:36Z</time>
      </trkpt>
      <trkpt lat="44.57432" lon="0.68918">
        <ele>130.88</ele>
        <time>2012-05-08T10:20:37Z</time>
      </trkpt>
      <trkpt lat="44.57425" lon="0.68907">
        <ele>128.95</ele>
        <time>2012-05-08T10:20:39Z</time>
      </trkpt>
      <trkpt lat="44.5742" lon="0.68902">
        <ele>127.51</ele>
        <time>2012-05-08T10:20:40Z</time>
      </trkpt>
      <trkpt lat="44.57414" lon="0.68898">
        <ele>126.07</ele>
        <time>2012-05-08T10:20:41Z</time>
      </trkpt>
      <trkpt lat="44.57354" lon="0.68855">
        <ele>115.98</ele>
        <time>2012-05-08T10:20:49Z</time>
      </trkpt>
      <trkpt lat="44.57331" lon="0.68848">
        <ele>114.53</ele>
        <time>2012-05-08T10:20:52Z</time>
      </trkpt>
      <trkpt lat="44.57324" lon="0.68848">
        <ele>114.53</ele>
        <time>2012-05-08T10:20:53Z</time>
      </trkpt>
      <trkpt lat="44.57312" lon="0.68849">
        <ele>114.53</ele>
        <time>2012-05-08T10:20:55Z</time>
      </trkpt>
      <trkpt lat="44.57296" lon="0.68852">
        <ele>114.53</ele>
        <time>2012-05-08T10:20:58Z</time>
      </trkpt>
      <trkpt lat="44.5729" lon="0.6885">
        <ele>114.53</ele>
        <time>2012-05-08T10:20:59Z</time>
      </trkpt>
      <trkpt lat="44.57286" lon="0.68848">
        <ele>114.53</ele>
        <time>2012-05-08T10:21:00Z</time>
      </trkpt>
      <trkpt lat="44.57255" lon="0.6883">
        <ele>114.53</ele>
        <time>2012-05-08T10:21:10Z</time>
      </trkpt>
      <trkpt lat="44.57223" lon="0.68809">
        <ele>117.9</ele>
        <time>2012-05-08T10:21:25Z</time>
      </trkpt>
      <trkpt lat="44.57185" lon="0.68779">
        <ele>120.3</ele>
        <time>2012-05-08T10:21:45Z</time>
      </trkpt>
      <trkpt lat="44.57163" lon="0.68767">
        <ele>124.15</ele>
        <time>2012-05-08T10:22:02Z</time>
      </trkpt>
      <trkpt lat="44.5715" lon="0.6877">
        <ele>127.99</ele>
        <time>2012-05-08T10:22:14Z</time>
      </trkpt>
      <trkpt lat="44.57136" lon="0.68776">
        <ele>131.36</ele>
        <time>2012-05-08T10:22:26Z</time>
      </trkpt>
      <trkpt lat="44.57123" lon="0.68779">
        <ele>133.28</ele>
        <time>2012-05-08T10:22:35Z</time>
      </trkpt>
      <trkpt lat="44.57122" lon="0.68779">
        <ele>133.28</ele>
        <time>2012-05-08T10:22:36Z</time>
      </trkpt>
      <trkpt lat="44.57121" lon="0.68778">
        <ele>133.28</ele>
        <time>2012-05-08T10:22:37Z</time>
      </trkpt>
      <trkpt lat="44.57117" lon="0.68775">
        <ele>133.76</ele>
        <time>2012-05-08T10:22:40Z</time>
      </trkpt>
      <trkpt lat="44.57116" lon="0.68775">
        <ele>133.76</ele>
        <time>2012-05-08T10:22:41Z</time>
      </trkpt>
      <trkpt lat="44.57115" lon="0.68775">
        <ele>134.24</ele>
        <time>2012-05-08T10:22:42Z</time>
      </trkpt>
      <trkpt lat="44.571" lon="0.68764">
        <ele>135.68</ele>
        <time>2012-05-08T10:22:54Z</time>
      </trkpt>
      <trkpt lat="44.57098" lon="0.68763">
        <ele>135.68</ele>
        <time>2012-05-08T10:22:55Z</time>
      </trkpt>
      <trkpt lat="44.57096" lon="0.68763">
        <ele>135.68</ele>
        <time>2012-05-08T10:22:56Z</time>
      </trkpt>
      <trkpt lat="44.57095" lon="0.68762">
        <ele>135.68</ele>
        <time>2012-05-08T10:22:57Z</time>
      </trkpt>
      <trkpt lat="44.57093" lon="0.68762">
        <ele>135.68</ele>
        <time>2012-05-08T10:22:58Z</time>
      </trkpt>
      <trkpt lat="44.57092" lon="0.68762">
        <ele>136.16</ele>
        <time>2012-05-08T10:22:59Z</time>
      </trkpt>
      <trkpt lat="44.57091" lon="0.68762">
        <ele>136.16</ele>
        <time>2012-05-08T10:23:00Z</time>
      </trkpt>
      <trkpt lat="44.57085" lon="0.68761">
        <ele>137.13</ele>
        <time>2012-05-08T10:23:05Z</time>
      </trkpt>
      <trkpt lat="44.57064" lon="0.68746">
        <ele>140.01</ele>
        <time>2012-05-08T10:23:21Z</time>
      </trkpt>
      <trkpt lat="44.57056" lon="0.68744">
        <ele>140.01</ele>
        <time>2012-05-08T10:23:25Z</time>
      </trkpt>
      <trkpt lat="44.57044" lon="0.68787">
        <ele>138.57</ele>
        <time>2012-05-08T10:23:36Z</time>
      </trkpt>
      <trkpt lat="44.57041" lon="0.68797">
        <ele>138.09</ele>
        <time>2012-05-08T10:23:38Z</time>
      </trkpt>
      <trkpt lat="44.57017" lon="0.68888">
        <ele>135.2</ele>
        <time>2012-05-08T10:23:53Z</time>
      </trkpt>
      <trkpt lat="44.57015" lon="0.68895">
        <ele>134.72</ele>
        <time>2012-05-08T10:23:54Z</time>
      </trkpt>
      <trkpt lat="44.56994" lon="0.68949">
        <ele>132.32</ele>
        <time>2012-05-08T10:24:03Z</time>
      </trkpt>
      <trkpt lat="44.56991" lon="0.68952">
        <ele>131.84</ele>
        <time>2012-05-08T10:24:04Z</time>
      </trkpt>
      <trkpt lat="44.56987" lon="0.68952">
        <ele>131.84</ele>
        <time>2012-05-08T10:24:05Z</time>
      </trkpt>
      <trkpt lat="44.5695" lon="0.68932">
        <ele>129.92</ele>
        <time>2012-05-08T10:24:16Z</time>
      </trkpt>
      <trkpt lat="44.56917" lon="0.68911">
        <ele>128.47</ele>
        <time>2012-05-08T10:24:24Z</time>
      </trkpt>
      <trkpt lat="44.56913" lon="0.68908">
        <ele>128.47</ele>
        <time>2012-05-08T10:24:25Z</time>
      </trkpt>
      <trkpt lat="44.56881" lon="0.68888">
        <ele>125.59</ele>
        <time>2012-05-08T10:24:32Z</time>
      </trkpt>
      <trkpt lat="44.56875" lon="0.68888">
        <ele>125.11</ele>
        <time>2012-05-08T10:24:33Z</time>
      </trkpt>
      <trkpt lat="44.5687" lon="0.6889">
        <ele>124.63</ele>
        <time>2012-05-08T10:24:34Z</time>
      </trkpt>
      <trkpt lat="44.56866" lon="0.68895">
        <ele>124.15</ele>
        <time>2012-05-08T10:24:35Z</time>
      </trkpt>
      <trkpt lat="44.56863" lon="0.68902">
        <ele>123.19</ele>
        <time>2012-05-08T10:24:36Z</time>
      </trkpt>
      <trkpt lat="44.5686" lon="0.6891">
        <ele>122.71</ele>
        <time>2012-05-08T10:24:37Z</time>
      </trkpt>
      <trkpt lat="44.56858" lon="0.68918">
        <ele>121.74</ele>
        <time>2012-05-08T10:24:38Z</time>
      </trkpt>
      <trkpt lat="44.56854" lon="0.68925">
        <ele>121.26</ele>
        <time>2012-05-08T10:24:39Z</time>
      </trkpt>
      <trkpt lat="44.56849" lon="0.68931">
        <ele>120.3</ele>
        <time>2012-05-08T10:24:40Z</time>
      </trkpt>
      <trkpt lat="44.56843" lon="0.68934">
        <ele>119.34</ele>
        <time>2012-05-08T10:24:41Z</time>
      </trkpt>
      <trkpt lat="44.56835" lon="0.68935">
        <ele>118.38</ele>
        <time>2012-05-08T10:24:42Z</time>
      </trkpt>
      <trkpt lat="44.56827" lon="0.68934">
        <ele>117.42</ele>
        <time>2012-05-08T10:24:43Z</time>
      </trkpt>
      <trkpt lat="44.56819" lon="0.68933">
        <ele>116.46</ele>
        <time>2012-05-08T10:24:44Z</time>
      </trkpt>
      <trkpt lat="44.56811" lon="0.68931">
        <ele>115.5</ele>
        <time>2012-05-08T10:24:45Z</time>
      </trkpt>
      <trkpt lat="44.56789" lon="0.68925">
        <ele>112.13</ele>
        <time>2012-05-08T10:24:48Z</time>
      </trkpt>
      <trkpt lat="44.56703" lon="0.68901">
        <ele>103.48</ele>
        <time>2012-05-08T10:24:58Z</time>
      </trkpt>
      <trkpt lat="44.56688" lon="0.68892">
        <ele>103</ele>
        <time>2012-05-08T10:25:00Z</time>
      </trkpt>
      <trkpt lat="44.56681" lon="0.68889">
        <ele>103</ele>
        <time>2012-05-08T10:25:01Z</time>
      </trkpt>
      <trkpt lat="44.56651" lon="0.68878">
        <ele>103</ele>
        <time>2012-05-08T10:25:06Z</time>
      </trkpt>
      <trkpt lat="44.5662" lon="0.68858">
        <ele>104.92</ele>
        <time>2012-05-08T10:25:17Z</time>
      </trkpt>
      <trkpt lat="44.56585" lon="0.68843">
        <ele>107.81</ele>
        <time>2012-05-08T10:25:34Z</time>
      </trkpt>
      <trkpt lat="44.56551" lon="0.68828">
        <ele>111.17</ele>
        <time>2012-05-08T10:25:54Z</time>
      </trkpt>
      <trkpt lat="44.56528" lon="0.68816">
        <ele>113.57</ele>
        <time>2012-05-08T10:26:10Z</time>
      </trkpt>
      <trkpt lat="44.56506" lon="0.68806">
        <ele>117.9</ele>
        <time>2012-05-08T10:26:27Z</time>
      </trkpt>
      <trkpt lat="44.56484" lon="0.68801">
        <ele>119.82</ele>
        <time>2012-05-08T10:26:42Z</time>
      </trkpt>
      <trkpt lat="44.56459" lon="0.68789">
        <ele>118.86</ele>
        <time>2012-05-08T10:26:55Z</time>
      </trkpt>
      <trkpt lat="44.56423" lon="0.68771">
        <ele>120.3</ele>
        <time>2012-05-08T10:27:10Z</time>
      </trkpt>
      <trkpt lat="44.56379" lon="0.68753">
        <ele>122.71</ele>
        <time>2012-05-08T10:27:26Z</time>
      </trkpt>
      <trkpt lat="44.56333" lon="0.68739">
        <ele>124.15</ele>
        <time>2012-05-08T10:27:42Z</time>
      </trkpt>
      <trkpt lat="44.56339" lon="0.68709">
        <ele>124.15</ele>
        <time>2012-05-08T10:27:52Z</time>
      </trkpt>
      <trkpt lat="44.56353" lon="0.68649">
        <ele>125.11</ele>
        <time>2012-05-08T10:28:06Z</time>
      </trkpt>
      <trkpt lat="44.56372" lon="0.68583">
        <ele>127.03</ele>
        <time>2012-05-08T10:28:23Z</time>
      </trkpt>
      <trkpt lat="44.56394" lon="0.68512">
        <ele>128.47</ele>
        <time>2012-05-08T10:28:41Z</time>
      </trkpt>
      <trkpt lat="44.56415" lon="0.68441">
        <ele>129.92</ele>
        <time>2012-05-08T10:28:58Z</time>
      </trkpt>
      <trkpt lat="44.56444" lon="0.68417">
        <ele>131.84</ele>
        <time>2012-05-08T10:29:09Z</time>
      </trkpt>
      <trkpt lat="44.5648" lon="0.68416">
        <ele>132.32</ele>
        <time>2012-05-08T10:29:17Z</time>
      </trkpt>
      <trkpt lat="44.56485" lon="0.68414">
        <ele>132.32</ele>
        <time>2012-05-08T10:29:18Z</time>
      </trkpt>
      <trkpt lat="44.56489" lon="0.68411">
        <ele>131.84</ele>
        <time>2012-05-08T10:29:19Z</time>
      </trkpt>
      <trkpt lat="44.56493" lon="0.68408">
        <ele>131.84</ele>
        <time>2012-05-08T10:29:20Z</time>
      </trkpt>
      <trkpt lat="44.56497" lon="0.68404">
        <ele>131.84</ele>
        <time>2012-05-08T10:29:21Z</time>
      </trkpt>
      <trkpt lat="44.56501" lon="0.684">
        <ele>131.84</ele>
        <time>2012-05-08T10:29:22Z</time>
      </trkpt>
      <trkpt lat="44.56504" lon="0.68396">
        <ele>131.36</ele>
        <time>2012-05-08T10:29:23Z</time>
      </trkpt>
      <trkpt lat="44.56539" lon="0.68333">
        <ele>129.43</ele>
        <time>2012-05-08T10:29:35Z</time>
      </trkpt>
      <trkpt lat="44.56558" lon="0.68291">
        <ele>129.92</ele>
        <time>2012-05-08T10:29:44Z</time>
      </trkpt>
      <trkpt lat="44.56551" lon="0.68274">
        <ele>131.84</ele>
        <time>2012-05-08T10:29:52Z</time>
      </trkpt>
      <trkpt lat="44.56539" lon="0.68271">
        <ele>136.16</ele>
        <time>2012-05-08T10:29:59Z</time>
      </trkpt>
      <trkpt lat="44.56507" lon="0.68248">
        <ele>141.45</ele>
        <time>2012-05-08T10:30:16Z</time>
      </trkpt>
      <trkpt lat="44.56478" lon="0.68224">
        <ele>141.93</ele>
        <time>2012-05-08T10:30:31Z</time>
      </trkpt>
      <trkpt lat="44.56429" lon="0.68183">
        <ele>140.49</ele>
        <time>2012-05-08T10:30:48Z</time>
      </trkpt>
      <trkpt lat="44.56387" lon="0.68151">
        <ele>140.49</ele>
        <time>2012-05-08T10:31:02Z</time>
      </trkpt>
      <trkpt lat="44.56351" lon="0.68111">
        <ele>139.53</ele>
        <time>2012-05-08T10:31:14Z</time>
      </trkpt>
      <trkpt lat="44.5634" lon="0.68102">
        <ele>138.57</ele>
        <time>2012-05-08T10:31:17Z</time>
      </trkpt>
      <trkpt lat="44.56336" lon="0.681">
        <ele>138.09</ele>
        <time>2012-05-08T10:31:18Z</time>
      </trkpt>
      <trkpt lat="44.56332" lon="0.68098">
        <ele>138.09</ele>
        <time>2012-05-08T10:31:19Z</time>
      </trkpt>
      <trkpt lat="44.56312" lon="0.68087">
        <ele>136.64</ele>
        <time>2012-05-08T10:31:24Z</time>
      </trkpt>
      <trkpt lat="44.56307" lon="0.68086">
        <ele>136.16</ele>
        <time>2012-05-08T10:31:25Z</time>
      </trkpt>
      <trkpt lat="44.56302" lon="0.68086">
        <ele>136.16</ele>
        <time>2012-05-08T10:31:26Z</time>
      </trkpt>
      <trkpt lat="44.56298" lon="0.68088">
        <ele>136.16</ele>
        <time>2012-05-08T10:31:27Z</time>
      </trkpt>
      <trkpt lat="44.56292" lon="0.6809">
        <ele>136.16</ele>
        <time>2012-05-08T10:31:28Z</time>
      </trkpt>
      <trkpt lat="44.56287" lon="0.68091">
        <ele>135.68</ele>
        <time>2012-05-08T10:31:29Z</time>
      </trkpt>
      <trkpt lat="44.56281" lon="0.68092">
        <ele>135.68</ele>
        <time>2012-05-08T10:31:30Z</time>
      </trkpt>
      <trkpt lat="44.56275" lon="0.68092">
        <ele>135.2</ele>
        <time>2012-05-08T10:31:31Z</time>
      </trkpt>
      <trkpt lat="44.56268" lon="0.68091">
        <ele>135.2</ele>
        <time>2012-05-08T10:31:32Z</time>
      </trkpt>
      <trkpt lat="44.56262" lon="0.68089">
        <ele>134.72</ele>
        <time>2012-05-08T10:31:33Z</time>
      </trkpt>
      <trkpt lat="44.56255" lon="0.68086">
        <ele>134.24</ele>
        <time>2012-05-08T10:31:34Z</time>
      </trkpt>
      <trkpt lat="44.56232" lon="0.6808">
        <ele>132.8</ele>
        <time>2012-05-08T10:31:37Z</time>
      </trkpt>
      <trkpt lat="44.56223" lon="0.6808">
        <ele>131.84</ele>
        <time>2012-05-08T10:31:38Z</time>
      </trkpt>
      <trkpt lat="44.56214" lon="0.68082">
        <ele>130.4</ele>
        <time>2012-05-08T10:31:39Z</time>
      </trkpt>
      <trkpt lat="44.56205" lon="0.68087">
        <ele>129.43</ele>
        <time>2012-05-08T10:31:40Z</time>
      </trkpt>
      <trkpt lat="44.56196" lon="0.68095">
        <ele>128.95</ele>
        <time>2012-05-08T10:31:41Z</time>
      </trkpt>
      <trkpt lat="44.56189" lon="0.68104">
        <ele>127.99</ele>
        <time>2012-05-08T10:31:42Z</time>
      </trkpt>
      <trkpt lat="44.56184" lon="0.68115">
        <ele>127.99</ele>
        <time>2012-05-08T10:31:43Z</time>
      </trkpt>
      <trkpt lat="44.56179" lon="0.68125">
        <ele>127.51</ele>
        <time>2012-05-08T10:31:44Z</time>
      </trkpt>
      <trkpt lat="44.56173" lon="0.68134">
        <ele>127.51</ele>
        <time>2012-05-08T10:31:45Z</time>
      </trkpt>
      <trkpt lat="44.56166" lon="0.68141">
        <ele>127.51</ele>
        <time>2012-05-08T10:31:46Z</time>
      </trkpt>
      <trkpt lat="44.56159" lon="0.68147">
        <ele>127.51</ele>
        <time>2012-05-08T10:31:47Z</time>
      </trkpt>
      <trkpt lat="44.56152" lon="0.68151">
        <ele>127.99</ele>
        <time>2012-05-08T10:31:48Z</time>
      </trkpt>
      <trkpt lat="44.56146" lon="0.68153">
        <ele>127.99</ele>
        <time>2012-05-08T10:31:49Z</time>
      </trkpt>
      <trkpt lat="44.56141" lon="0.68154">
        <ele>127.51</ele>
        <time>2012-05-08T10:31:50Z</time>
      </trkpt>
      <trkpt lat="44.56138" lon="0.68152">
        <ele>127.03</ele>
        <time>2012-05-08T10:31:51Z</time>
      </trkpt>
      <trkpt lat="44.56136" lon="0.68146">
        <ele>126.55</ele>
        <time>2012-05-08T10:31:52Z</time>
      </trkpt>
      <trkpt lat="44.56137" lon="0.68139">
        <ele>126.07</ele>
        <time>2012-05-08T10:31:53Z</time>
      </trkpt>
      <trkpt lat="44.56139" lon="0.68132">
        <ele>125.11</ele>
        <time>2012-05-08T10:31:54Z</time>
      </trkpt>
      <trkpt lat="44.5614" lon="0.68123">
        <ele>124.63</ele>
        <time>2012-05-08T10:31:55Z</time>
      </trkpt>
      <trkpt lat="44.56152" lon="0.6806">
        <ele>120.78</ele>
        <time>2012-05-08T10:32:01Z</time>
      </trkpt>
      <trkpt lat="44.56152" lon="0.68048">
        <ele>120.3</ele>
        <time>2012-05-08T10:32:02Z</time>
      </trkpt>
      <trkpt lat="44.56152" lon="0.68035">
        <ele>119.82</ele>
        <time>2012-05-08T10:32:03Z</time>
      </trkpt>
      <trkpt lat="44.5615" lon="0.68023">
        <ele>118.86</ele>
        <time>2012-05-08T10:32:04Z</time>
      </trkpt>
      <trkpt lat="44.56147" lon="0.6801">
        <ele>118.38</ele>
        <time>2012-05-08T10:32:05Z</time>
      </trkpt>
      <trkpt lat="44.56142" lon="0.67998">
        <ele>117.9</ele>
        <time>2012-05-08T10:32:06Z</time>
      </trkpt>
      <trkpt lat="44.56137" lon="0.67987">
        <ele>117.9</ele>
        <time>2012-05-08T10:32:07Z</time>
      </trkpt>
      <trkpt lat="44.56132" lon="0.67976">
        <ele>117.42</ele>
        <time>2012-05-08T10:32:08Z</time>
      </trkpt>
      <trkpt lat="44.56126" lon="0.67966">
        <ele>117.42</ele>
        <time>2012-05-08T10:32:09Z</time>
      </trkpt>
      <trkpt lat="44.5612" lon="0.67958">
        <ele>117.42</ele>
        <time>2012-05-08T10:32:10Z</time>
      </trkpt>
      <trkpt lat="44.56098" lon="0.67929">
        <ele>118.86</ele>
        <time>2012-05-08T10:32:14Z</time>
      </trkpt>
      <trkpt lat="44.56074" lon="0.67896">
        <ele>125.59</ele>
        <time>2012-05-08T10:32:23Z</time>
      </trkpt>
      <trkpt lat="44.56033" lon="0.67907">
        <ele>125.59</ele>
        <time>2012-05-08T10:32:34Z</time>
      </trkpt>
      <trkpt lat="44.56028" lon="0.67908">
        <ele>125.59</ele>
        <time>2012-05-08T10:32:35Z</time>
      </trkpt>
      <trkpt lat="44.56023" lon="0.67907">
        <ele>125.11</ele>
        <time>2012-05-08T10:32:36Z</time>
      </trkpt>
      <trkpt lat="44.56018" lon="0.67905">
        <ele>124.63</ele>
        <time>2012-05-08T10:32:37Z</time>
      </trkpt>
      <trkpt lat="44.56013" lon="0.679">
        <ele>124.15</ele>
        <time>2012-05-08T10:32:38Z</time>
      </trkpt>
      <trkpt lat="44.56009" lon="0.67895">
        <ele>123.19</ele>
        <time>2012-05-08T10:32:39Z</time>
      </trkpt>
      <trkpt lat="44.56004" lon="0.6789">
        <ele>122.22</ele>
        <time>2012-05-08T10:32:40Z</time>
      </trkpt>
      <trkpt lat="44.55933" lon="0.67811">
        <ele>115.98</ele>
        <time>2012-05-08T10:32:54Z</time>
      </trkpt>
      <trkpt lat="44.55888" lon="0.6776">
        <ele>115.01</ele>
        <time>2012-05-08T10:33:06Z</time>
      </trkpt>
      <trkpt lat="44.55855" lon="0.67725">
        <ele>114.53</ele>
        <time>2012-05-08T10:33:19Z</time>
      </trkpt>
      <trkpt lat="44.55828" lon="0.67699">
        <ele>114.05</ele>
        <time>2012-05-08T10:33:31Z</time>
      </trkpt>
      <trkpt lat="44.55823" lon="0.67697">
        <ele>113.57</ele>
        <time>2012-05-08T10:33:34Z</time>
      </trkpt>
      <trkpt lat="44.55822" lon="0.67697">
        <ele>113.57</ele>
        <time>2012-05-08T10:33:35Z</time>
      </trkpt>
      <trkpt lat="44.55821" lon="0.67696">
        <ele>113.09</ele>
        <time>2012-05-08T10:33:36Z</time>
      </trkpt>
      <trkpt lat="44.5582" lon="0.67695">
        <ele>113.09</ele>
        <time>2012-05-08T10:33:37Z</time>
      </trkpt>
      <trkpt lat="44.55818" lon="0.67694">
        <ele>113.09</ele>
        <time>2012-05-08T10:33:38Z</time>
      </trkpt>
      <trkpt lat="44.55816" lon="0.67692">
        <ele>113.57</ele>
        <time>2012-05-08T10:33:39Z</time>
      </trkpt>
      <trkpt lat="44.55813" lon="0.6769">
        <ele>114.05</ele>
        <time>2012-05-08T10:33:40Z</time>
      </trkpt>
      <trkpt lat="44.55789" lon="0.67667">
        <ele>116.46</ele>
        <time>2012-05-08T10:33:52Z</time>
      </trkpt>
      <trkpt lat="44.55768" lon="0.67651">
        <ele>118.38</ele>
        <time>2012-05-08T10:34:05Z</time>
      </trkpt>
      <trkpt lat="44.55749" lon="0.67637">
        <ele>120.78</ele>
        <time>2012-05-08T10:34:19Z</time>
      </trkpt>
      <trkpt lat="44.55727" lon="0.67623">
        <ele>124.15</ele>
        <time>2012-05-08T10:34:34Z</time>
      </trkpt>
      <trkpt lat="44.55715" lon="0.67612">
        <ele>126.55</ele>
        <time>2012-05-08T10:34:44Z</time>
      </trkpt>
      <trkpt lat="44.55714" lon="0.67611">
        <ele>127.03</ele>
        <time>2012-05-08T10:34:45Z</time>
      </trkpt>
      <trkpt lat="44.55713" lon="0.67609">
        <ele>127.51</ele>
        <time>2012-05-08T10:34:46Z</time>
      </trkpt>
      <trkpt lat="44.55694" lon="0.67599">
        <ele>129.92</ele>
        <time>2012-05-08T10:34:59Z</time>
      </trkpt>
      <trkpt lat="44.55679" lon="0.67587">
        <ele>134.24</ele>
        <time>2012-05-08T10:35:11Z</time>
      </trkpt>
      <trkpt lat="44.55677" lon="0.67586">
        <ele>134.72</ele>
        <time>2012-05-08T10:35:12Z</time>
      </trkpt>
      <trkpt lat="44.55676" lon="0.67585">
        <ele>134.72</ele>
        <time>2012-05-08T10:35:13Z</time>
      </trkpt>
      <trkpt lat="44.55666" lon="0.67578">
        <ele>135.68</ele>
        <time>2012-05-08T10:35:19Z</time>
      </trkpt>
      <trkpt lat="44.55665" lon="0.67577">
        <ele>135.68</ele>
        <time>2012-05-08T10:35:20Z</time>
      </trkpt>
      <trkpt lat="44.55658" lon="0.67567">
        <ele>137.61</ele>
        <time>2012-05-08T10:35:27Z</time>
      </trkpt>
      <trkpt lat="44.55658" lon="0.67566">
        <ele>137.61</ele>
        <time>2012-05-08T10:35:28Z</time>
      </trkpt>
      <trkpt lat="44.55657" lon="0.67564">
        <ele>138.09</ele>
        <time>2012-05-08T10:35:29Z</time>
      </trkpt>
      <trkpt lat="44.55657" lon="0.67561">
        <ele>138.09</ele>
        <time>2012-05-08T10:35:31Z</time>
      </trkpt>
      <trkpt lat="44.55656" lon="0.67555">
        <ele>140.01</ele>
        <time>2012-05-08T10:35:36Z</time>
      </trkpt>
      <trkpt lat="44.55654" lon="0.67533">
        <ele>142.89</ele>
        <time>2012-05-08T10:35:49Z</time>
      </trkpt>
      <trkpt lat="44.55653" lon="0.6753">
        <ele>143.37</ele>
        <time>2012-05-08T10:35:51Z</time>
      </trkpt>
      <trkpt lat="44.55652" lon="0.67526">
        <ele>144.34</ele>
        <time>2012-05-08T10:35:53Z</time>
      </trkpt>
      <trkpt lat="44.55651" lon="0.67521">
        <ele>145.3</ele>
        <time>2012-05-08T10:35:56Z</time>
      </trkpt>
      <trkpt lat="44.55651" lon="0.6752">
        <ele>145.78</ele>
        <time>2012-05-08T10:35:57Z</time>
      </trkpt>
      <trkpt lat="44.55645" lon="0.67506">
        <ele>148.18</ele>
        <time>2012-05-08T10:36:07Z</time>
      </trkpt>
      <trkpt lat="44.55643" lon="0.67502">
        <ele>148.66</ele>
        <time>2012-05-08T10:36:11Z</time>
      </trkpt>
      <trkpt lat="44.55641" lon="0.67496">
        <ele>148.66</ele>
        <time>2012-05-08T10:36:15Z</time>
      </trkpt>
      <trkpt lat="44.55638" lon="0.67486">
        <ele>149.62</ele>
        <time>2012-05-08T10:36:20Z</time>
      </trkpt>
      <trkpt lat="44.55638" lon="0.67462">
        <ele>149.14</ele>
        <time>2012-05-08T10:36:34Z</time>
      </trkpt>
      <trkpt lat="44.55643" lon="0.67451">
        <ele>147.7</ele>
        <time>2012-05-08T10:36:41Z</time>
      </trkpt>
      <trkpt lat="44.55657" lon="0.67425">
        <ele>142.89</ele>
        <time>2012-05-08T10:36:53Z</time>
      </trkpt>
      <trkpt lat="44.55678" lon="0.67386">
        <ele>139.53</ele>
        <time>2012-05-08T10:37:02Z</time>
      </trkpt>
      <trkpt lat="44.55683" lon="0.67376">
        <ele>138.09</ele>
        <time>2012-05-08T10:37:04Z</time>
      </trkpt>
      <trkpt lat="44.55685" lon="0.6737">
        <ele>137.61</ele>
        <time>2012-05-08T10:37:05Z</time>
      </trkpt>
      <trkpt lat="44.55691" lon="0.67358">
        <ele>137.13</ele>
        <time>2012-05-08T10:37:07Z</time>
      </trkpt>
      <trkpt lat="44.55697" lon="0.67341">
        <ele>136.16</ele>
        <time>2012-05-08T10:37:10Z</time>
      </trkpt>
      <trkpt lat="44.557" lon="0.67329">
        <ele>135.68</ele>
        <time>2012-05-08T10:37:12Z</time>
      </trkpt>
      <trkpt lat="44.55716" lon="0.67287">
        <ele>135.68</ele>
        <time>2012-05-08T10:37:21Z</time>
      </trkpt>
      <trkpt lat="44.55717" lon="0.67284">
        <ele>135.2</ele>
        <time>2012-05-08T10:37:22Z</time>
      </trkpt>
      <trkpt lat="44.55735" lon="0.67233">
        <ele>136.64</ele>
        <time>2012-05-08T10:37:37Z</time>
      </trkpt>
      <trkpt lat="44.55746" lon="0.67185">
        <ele>138.09</ele>
        <time>2012-05-08T10:37:50Z</time>
      </trkpt>
      <trkpt lat="44.55752" lon="0.6714">
        <ele>138.09</ele>
        <time>2012-05-08T10:38:01Z</time>
      </trkpt>
      <trkpt lat="44.55765" lon="0.6707">
        <ele>139.05</ele>
        <time>2012-05-08T10:38:17Z</time>
      </trkpt>
      <trkpt lat="44.55779" lon="0.67015">
        <ele>139.05</ele>
        <time>2012-05-08T10:38:30Z</time>
      </trkpt>
      <trkpt lat="44.55789" lon="0.66975">
        <ele>138.57</ele>
        <time>2012-05-08T10:38:42Z</time>
      </trkpt>
      <trkpt lat="44.5579" lon="0.66972">
        <ele>138.57</ele>
        <time>2012-05-08T10:38:43Z</time>
      </trkpt>
      <trkpt lat="44.5579" lon="0.66969">
        <ele>138.57</ele>
        <time>2012-05-08T10:38:44Z</time>
      </trkpt>
      <trkpt lat="44.55806" lon="0.6692">
        <ele>139.53</ele>
        <time>2012-05-08T10:38:57Z</time>
      </trkpt>
      <trkpt lat="44.55824" lon="0.66868">
        <ele>142.41</ele>
        <time>2012-05-08T10:39:13Z</time>
      </trkpt>
      <trkpt lat="44.55837" lon="0.66823">
        <ele>140.01</ele>
        <time>2012-05-08T10:39:28Z</time>
      </trkpt>
      <trkpt lat="44.55839" lon="0.66818">
        <ele>140.01</ele>
        <time>2012-05-08T10:39:30Z</time>
      </trkpt>
      <trkpt lat="44.55839" lon="0.66816">
        <ele>140.01</ele>
        <time>2012-05-08T10:39:31Z</time>
      </trkpt>
      <trkpt lat="44.55851" lon="0.66777">
        <ele>141.45</ele>
        <time>2012-05-08T10:39:44Z</time>
      </trkpt>
      <trkpt lat="44.55862" lon="0.66736">
        <ele>140.01</ele>
        <time>2012-05-08T10:39:55Z</time>
      </trkpt>
      <trkpt lat="44.55884" lon="0.66678">
        <ele>142.89</ele>
        <time>2012-05-08T10:40:08Z</time>
      </trkpt>
      <trkpt lat="44.55892" lon="0.66667">
        <ele>143.37</ele>
        <time>2012-05-08T10:40:12Z</time>
      </trkpt>
      <trkpt lat="44.55892" lon="0.66664">
        <ele>143.85</ele>
        <time>2012-05-08T10:40:13Z</time>
      </trkpt>
      <trkpt lat="44.55892" lon="0.66661">
        <ele>143.85</ele>
        <time>2012-05-08T10:40:14Z</time>
      </trkpt>
      <trkpt lat="44.55892" lon="0.66659">
        <ele>144.34</ele>
        <time>2012-05-08T10:40:15Z</time>
      </trkpt>
      <trkpt lat="44.5589" lon="0.66657">
        <ele>144.34</ele>
        <time>2012-05-08T10:40:16Z</time>
      </trkpt>
      <trkpt lat="44.55888" lon="0.66656">
        <ele>144.82</ele>
        <time>2012-05-08T10:40:17Z</time>
      </trkpt>
      <trkpt lat="44.55887" lon="0.66656">
        <ele>144.82</ele>
        <time>2012-05-08T10:40:18Z</time>
      </trkpt>
      <trkpt lat="44.55885" lon="0.66656">
        <ele>145.3</ele>
        <time>2012-05-08T10:40:19Z</time>
      </trkpt>
      <trkpt lat="44.55883" lon="0.66655">
        <ele>145.3</ele>
        <time>2012-05-08T10:40:20Z</time>
      </trkpt>
      <trkpt lat="44.55882" lon="0.66654">
        <ele>145.3</ele>
        <time>2012-05-08T10:40:21Z</time>
      </trkpt>
      <trkpt lat="44.55881" lon="0.66652">
        <ele>145.78</ele>
        <time>2012-05-08T10:40:22Z</time>
      </trkpt>
      <trkpt lat="44.5588" lon="0.66651">
        <ele>145.78</ele>
        <time>2012-05-08T10:40:23Z</time>
      </trkpt>
      <trkpt lat="44.55878" lon="0.6665">
        <ele>146.26</ele>
        <time>2012-05-08T10:40:24Z</time>
      </trkpt>
      <trkpt lat="44.55873" lon="0.66652">
        <ele>146.26</ele>
        <time>2012-05-08T10:40:34Z</time>
      </trkpt>
      <trkpt lat="44.55872" lon="0.66653">
        <ele>145.78</ele>
        <time>2012-05-08T10:40:49Z</time>
      </trkpt>
      <trkpt lat="44.55873" lon="0.66653">
        <ele>145.78</ele>
        <time>2012-05-08T10:41:17Z</time>
      </trkpt>
      <trkpt lat="44.55873" lon="0.66654">
        <ele>146.26</ele>
        <time>2012-05-08T10:41:50Z</time>
      </trkpt>
      <trkpt lat="44.55873" lon="0.66655">
        <ele>146.26</ele>
        <time>2012-05-08T10:42:29Z</time>
      </trkpt>
      <trkpt lat="44.55875" lon="0.66654">
        <ele>146.74</ele>
        <time>2012-05-08T10:43:03Z</time>
      </trkpt>
      <trkpt lat="44.55877" lon="0.66653">
        <ele>146.74</ele>
        <time>2012-05-08T10:43:36Z</time>
      </trkpt>
      <trkpt lat="44.55877" lon="0.66653">
        <ele>146.26</ele>
        <time>2012-05-08T10:44:04Z</time>
      </trkpt>
      <trkpt lat="44.55877" lon="0.66652">
        <ele>146.26</ele>
        <time>2012-05-08T10:44:34Z</time>
      </trkpt>
      <trkpt lat="44.55878" lon="0.66652">
        <ele>144.82</ele>
        <time>2012-05-08T10:45:12Z</time>
      </trkpt>
      <trkpt lat="44.55879" lon="0.66653">
        <ele>143.85</ele>
        <time>2012-05-08T10:45:52Z</time>
      </trkpt>
      <trkpt lat="44.55879" lon="0.66652">
        <ele>143.37</ele>
        <time>2012-05-08T10:46:28Z</time>
      </trkpt>
      <trkpt lat="44.55881" lon="0.66653">
        <ele>142.89</ele>
        <time>2012-05-08T10:46:54Z</time>
      </trkpt>
      <trkpt lat="44.55879" lon="0.66653">
        <ele>143.85</ele>
        <time>2012-05-08T10:47:27Z</time>
      </trkpt>
      <trkpt lat="44.55877" lon="0.66653">
        <ele>144.34</ele>
        <time>2012-05-08T10:47:42Z</time>
      </trkpt>
      <trkpt lat="44.55876" lon="0.66651">
        <ele>143.85</ele>
        <time>2012-05-08T10:47:43Z</time>
      </trkpt>
      <trkpt lat="44.55875" lon="0.6665">
        <ele>143.85</ele>
        <time>2012-05-08T10:47:44Z</time>
      </trkpt>
      <trkpt lat="44.55872" lon="0.66648">
        <ele>143.37</ele>
        <time>2012-05-08T10:47:46Z</time>
      </trkpt>
      <trkpt lat="44.55824" lon="0.66635">
        <ele>141.45</ele>
        <time>2012-05-08T10:47:59Z</time>
      </trkpt>
      <trkpt lat="44.55745" lon="0.66609">
        <ele>140.49</ele>
        <time>2012-05-08T10:48:15Z</time>
      </trkpt>
      <trkpt lat="44.55708" lon="0.66598">
        <ele>140.01</ele>
        <time>2012-05-08T10:48:22Z</time>
      </trkpt>
      <trkpt lat="44.55703" lon="0.66596">
        <ele>140.01</ele>
        <time>2012-05-08T10:48:23Z</time>
      </trkpt>
      <trkpt lat="44.55627" lon="0.66575">
        <ele>139.53</ele>
        <time>2012-05-08T10:48:38Z</time>
      </trkpt>
      <trkpt lat="44.55558" lon="0.66555">
        <ele>137.61</ele>
        <time>2012-05-08T10:48:52Z</time>
      </trkpt>
      <trkpt lat="44.55466" lon="0.66528">
        <ele>136.16</ele>
        <time>2012-05-08T10:49:08Z</time>
      </trkpt>
      <trkpt lat="44.55376" lon="0.66501">
        <ele>134.72</ele>
        <time>2012-05-08T10:49:25Z</time>
      </trkpt>
      <trkpt lat="44.5537" lon="0.66499">
        <ele>134.24</ele>
        <time>2012-05-08T10:49:26Z</time>
      </trkpt>
      <trkpt lat="44.55348" lon="0.66493">
        <ele>133.28</ele>
        <time>2012-05-08T10:49:30Z</time>
      </trkpt>
      <trkpt lat="44.55344" lon="0.66489">
        <ele>132.8</ele>
        <time>2012-05-08T10:49:31Z</time>
      </trkpt>
      <trkpt lat="44.55342" lon="0.66483">
        <ele>132.32</ele>
        <time>2012-05-08T10:49:32Z</time>
      </trkpt>
      <trkpt lat="44.55342" lon="0.66476">
        <ele>132.32</ele>
        <time>2012-05-08T10:49:33Z</time>
      </trkpt>
      <trkpt lat="44.55343" lon="0.66468">
        <ele>132.32</ele>
        <time>2012-05-08T10:49:34Z</time>
      </trkpt>
      <trkpt lat="44.55345" lon="0.66461">
        <ele>131.84</ele>
        <time>2012-05-08T10:49:35Z</time>
      </trkpt>
      <trkpt lat="44.55347" lon="0.66454">
        <ele>131.84</ele>
        <time>2012-05-08T10:49:36Z</time>
      </trkpt>
      <trkpt lat="44.55371" lon="0.66345">
        <ele>133.76</ele>
        <time>2012-05-08T10:49:50Z</time>
      </trkpt>
      <trkpt lat="44.55394" lon="0.66245">
        <ele>133.28</ele>
        <time>2012-05-08T10:50:04Z</time>
      </trkpt>
      <trkpt lat="44.55417" lon="0.66158">
        <ele>130.4</ele>
        <time>2012-05-08T10:50:13Z</time>
      </trkpt>
      <trkpt lat="44.55421" lon="0.66149">
        <ele>129.92</ele>
        <time>2012-05-08T10:50:14Z</time>
      </trkpt>
      <trkpt lat="44.55426" lon="0.6614">
        <ele>128.95</ele>
        <time>2012-05-08T10:50:15Z</time>
      </trkpt>
      <trkpt lat="44.55432" lon="0.66131">
        <ele>127.99</ele>
        <time>2012-05-08T10:50:16Z</time>
      </trkpt>
      <trkpt lat="44.55438" lon="0.66122">
        <ele>127.03</ele>
        <time>2012-05-08T10:50:17Z</time>
      </trkpt>
      <trkpt lat="44.55485" lon="0.6604">
        <ele>123.19</ele>
        <time>2012-05-08T10:50:25Z</time>
      </trkpt>
      <trkpt lat="44.55488" lon="0.66029">
        <ele>123.19</ele>
        <time>2012-05-08T10:50:26Z</time>
      </trkpt>
      <trkpt lat="44.55489" lon="0.66017">
        <ele>123.19</ele>
        <time>2012-05-08T10:50:27Z</time>
      </trkpt>
      <trkpt lat="44.55488" lon="0.66005">
        <ele>123.19</ele>
        <time>2012-05-08T10:50:28Z</time>
      </trkpt>
      <trkpt lat="44.55486" lon="0.65995">
        <ele>123.19</ele>
        <time>2012-05-08T10:50:29Z</time>
      </trkpt>
      <trkpt lat="44.55483" lon="0.65984">
        <ele>123.19</ele>
        <time>2012-05-08T10:50:30Z</time>
      </trkpt>
      <trkpt lat="44.55448" lon="0.65864">
        <ele>117.42</ele>
        <time>2012-05-08T10:50:43Z</time>
      </trkpt>
      <trkpt lat="44.55445" lon="0.65853">
        <ele>115.98</ele>
        <time>2012-05-08T10:50:45Z</time>
      </trkpt>
      <trkpt lat="44.55443" lon="0.65851">
        <ele>115.01</ele>
        <time>2012-05-08T10:50:46Z</time>
      </trkpt>
      <trkpt lat="44.55439" lon="0.65851">
        <ele>114.53</ele>
        <time>2012-05-08T10:50:47Z</time>
      </trkpt>
      <trkpt lat="44.55435" lon="0.65854">
        <ele>114.05</ele>
        <time>2012-05-08T10:50:48Z</time>
      </trkpt>
      <trkpt lat="44.55431" lon="0.65858">
        <ele>113.57</ele>
        <time>2012-05-08T10:50:49Z</time>
      </trkpt>
      <trkpt lat="44.55387" lon="0.65903">
        <ele>109.25</ele>
        <time>2012-05-08T10:50:58Z</time>
      </trkpt>
      <trkpt lat="44.55377" lon="0.65893">
        <ele>107.32</ele>
        <time>2012-05-08T10:51:01Z</time>
      </trkpt>
      <trkpt lat="44.55321" lon="0.6579">
        <ele>100.11</ele>
        <time>2012-05-08T10:51:17Z</time>
      </trkpt>
      <trkpt lat="44.55302" lon="0.65756">
        <ele>98.19</ele>
        <time>2012-05-08T10:51:22Z</time>
      </trkpt>
      <trkpt lat="44.55299" lon="0.65726">
        <ele>97.23</ele>
        <time>2012-05-08T10:51:26Z</time>
      </trkpt>
      <trkpt lat="44.55299" lon="0.65697">
        <ele>97.23</ele>
        <time>2012-05-08T10:51:30Z</time>
      </trkpt>
      <trkpt lat="44.55293" lon="0.65673">
        <ele>97.23</ele>
        <time>2012-05-08T10:51:34Z</time>
      </trkpt>
      <trkpt lat="44.55276" lon="0.65639">
        <ele>95.79</ele>
        <time>2012-05-08T10:51:39Z</time>
      </trkpt>
      <trkpt lat="44.55273" lon="0.65633">
        <ele>95.79</ele>
        <time>2012-05-08T10:51:40Z</time>
      </trkpt>
      <trkpt lat="44.55269" lon="0.65627">
        <ele>95.31</ele>
        <time>2012-05-08T10:51:41Z</time>
      </trkpt>
      <trkpt lat="44.55265" lon="0.65621">
        <ele>94.83</ele>
        <time>2012-05-08T10:51:42Z</time>
      </trkpt>
      <trkpt lat="44.55261" lon="0.65616">
        <ele>94.83</ele>
        <time>2012-05-08T10:51:43Z</time>
      </trkpt>
      <trkpt lat="44.55243" lon="0.65595">
        <ele>93.87</ele>
        <time>2012-05-08T10:51:47Z</time>
      </trkpt>
      <trkpt lat="44.55239" lon="0.6559">
        <ele>93.87</ele>
        <time>2012-05-08T10:51:48Z</time>
      </trkpt>
      <trkpt lat="44.5523" lon="0.65578">
        <ele>93.39</ele>
        <time>2012-05-08T10:51:51Z</time>
      </trkpt>
      <trkpt lat="44.55226" lon="0.65571">
        <ele>93.87</ele>
        <time>2012-05-08T10:51:58Z</time>
      </trkpt>
      <trkpt lat="44.55224" lon="0.65569">
        <ele>93.87</ele>
        <time>2012-05-08T10:51:59Z</time>
      </trkpt>
      <trkpt lat="44.55222" lon="0.65566">
        <ele>93.87</ele>
        <time>2012-05-08T10:52:00Z</time>
      </trkpt>
      <trkpt lat="44.55218" lon="0.65561">
        <ele>93.39</ele>
        <time>2012-05-08T10:52:07Z</time>
      </trkpt>
      <trkpt lat="44.55216" lon="0.65559">
        <ele>92.42</ele>
        <time>2012-05-08T10:52:24Z</time>
      </trkpt>
      <trkpt lat="44.55212" lon="0.65544">
        <ele>96.75</ele>
        <time>2012-05-08T10:52:38Z</time>
      </trkpt>
      <trkpt lat="44.55208" lon="0.65536">
        <ele>98.19</ele>
        <time>2012-05-08T10:52:48Z</time>
      </trkpt>
      <trkpt lat="44.55193" lon="0.65507">
        <ele>101.08</ele>
        <time>2012-05-08T10:53:01Z</time>
      </trkpt>
      <trkpt lat="44.55186" lon="0.65492">
        <ele>103.96</ele>
        <time>2012-05-08T10:53:10Z</time>
      </trkpt>
      <trkpt lat="44.55183" lon="0.65487">
        <ele>104.44</ele>
        <time>2012-05-08T10:53:15Z</time>
      </trkpt>
      <trkpt lat="44.5518" lon="0.65481">
        <ele>105.88</ele>
        <time>2012-05-08T10:53:20Z</time>
      </trkpt>
      <trkpt lat="44.55179" lon="0.6548">
        <ele>106.36</ele>
        <time>2012-05-08T10:53:21Z</time>
      </trkpt>
      <trkpt lat="44.55179" lon="0.65479">
        <ele>106.84</ele>
        <time>2012-05-08T10:53:22Z</time>
      </trkpt>
      <trkpt lat="44.55178" lon="0.65477">
        <ele>107.32</ele>
        <time>2012-05-08T10:53:23Z</time>
      </trkpt>
      <trkpt lat="44.55176" lon="0.65474">
        <ele>108.29</ele>
        <time>2012-05-08T10:53:26Z</time>
      </trkpt>
      <trkpt lat="44.55172" lon="0.65457">
        <ele>107.32</ele>
        <time>2012-05-08T10:53:37Z</time>
      </trkpt>
      <trkpt lat="44.55171" lon="0.65455">
        <ele>107.32</ele>
        <time>2012-05-08T10:53:38Z</time>
      </trkpt>
      <trkpt lat="44.5517" lon="0.65454">
        <ele>106.84</ele>
        <time>2012-05-08T10:53:39Z</time>
      </trkpt>
      <trkpt lat="44.55169" lon="0.65452">
        <ele>106.84</ele>
        <time>2012-05-08T10:53:40Z</time>
      </trkpt>
      <trkpt lat="44.55168" lon="0.6545">
        <ele>106.84</ele>
        <time>2012-05-08T10:53:41Z</time>
      </trkpt>
      <trkpt lat="44.55168" lon="0.65449">
        <ele>107.32</ele>
        <time>2012-05-08T10:53:42Z</time>
      </trkpt>
      <trkpt lat="44.55167" lon="0.65447">
        <ele>107.32</ele>
        <time>2012-05-08T10:53:43Z</time>
      </trkpt>
      <trkpt lat="44.55166" lon="0.65445">
        <ele>107.32</ele>
        <time>2012-05-08T10:53:44Z</time>
      </trkpt>
      <trkpt lat="44.55165" lon="0.65442">
        <ele>107.32</ele>
        <time>2012-05-08T10:53:45Z</time>
      </trkpt>
      <trkpt lat="44.55164" lon="0.6544">
        <ele>107.32</ele>
        <time>2012-05-08T10:53:46Z</time>
      </trkpt>
      <trkpt lat="44.55155" lon="0.65419">
        <ele>109.73</ele>
        <time>2012-05-08T10:53:58Z</time>
      </trkpt>
      <trkpt lat="44.55154" lon="0.65417">
        <ele>110.21</ele>
        <time>2012-05-08T10:53:59Z</time>
      </trkpt>
      <trkpt lat="44.55154" lon="0.65415">
        <ele>110.69</ele>
        <time>2012-05-08T10:54:00Z</time>
      </trkpt>
      <trkpt lat="44.55154" lon="0.65413">
        <ele>111.17</ele>
        <time>2012-05-08T10:54:01Z</time>
      </trkpt>
      <trkpt lat="44.55153" lon="0.65411">
        <ele>111.65</ele>
        <time>2012-05-08T10:54:02Z</time>
      </trkpt>
      <trkpt lat="44.55153" lon="0.6541">
        <ele>111.65</ele>
        <time>2012-05-08T10:54:03Z</time>
      </trkpt>
      <trkpt lat="44.55156" lon="0.65385">
        <ele>111.17</ele>
        <time>2012-05-08T10:54:17Z</time>
      </trkpt>
      <trkpt lat="44.55156" lon="0.65384">
        <ele>111.65</ele>
        <time>2012-05-08T10:54:18Z</time>
      </trkpt>
      <trkpt lat="44.55155" lon="0.65383">
        <ele>111.65</ele>
        <time>2012-05-08T10:54:19Z</time>
      </trkpt>
      <trkpt lat="44.55153" lon="0.65383">
        <ele>111.65</ele>
        <time>2012-05-08T10:54:20Z</time>
      </trkpt>
      <trkpt lat="44.55152" lon="0.65384">
        <ele>111.65</ele>
        <time>2012-05-08T10:54:21Z</time>
      </trkpt>
      <trkpt lat="44.55151" lon="0.65386">
        <ele>111.17</ele>
        <time>2012-05-08T10:54:22Z</time>
      </trkpt>
      <trkpt lat="44.5515" lon="0.65388">
        <ele>111.17</ele>
        <time>2012-05-08T10:54:23Z</time>
      </trkpt>
      <trkpt lat="44.55149" lon="0.65391">
        <ele>111.17</ele>
        <time>2012-05-08T10:54:24Z</time>
      </trkpt>
      <trkpt lat="44.5514" lon="0.65409">
        <ele>110.69</ele>
        <time>2012-05-08T10:54:30Z</time>
      </trkpt>
      <trkpt lat="44.55137" lon="0.65409">
        <ele>110.69</ele>
        <time>2012-05-08T10:54:31Z</time>
      </trkpt>
      <trkpt lat="44.55135" lon="0.65407">
        <ele>110.69</ele>
        <time>2012-05-08T10:54:32Z</time>
      </trkpt>
      <trkpt lat="44.55108" lon="0.65373">
        <ele>112.13</ele>
        <time>2012-05-08T10:54:45Z</time>
      </trkpt>
      <trkpt lat="44.55103" lon="0.65365">
        <ele>111.65</ele>
        <time>2012-05-08T10:54:47Z</time>
      </trkpt>
      <trkpt lat="44.55099" lon="0.65362">
        <ele>111.17</ele>
        <time>2012-05-08T10:54:48Z</time>
      </trkpt>
      <trkpt lat="44.55052" lon="0.65325">
        <ele>105.4</ele>
        <time>2012-05-08T10:54:58Z</time>
      </trkpt>
      <trkpt lat="44.55045" lon="0.65319">
        <ele>104.44</ele>
        <time>2012-05-08T10:55:00Z</time>
      </trkpt>
      <trkpt lat="44.55012" lon="0.65299">
        <ele>100.6</ele>
        <time>2012-05-08T10:55:08Z</time>
      </trkpt>
      <trkpt lat="44.54985" lon="0.65263">
        <ele>102.04</ele>
        <time>2012-05-08T10:55:18Z</time>
      </trkpt>
      <trkpt lat="44.5498" lon="0.65249">
        <ele>103</ele>
        <time>2012-05-08T10:55:21Z</time>
      </trkpt>
      <trkpt lat="44.54976" lon="0.65229">
        <ele>104.44</ele>
        <time>2012-05-08T10:55:25Z</time>
      </trkpt>
      <trkpt lat="44.54974" lon="0.65227">
        <ele>104.44</ele>
        <time>2012-05-08T10:55:26Z</time>
      </trkpt>
      <trkpt lat="44.54971" lon="0.65225">
        <ele>104.44</ele>
        <time>2012-05-08T10:55:27Z</time>
      </trkpt>
      <trkpt lat="44.54969" lon="0.65222">
        <ele>103.96</ele>
        <time>2012-05-08T10:55:28Z</time>
      </trkpt>
      <trkpt lat="44.54966" lon="0.6522">
        <ele>103.96</ele>
        <time>2012-05-08T10:55:29Z</time>
      </trkpt>
      <trkpt lat="44.54953" lon="0.65215">
        <ele>105.4</ele>
        <time>2012-05-08T10:55:35Z</time>
      </trkpt>
      <trkpt lat="44.54952" lon="0.65214">
        <ele>105.4</ele>
        <time>2012-05-08T10:55:36Z</time>
      </trkpt>
      <trkpt lat="44.5495" lon="0.65213">
        <ele>105.4</ele>
        <time>2012-05-08T10:55:37Z</time>
      </trkpt>
      <trkpt lat="44.54949" lon="0.65213">
        <ele>105.88</ele>
        <time>2012-05-08T10:55:38Z</time>
      </trkpt>
      <trkpt lat="44.54947" lon="0.65213">
        <ele>105.88</ele>
        <time>2012-05-08T10:55:39Z</time>
      </trkpt>
      <trkpt lat="44.54946" lon="0.65212">
        <ele>106.36</ele>
        <time>2012-05-08T10:55:40Z</time>
      </trkpt>
      <trkpt lat="44.54944" lon="0.65211">
        <ele>106.84</ele>
        <time>2012-05-08T10:55:41Z</time>
      </trkpt>
      <trkpt lat="44.54942" lon="0.6521">
        <ele>106.84</ele>
        <time>2012-05-08T10:55:42Z</time>
      </trkpt>
      <trkpt lat="44.54941" lon="0.6521">
        <ele>107.32</ele>
        <time>2012-05-08T10:55:43Z</time>
      </trkpt>
      <trkpt lat="44.54939" lon="0.6521">
        <ele>107.32</ele>
        <time>2012-05-08T10:55:44Z</time>
      </trkpt>
      <trkpt lat="44.54915" lon="0.65201">
        <ele>109.25</ele>
        <time>2012-05-08T10:56:01Z</time>
      </trkpt>
      <trkpt lat="44.54898" lon="0.65195">
        <ele>109.25</ele>
        <time>2012-05-08T10:56:13Z</time>
      </trkpt>
      <trkpt lat="44.54897" lon="0.65194">
        <ele>109.25</ele>
        <time>2012-05-08T10:56:14Z</time>
      </trkpt>
      <trkpt lat="44.54896" lon="0.65194">
        <ele>109.25</ele>
        <time>2012-05-08T10:56:15Z</time>
      </trkpt>
      <trkpt lat="44.54895" lon="0.65193">
        <ele>109.25</ele>
        <time>2012-05-08T10:56:16Z</time>
      </trkpt>
      <trkpt lat="44.54893" lon="0.65193">
        <ele>109.25</ele>
        <time>2012-05-08T10:56:17Z</time>
      </trkpt>
      <trkpt lat="44.54892" lon="0.65192">
        <ele>109.25</ele>
        <time>2012-05-08T10:56:18Z</time>
      </trkpt>
      <trkpt lat="44.54891" lon="0.65192">
        <ele>109.25</ele>
        <time>2012-05-08T10:56:19Z</time>
      </trkpt>
      <trkpt lat="44.54889" lon="0.65192">
        <ele>109.25</ele>
        <time>2012-05-08T10:56:20Z</time>
      </trkpt>
      <trkpt lat="44.54888" lon="0.65191">
        <ele>109.25</ele>
        <time>2012-05-08T10:56:21Z</time>
      </trkpt>
      <trkpt lat="44.54865" lon="0.65185">
        <ele>110.21</ele>
        <time>2012-05-08T10:56:35Z</time>
      </trkpt>
      <trkpt lat="44.54831" lon="0.65179">
        <ele>111.17</ele>
        <time>2012-05-08T10:56:54Z</time>
      </trkpt>
      <trkpt lat="44.548" lon="0.65179">
        <ele>113.09</ele>
        <time>2012-05-08T10:57:09Z</time>
      </trkpt>
      <trkpt lat="44.54775" lon="0.65182">
        <ele>114.53</ele>
        <time>2012-05-08T10:57:21Z</time>
      </trkpt>
      <trkpt lat="44.54746" lon="0.65169">
        <ele>116.94</ele>
        <time>2012-05-08T10:57:37Z</time>
      </trkpt>
      <trkpt lat="44.54725" lon="0.65157">
        <ele>114.53</ele>
        <time>2012-05-08T10:57:53Z</time>
      </trkpt>
      <trkpt lat="44.54698" lon="0.65141">
        <ele>115.5</ele>
        <time>2012-05-08T10:58:14Z</time>
      </trkpt>
      <trkpt lat="44.5468" lon="0.65131">
        <ele>116.46</ele>
        <time>2012-05-08T10:58:28Z</time>
      </trkpt>
      <trkpt lat="44.54656" lon="0.65123">
        <ele>121.74</ele>
        <time>2012-05-08T10:58:45Z</time>
      </trkpt>
      <trkpt lat="44.54655" lon="0.65122">
        <ele>122.22</ele>
        <time>2012-05-08T10:58:46Z</time>
      </trkpt>
      <trkpt lat="44.54654" lon="0.6512">
        <ele>122.22</ele>
        <time>2012-05-08T10:58:47Z</time>
      </trkpt>
      <trkpt lat="44.54654" lon="0.65118">
        <ele>122.71</ele>
        <time>2012-05-08T10:58:48Z</time>
      </trkpt>
      <trkpt lat="44.54654" lon="0.65115">
        <ele>122.71</ele>
        <time>2012-05-08T10:58:49Z</time>
      </trkpt>
      <trkpt lat="44.54654" lon="0.65112">
        <ele>123.19</ele>
        <time>2012-05-08T10:58:50Z</time>
      </trkpt>
      <trkpt lat="44.54653" lon="0.6511">
        <ele>123.19</ele>
        <time>2012-05-08T10:58:51Z</time>
      </trkpt>
      <trkpt lat="44.54653" lon="0.65107">
        <ele>123.67</ele>
        <time>2012-05-08T10:58:52Z</time>
      </trkpt>
      <trkpt lat="44.54648" lon="0.65061">
        <ele>126.55</ele>
        <time>2012-05-08T10:59:06Z</time>
      </trkpt>
      <trkpt lat="44.5464" lon="0.64996">
        <ele>128.95</ele>
        <time>2012-05-08T10:59:23Z</time>
      </trkpt>
      <trkpt lat="44.54626" lon="0.64952">
        <ele>129.43</ele>
        <time>2012-05-08T10:59:33Z</time>
      </trkpt>
      <trkpt lat="44.5458" lon="0.6491">
        <ele>127.99</ele>
        <time>2012-05-08T10:59:44Z</time>
      </trkpt>
      <trkpt lat="44.54576" lon="0.64904">
        <ele>127.51</ele>
        <time>2012-05-08T10:59:45Z</time>
      </trkpt>
      <trkpt lat="44.54572" lon="0.64897">
        <ele>127.03</ele>
        <time>2012-05-08T10:59:46Z</time>
      </trkpt>
      <trkpt lat="44.54568" lon="0.64888">
        <ele>126.55</ele>
        <time>2012-05-08T10:59:47Z</time>
      </trkpt>
      <trkpt lat="44.54565" lon="0.64879">
        <ele>125.59</ele>
        <time>2012-05-08T10:59:48Z</time>
      </trkpt>
      <trkpt lat="44.54563" lon="0.64869">
        <ele>125.11</ele>
        <time>2012-05-08T10:59:49Z</time>
      </trkpt>
      <trkpt lat="44.54563" lon="0.64858">
        <ele>124.63</ele>
        <time>2012-05-08T10:59:50Z</time>
      </trkpt>
      <trkpt lat="44.54563" lon="0.64847">
        <ele>123.67</ele>
        <time>2012-05-08T10:59:51Z</time>
      </trkpt>
      <trkpt lat="44.54564" lon="0.64837">
        <ele>123.19</ele>
        <time>2012-05-08T10:59:52Z</time>
      </trkpt>
      <trkpt lat="44.54565" lon="0.64826">
        <ele>122.71</ele>
        <time>2012-05-08T10:59:53Z</time>
      </trkpt>
      <trkpt lat="44.54566" lon="0.64816">
        <ele>122.71</ele>
        <time>2012-05-08T10:59:54Z</time>
      </trkpt>
      <trkpt lat="44.54582" lon="0.64695">
        <ele>122.71</ele>
        <time>2012-05-08T11:00:07Z</time>
      </trkpt>
      <trkpt lat="44.54603" lon="0.64547">
        <ele>121.74</ele>
        <time>2012-05-08T11:00:24Z</time>
      </trkpt>
      <trkpt lat="44.54611" lon="0.64495">
        <ele>121.74</ele>
        <time>2012-05-08T11:00:30Z</time>
      </trkpt>
      <trkpt lat="44.5461" lon="0.64485">
        <ele>121.26</ele>
        <time>2012-05-08T11:00:31Z</time>
      </trkpt>
      <trkpt lat="44.54608" lon="0.64476">
        <ele>120.78</ele>
        <time>2012-05-08T11:00:32Z</time>
      </trkpt>
      <trkpt lat="44.54605" lon="0.64466">
        <ele>120.3</ele>
        <time>2012-05-08T11:00:33Z</time>
      </trkpt>
      <trkpt lat="44.54601" lon="0.64457">
        <ele>119.82</ele>
        <time>2012-05-08T11:00:34Z</time>
      </trkpt>
      <trkpt lat="44.54595" lon="0.64449">
        <ele>118.86</ele>
        <time>2012-05-08T11:00:35Z</time>
      </trkpt>
      <trkpt lat="44.54589" lon="0.64441">
        <ele>117.9</ele>
        <time>2012-05-08T11:00:36Z</time>
      </trkpt>
      <trkpt lat="44.54497" lon="0.64331">
        <ele>108.29</ele>
        <time>2012-05-08T11:00:48Z</time>
      </trkpt>
      <trkpt lat="44.54426" lon="0.6424">
        <ele>108.77</ele>
        <time>2012-05-08T11:00:59Z</time>
      </trkpt>
      <trkpt lat="44.54412" lon="0.6422">
        <ele>110.69</ele>
        <time>2012-05-08T11:01:03Z</time>
      </trkpt>
      <trkpt lat="44.54387" lon="0.64164">
        <ele>113.09</ele>
        <time>2012-05-08T11:01:16Z</time>
      </trkpt>
      <trkpt lat="44.54383" lon="0.64149">
        <ele>113.57</ele>
        <time>2012-05-08T11:01:19Z</time>
      </trkpt>
      <trkpt lat="44.54382" lon="0.64143">
        <ele>113.57</ele>
        <time>2012-05-08T11:01:20Z</time>
      </trkpt>
      <trkpt lat="44.5438" lon="0.64138">
        <ele>114.05</ele>
        <time>2012-05-08T11:01:21Z</time>
      </trkpt>
      <trkpt lat="44.54356" lon="0.64037">
        <ele>113.57</ele>
        <time>2012-05-08T11:01:36Z</time>
      </trkpt>
      <trkpt lat="44.54342" lon="0.6398">
        <ele>114.05</ele>
        <time>2012-05-08T11:01:44Z</time>
      </trkpt>
      <trkpt lat="44.5434" lon="0.63974">
        <ele>114.05</ele>
        <time>2012-05-08T11:01:45Z</time>
      </trkpt>
      <trkpt lat="44.54337" lon="0.6396">
        <ele>114.05</ele>
        <time>2012-05-08T11:01:47Z</time>
      </trkpt>
      <trkpt lat="44.54315" lon="0.63854">
        <ele>114.53</ele>
        <time>2012-05-08T11:02:02Z</time>
      </trkpt>
      <trkpt lat="44.54305" lon="0.6382">
        <ele>114.53</ele>
        <time>2012-05-08T11:02:07Z</time>
      </trkpt>
      <trkpt lat="44.5427" lon="0.6376">
        <ele>114.05</ele>
        <time>2012-05-08T11:02:16Z</time>
      </trkpt>
      <trkpt lat="44.54241" lon="0.6373">
        <ele>114.05</ele>
        <time>2012-05-08T11:02:22Z</time>
      </trkpt>
      <trkpt lat="44.54223" lon="0.63714">
        <ele>114.53</ele>
        <time>2012-05-08T11:02:26Z</time>
      </trkpt>
      <trkpt lat="44.54219" lon="0.63711">
        <ele>114.53</ele>
        <time>2012-05-08T11:02:27Z</time>
      </trkpt>
      <trkpt lat="44.54204" lon="0.63697">
        <ele>115.5</ele>
        <time>2012-05-08T11:02:31Z</time>
      </trkpt>
      <trkpt lat="44.54175" lon="0.63642">
        <ele>117.9</ele>
        <time>2012-05-08T11:02:45Z</time>
      </trkpt>
      <trkpt lat="44.54156" lon="0.63602">
        <ele>120.78</ele>
        <time>2012-05-08T11:02:58Z</time>
      </trkpt>
      <trkpt lat="44.54133" lon="0.63556">
        <ele>123.19</ele>
        <time>2012-05-08T11:03:13Z</time>
      </trkpt>
      <trkpt lat="44.54104" lon="0.63509">
        <ele>126.55</ele>
        <time>2012-05-08T11:03:29Z</time>
      </trkpt>
      <trkpt lat="44.54075" lon="0.63455">
        <ele>127.99</ele>
        <time>2012-05-08T11:03:45Z</time>
      </trkpt>
      <trkpt lat="44.54041" lon="0.63397">
        <ele>131.84</ele>
        <time>2012-05-08T11:04:03Z</time>
      </trkpt>
      <trkpt lat="44.54009" lon="0.63355">
        <ele>135.2</ele>
        <time>2012-05-08T11:04:19Z</time>
      </trkpt>
      <trkpt lat="44.53967" lon="0.63299">
        <ele>137.13</ele>
        <time>2012-05-08T11:04:36Z</time>
      </trkpt>
      <trkpt lat="44.53926" lon="0.63237">
        <ele>138.09</ele>
        <time>2012-05-08T11:04:52Z</time>
      </trkpt>
      <trkpt lat="44.539" lon="0.632">
        <ele>138.57</ele>
        <time>2012-05-08T11:05:01Z</time>
      </trkpt>
      <trkpt lat="44.53841" lon="0.63142">
        <ele>139.05</ele>
        <time>2012-05-08T11:05:18Z</time>
      </trkpt>
      <trkpt lat="44.53818" lon="0.63096">
        <ele>140.01</ele>
        <time>2012-05-08T11:05:29Z</time>
      </trkpt>
      <trkpt lat="44.53819" lon="0.63092">
        <ele>140.01</ele>
        <time>2012-05-08T11:05:30Z</time>
      </trkpt>
      <trkpt lat="44.5382" lon="0.63088">
        <ele>140.01</ele>
        <time>2012-05-08T11:05:31Z</time>
      </trkpt>
      <trkpt lat="44.53833" lon="0.63051">
        <ele>141.45</ele>
        <time>2012-05-08T11:05:43Z</time>
      </trkpt>
      <trkpt lat="44.5385" lon="0.63006">
        <ele>143.37</ele>
        <time>2012-05-08T11:05:57Z</time>
      </trkpt>
      <trkpt lat="44.53863" lon="0.62957">
        <ele>142.89</ele>
        <time>2012-05-08T11:06:10Z</time>
      </trkpt>
      <trkpt lat="44.53877" lon="0.62899">
        <ele>142.41</ele>
        <time>2012-05-08T11:06:24Z</time>
      </trkpt>
      <trkpt lat="44.53891" lon="0.62846">
        <ele>141.45</ele>
        <time>2012-05-08T11:06:37Z</time>
      </trkpt>
      <trkpt lat="44.53903" lon="0.62819">
        <ele>140.97</ele>
        <time>2012-05-08T11:06:45Z</time>
      </trkpt>
      <trkpt lat="44.53903" lon="0.62816">
        <ele>140.97</ele>
        <time>2012-05-08T11:06:46Z</time>
      </trkpt>
      <trkpt lat="44.53902" lon="0.62814">
        <ele>140.97</ele>
        <time>2012-05-08T11:06:47Z</time>
      </trkpt>
      <trkpt lat="44.53898" lon="0.62812">
        <ele>141.45</ele>
        <time>2012-05-08T11:06:49Z</time>
      </trkpt>
      <trkpt lat="44.53896" lon="0.62812">
        <ele>141.45</ele>
        <time>2012-05-08T11:06:50Z</time>
      </trkpt>
      <trkpt lat="44.53893" lon="0.62813">
        <ele>141.93</ele>
        <time>2012-05-08T11:06:51Z</time>
      </trkpt>
      <trkpt lat="44.53855" lon="0.62821">
        <ele>143.37</ele>
        <time>2012-05-08T11:07:07Z</time>
      </trkpt>
      <trkpt lat="44.53817" lon="0.62825">
        <ele>146.26</ele>
        <time>2012-05-08T11:07:23Z</time>
      </trkpt>
      <trkpt lat="44.53787" lon="0.62804">
        <ele>147.22</ele>
        <time>2012-05-08T11:07:36Z</time>
      </trkpt>
      <trkpt lat="44.53777" lon="0.62792">
        <ele>147.22</ele>
        <time>2012-05-08T11:07:42Z</time>
      </trkpt>
      <trkpt lat="44.53777" lon="0.62788">
        <ele>146.74</ele>
        <time>2012-05-08T11:07:43Z</time>
      </trkpt>
      <trkpt lat="44.53785" lon="0.62729">
        <ele>144.82</ele>
        <time>2012-05-08T11:07:58Z</time>
      </trkpt>
      <trkpt lat="44.53792" lon="0.62676">
        <ele>145.3</ele>
        <time>2012-05-08T11:08:14Z</time>
      </trkpt>
      <trkpt lat="44.53794" lon="0.62648">
        <ele>144.34</ele>
        <time>2012-05-08T11:08:23Z</time>
      </trkpt>
      <trkpt lat="44.53781" lon="0.62646">
        <ele>147.7</ele>
        <time>2012-05-08T11:08:33Z</time>
      </trkpt>
      <trkpt lat="44.53763" lon="0.62646">
        <ele>150.1</ele>
        <time>2012-05-08T11:08:41Z</time>
      </trkpt>
      <trkpt lat="44.53758" lon="0.62644">
        <ele>150.1</ele>
        <time>2012-05-08T11:08:43Z</time>
      </trkpt>
      <trkpt lat="44.53756" lon="0.62643">
        <ele>150.1</ele>
        <time>2012-05-08T11:08:44Z</time>
      </trkpt>
      <trkpt lat="44.53754" lon="0.62642">
        <ele>150.1</ele>
        <time>2012-05-08T11:08:45Z</time>
      </trkpt>
      <trkpt lat="44.53752" lon="0.62641">
        <ele>150.1</ele>
        <time>2012-05-08T11:08:46Z</time>
      </trkpt>
      <trkpt lat="44.53749" lon="0.62641">
        <ele>150.1</ele>
        <time>2012-05-08T11:08:47Z</time>
      </trkpt>
      <trkpt lat="44.53747" lon="0.62641">
        <ele>149.62</ele>
        <time>2012-05-08T11:08:48Z</time>
      </trkpt>
      <trkpt lat="44.53744" lon="0.6264">
        <ele>149.62</ele>
        <time>2012-05-08T11:08:49Z</time>
      </trkpt>
      <trkpt lat="44.53716" lon="0.6264">
        <ele>150.58</ele>
        <time>2012-05-08T11:09:02Z</time>
      </trkpt>
      <trkpt lat="44.53713" lon="0.6264">
        <ele>150.58</ele>
        <time>2012-05-08T11:09:04Z</time>
      </trkpt>
      <trkpt lat="44.53711" lon="0.6264">
        <ele>150.58</ele>
        <time>2012-05-08T11:09:05Z</time>
      </trkpt>
      <trkpt lat="44.5371" lon="0.62639">
        <ele>150.58</ele>
        <time>2012-05-08T11:09:06Z</time>
      </trkpt>
      <trkpt lat="44.53708" lon="0.62639">
        <ele>150.58</ele>
        <time>2012-05-08T11:09:07Z</time>
      </trkpt>
      <trkpt lat="44.53705" lon="0.62638">
        <ele>150.58</ele>
        <time>2012-05-08T11:09:11Z</time>
      </trkpt>
      <trkpt lat="44.53702" lon="0.62638">
        <ele>150.58</ele>
        <time>2012-05-08T11:09:13Z</time>
      </trkpt>
      <trkpt lat="44.537" lon="0.62638">
        <ele>150.58</ele>
        <time>2012-05-08T11:09:14Z</time>
      </trkpt>
      <trkpt lat="44.53698" lon="0.62637">
        <ele>151.06</ele>
        <time>2012-05-08T11:09:15Z</time>
      </trkpt>
      <trkpt lat="44.5368" lon="0.62631">
        <ele>151.54</ele>
        <time>2012-05-08T11:09:23Z</time>
      </trkpt>
      <trkpt lat="44.53679" lon="0.62628">
        <ele>151.54</ele>
        <time>2012-05-08T11:09:24Z</time>
      </trkpt>
      <trkpt lat="44.53679" lon="0.62624">
        <ele>151.54</ele>
        <time>2012-05-08T11:09:25Z</time>
      </trkpt>
      <trkpt lat="44.53679" lon="0.62621">
        <ele>151.54</ele>
        <time>2012-05-08T11:09:26Z</time>
      </trkpt>
      <trkpt lat="44.53679" lon="0.62617">
        <ele>151.54</ele>
        <time>2012-05-08T11:09:27Z</time>
      </trkpt>
      <trkpt lat="44.53679" lon="0.62614">
        <ele>151.06</ele>
        <time>2012-05-08T11:09:28Z</time>
      </trkpt>
      <trkpt lat="44.53679" lon="0.6261">
        <ele>151.06</ele>
        <time>2012-05-08T11:09:29Z</time>
      </trkpt>
      <trkpt lat="44.53679" lon="0.62606">
        <ele>151.06</ele>
        <time>2012-05-08T11:09:30Z</time>
      </trkpt>
      <trkpt lat="44.53679" lon="0.62602">
        <ele>151.06</ele>
        <time>2012-05-08T11:09:31Z</time>
      </trkpt>
      <trkpt lat="44.53679" lon="0.62598">
        <ele>151.06</ele>
        <time>2012-05-08T11:09:32Z</time>
      </trkpt>
      <trkpt lat="44.53679" lon="0.62594">
        <ele>151.06</ele>
        <time>2012-05-08T11:09:33Z</time>
      </trkpt>
      <trkpt lat="44.53678" lon="0.6259">
        <ele>151.06</ele>
        <time>2012-05-08T11:09:34Z</time>
      </trkpt>
      <trkpt lat="44.53677" lon="0.62587">
        <ele>151.54</ele>
        <time>2012-05-08T11:09:35Z</time>
      </trkpt>
      <trkpt lat="44.53675" lon="0.62584">
        <ele>151.54</ele>
        <time>2012-05-08T11:09:36Z</time>
      </trkpt>
      <trkpt lat="44.53658" lon="0.6257">
        <ele>154.91</ele>
        <time>2012-05-08T11:09:44Z</time>
      </trkpt>
      <trkpt lat="44.53656" lon="0.6257">
        <ele>154.91</ele>
        <time>2012-05-08T11:09:45Z</time>
      </trkpt>
      <trkpt lat="44.53654" lon="0.6257">
        <ele>155.39</ele>
        <time>2012-05-08T11:09:46Z</time>
      </trkpt>
      <trkpt lat="44.53652" lon="0.62569">
        <ele>155.39</ele>
        <time>2012-05-08T11:09:47Z</time>
      </trkpt>
      <trkpt lat="44.53651" lon="0.62568">
        <ele>154.91</ele>
        <time>2012-05-08T11:09:57Z</time>
      </trkpt>
      <trkpt lat="44.5365" lon="0.62567">
        <ele>153.95</ele>
        <time>2012-05-08T11:10:14Z</time>
      </trkpt>
      <trkpt lat="44.5365" lon="0.62564">
        <ele>154.43</ele>
        <time>2012-05-08T11:10:30Z</time>
      </trkpt>
      <trkpt lat="44.53649" lon="0.62559">
        <ele>154.43</ele>
        <time>2012-05-08T11:10:33Z</time>
      </trkpt>
      <trkpt lat="44.5365" lon="0.62558">
        <ele>154.43</ele>
        <time>2012-05-08T11:10:34Z</time>
      </trkpt>
      <trkpt lat="44.53649" lon="0.62557">
        <ele>155.87</ele>
        <time>2012-05-08T11:10:50Z</time>
      </trkpt>
      <trkpt lat="44.53648" lon="0.62557">
        <ele>157.31</ele>
        <time>2012-05-08T11:11:29Z</time>
      </trkpt>
      <trkpt lat="44.53648" lon="0.62557">
        <ele>157.31</ele>
        <time>2012-05-08T11:12:06Z</time>
      </trkpt>
      <trkpt lat="44.53648" lon="0.62557">
        <ele>156.83</ele>
        <time>2012-05-08T11:12:15Z</time>
      </trkpt>
    </trkseg>
  </trk>
</gpx>